[[{"header":{"parameterUnit":"m.s-1","parameterCategory":1,"la1":30.6,"la2":29.2853,"lo1":-89.7004,"lo2":-87.6739,"dy":0.0162,"dx":0.0183,"nx":112,"ny":82,"refTime":"2023-10-05T06:00:00:Z","depth":0,"parameterNumber":2,"parameterNumberName":"U-component_of_WINDS"},"data":[0.0,0.0,0.0,0.0,0.0,0.0,0.0,0.0,0.0,0.0,0.0,0.0,0.0,0.0,0.0,0.0,0.0,0.0,0.0,0.0,0.0,0.0,0.0,0.0,0.0,0.0,0.0,0.0,0.0,0.0,0.0,0.0,0.0,0.0,0.0,0.0,0.0,0.0,0.0,0.0,0.0,0.0,0.0,0.0,0.0,0.0,0.0,0.0,0.0,0.0,0.0,0.0,0.0,0.0,0.0,0.0,0.0,0.0,0.0,0.0,0.0,0.0,0.0,0.0,0.0,0.0,0.0,0.0,0.0,0.0,0.0,0.0,0.0,0.0,0.0,0.0,0.0,0.0,0.0,0.0,0.0,0.0,0.0,0.0,0.0,0.0,0.0,0.0,0.0,0.0,1.1401,0.9897,0.9178,0.8711,0.8482,0.7829,0.7507,0.7619,0.0,0.0,0.0,0.0,0.0,0.0,0.0,0.0,0.0,0.0,0.0,0.0,0.0,0.0,0.0,0.0,0.0,0.0,0.0,0.0,0.0,0.0,0.0,0.0,0.0,0.0,0.0,0.0,0.0,0.0,0.0,0.0,0.0,0.0,0.0,0.0,0.0,0.0,0.0,0.0,0.0,0.0,0.0,0.0,0.0,0.0,0.0,0.0,0.0,0.0,0.0,0.0,0.0,0.0,0.0,0.0,0.0,0.0,0.0,0.0,0.0,0.0,0.0,0.0,0.0,0.0,0.0,0.0,0.0,0.0,0.0,0.0,0.0,0.0,0.0,0.0,0.0,0.0,0.0,0.0,0.0,0.0,0.0,0.0,0.0,0.0,0.0,0.0,0.0,0.0,0.0,0.0,0.0,0.0,0.0,0.0,0.0,0.0,0.0,0.0,0.0,0.0,0.0,0.0,1.0647,0.8838,0.8741,0.8791,0.8751,0.7785,0.7487,0.823,0.0,0.0,0.0,0.0,0.0,0.0,0.0,0.0,0.0,0.0,0.0,0.0,0.0,0.0,0.0,0.0,0.0,0.0,0.0,0.0,0.0,0.0,0.0,0.0,0.0,0.0,0.0,0.0,0.0,0.0,0.0,0.0,0.0,0.0,0.0,0.0,0.0,0.0,0.0,0.0,0.0,0.0,0.0,0.0,0.0,0.0,0.0,0.0,0.0,0.0,0.0,0.0,0.0,0.0,0.0,0.0,0.0,0.0,0.0,0.0,0.0,0.0,0.0,0.0,0.0,0.0,0.0,0.0,0.0,0.0,0.0,0.0,0.0,0.0,0.0,0.0,0.0,0.0,0.0,0.0,0.0,0.0,0.0,0.0,0.0,0.0,0.0,0.0,0.0,0.0,0.0,0.0,0.0,0.0,0.0,0.0,0.0,0.0,0.0,0.0,0.0,0.0,0.0,1.0865,0.918,0.8675,0.8724,0.8804,0.8804,0.8009,0.7946,0.8884,0.9254,0.0,0.0,0.0,0.0,0.0,0.0,0.0,0.0,0.0,0.0,0.0,0.0,0.0,0.0,0.0,0.0,0.0,0.0,0.0,0.0,0.0,0.0,0.0,0.0,0.0,0.0,0.0,0.0,0.0,0.0,0.0,0.0,0.0,0.0,0.0,0.0,0.0,0.0,0.0,0.0,0.0,0.0,0.0,0.0,0.0,0.0,0.0,0.0,0.0,0.0,0.0,0.0,0.0,0.0,0.0,0.0,0.0,0.0,0.0,0.0,0.0,0.0,0.0,0.0,0.0,0.0,0.0,0.0,0.0,0.0,0.0,0.0,0.0,0.0,0.0,0.0,0.0,0.0,0.0,0.0,0.0,0.0,0.0,0.0,0.0,0.0,0.0,0.0,0.0,0.0,0.0,0.0,0.0,0.0,0.0,0.0,0.0,0.0,0.0,0.0,0.0,0.0,0.9404,0.8101,0.8502,0.8368,0.8316,0.8449,0.788,0.8082,0.9337,0.9664,0.0,0.0,0.0,0.0,0.0,0.0,0.0,0.0,0.0,0.0,0.0,0.0,0.0,0.0,0.0,0.0,0.0,0.0,0.0,0.0,0.0,0.0,0.0,0.0,0.0,0.0,0.0,0.0,0.0,0.0,0.0,0.0,0.0,0.0,0.0,0.0,0.0,0.0,0.0,0.0,0.0,0.0,0.0,0.0,0.0,0.0,0.0,0.0,0.0,0.0,0.0,0.0,0.0,0.0,0.0,0.0,0.0,0.0,0.0,0.0,0.0,0.0,0.0,0.0,0.0,0.0,0.0,0.0,0.0,0.0,0.0,0.0,0.0,0.0,0.0,0.0,0.0,0.0,0.0,0.0,0.0,0.0,0.0,0.0,0.0,0.0,0.0,0.0,0.0,0.0,0.0,0.0,0.0,0.0,0.0,0.0,0.0,0.0,0.0,0.0,0.0,0.0,0.9217,0.8194,0.7817,0.7155,0.6935,0.7363,0.686,0.7327,0.9283,0.9483,0.0,0.0,0.0,0.0,0.0,0.0,0.0,0.0,0.0,0.0,0.0,0.0,0.0,0.0,0.0,0.0,0.0,0.0,0.0,0.0,0.0,0.0,0.0,0.0,0.0,0.0,0.0,0.0,0.0,0.0,0.0,0.0,0.0,0.0,0.0,0.0,0.0,0.0,0.0,0.0,0.0,0.0,0.0,0.0,0.0,0.0,0.0,0.0,0.0,0.0,0.0,0.0,0.0,0.0,0.0,0.0,0.0,0.0,0.0,0.0,0.0,0.0,0.0,0.0,0.0,0.0,0.0,0.0,0.0,0.0,0.0,0.0,0.0,0.0,0.0,0.0,0.0,0.0,0.0,0.0,0.0,0.0,0.0,0.0,0.0,0.0,0.0,0.0,0.0,0.0,0.0,0.0,0.0,0.0,0.0,0.0,0.0,0.0,0.0,0.0,0.0,0.0,0.8466,0.7303,0.7047,0.6696,0.6712,0.7251,0.6661,0.7338,0.9875,0.0,0.0,0.0,0.0,0.0,0.0,0.0,0.0,0.0,0.0,0.0,0.0,0.0,0.0,0.0,0.0,0.0,0.0,0.0,0.0,0.0,0.0,0.0,0.0,0.0,0.0,0.0,0.0,0.0,0.0,0.0,0.0,0.0,0.0,0.0,0.0,0.0,0.0,0.0,0.0,0.0,0.0,0.0,0.0,0.0,0.0,0.0,0.0,0.0,0.0,0.0,0.0,0.0,0.0,0.0,0.0,0.0,0.0,0.0,0.0,0.0,0.0,0.0,0.0,0.0,0.0,0.0,0.0,0.0,0.0,0.0,0.0,0.0,0.0,0.0,0.0,0.0,0.0,0.0,0.0,0.0,0.0,0.0,0.0,0.0,0.0,0.0,0.0,0.0,0.0,0.0,0.0,0.0,0.0,0.0,0.0,0.0,0.0,0.0,0.0,0.0,0.0,0.954,0.7538,0.6201,0.639,0.5955,0.6016,0.6947,0.6203,0.6989,1.0061,0.0,0.0,0.0,0.0,0.0,0.0,0.0,0.0,0.0,0.0,0.0,0.0,0.0,0.0,0.0,0.0,0.0,0.0,0.0,0.0,0.0,0.0,0.0,0.0,0.0,0.0,0.0,0.0,0.0,0.0,0.0,0.0,0.0,0.0,0.0,0.0,0.0,0.0,0.0,0.0,0.0,0.0,0.0,0.0,0.0,0.0,0.0,0.0,0.0,0.0,0.0,0.0,0.0,0.0,0.0,0.0,0.0,0.0,0.0,0.0,0.0,0.0,0.0,0.0,0.0,0.0,0.0,0.0,0.0,0.0,0.0,0.0,0.0,0.0,0.0,0.0,0.0,0.0,0.0,0.0,0.0,0.0,0.0,0.0,0.0,0.0,0.0,0.0,0.0,0.0,0.0,0.0,0.0,0.0,0.0,0.0,0.0,0.0,0.0,0.0,0.0,0.0,0.8898,0.6441,0.5021,0.5882,0.48,0.4654,0.6236,0.5302,0.6103,0.0,0.0,0.0,0.0,0.0,0.0,0.0,0.0,0.0,0.0,0.0,0.0,0.0,0.0,0.0,0.0,0.0,0.0,0.0,0.0,0.0,0.0,0.0,0.0,0.0,0.0,0.0,0.0,0.0,0.0,0.0,0.0,0.0,0.0,0.0,0.0,0.0,0.0,0.0,0.0,0.0,0.0,0.0,0.0,0.0,0.0,0.0,0.0,0.0,0.0,0.0,0.0,0.0,0.0,0.0,0.0,0.0,0.0,0.0,0.0,0.0,0.0,0.0,0.0,0.0,0.0,0.0,0.0,0.0,0.0,0.0,0.0,0.0,0.0,0.0,0.0,0.0,0.0,0.0,0.0,0.0,0.0,0.0,0.0,0.0,0.0,0.0,0.0,0.0,0.0,0.0,0.0,0.0,0.0,0.0,0.0,0.0,0.0,0.0,0.0,0.0,0.0,0.0,0.7933,0.5888,0.4504,0.4579,0.4525,0.4773,0.5429,0.5249,0.6188,0.8747,0.0,0.0,0.0,0.0,0.0,0.0,0.0,0.0,0.0,0.0,0.0,0.0,0.0,0.0,0.0,0.0,0.0,0.0,0.0,0.0,0.0,0.0,0.0,0.0,0.0,0.0,0.0,0.0,0.0,0.0,0.0,0.0,0.0,0.0,0.0,0.0,0.0,0.0,0.0,0.0,0.0,0.0,0.0,0.0,0.0,0.0,0.0,0.0,0.0,0.0,0.0,0.0,0.0,0.0,0.0,0.0,0.0,0.0,0.0,0.0,0.0,0.0,0.0,0.0,0.0,0.0,0.0,0.0,0.0,0.0,0.0,0.0,0.0,0.0,0.0,0.0,0.0,0.0,0.0,0.0,0.0,0.0,0.0,0.0,0.0,0.0,0.0,0.0,0.0,0.0,0.0,0.0,0.0,0.0,0.0,0.0,0.0,0.0,0.0,0.0,0.0,0.0,0.7424,0.5357,0.4008,0.4134,0.4422,0.4826,0.548,0.5392,0.6206,0.8347,0.0,0.0,0.0,0.0,0.0,0.0,0.0,0.0,0.0,0.0,0.0,0.0,0.0,0.0,0.0,0.0,0.0,0.0,0.0,0.0,0.0,0.0,0.0,0.0,0.0,0.0,0.0,0.0,0.0,0.0,0.0,0.0,0.0,0.0,0.0,0.0,0.0,0.0,0.0,0.0,0.0,0.0,0.0,0.0,0.0,0.0,0.0,0.0,0.0,0.0,0.0,0.0,0.0,0.0,0.0,0.0,0.0,0.0,0.0,0.0,0.0,0.0,0.0,0.0,0.0,0.0,0.0,0.0,0.0,0.0,0.0,0.0,0.0,0.0,0.0,0.0,0.0,0.0,0.0,0.0,0.0,0.0,0.0,0.0,0.0,0.0,0.0,0.0,0.0,0.0,0.0,0.0,0.0,0.0,0.0,0.0,0.0,0.0,0.0,0.0,0.0,0.0,0.7216,0.4914,0.3595,0.4288,0.4451,0.4937,0.6007,0.5693,0.6258,0.8207,0.0,0.0,0.0,0.0,0.0,0.0,0.0,0.0,0.0,0.0,0.0,0.0,0.0,0.0,0.0,0.0,0.0,0.0,0.0,0.0,0.0,0.0,0.0,0.0,0.0,0.0,0.0,0.0,0.0,0.0,0.0,0.0,0.0,0.0,0.0,0.0,0.0,0.0,0.0,0.0,0.0,0.0,0.0,0.0,0.0,0.0,0.0,0.0,0.0,0.0,0.0,0.0,0.0,0.0,0.0,0.0,0.0,0.0,0.0,0.0,0.3894,0.5123,0.0,0.0,0.0,0.0,0.0,0.0,0.0,0.0,0.0,0.0,0.0,0.0,0.0,0.0,0.0,0.0,0.0,0.0,0.0,0.0,0.0,0.0,0.0,0.0,0.0,0.0,0.0,0.0,0.0,0.0,0.0,0.0,0.0,0.0,0.0,0.0,0.0,0.0,0.0,0.0,0.6693,0.4796,0.3674,0.4038,0.479,0.5276,0.5328,0.5946,0.6514,0.6983,0.746,0.0,0.0,0.0,0.0,0.0,0.0,0.0,0.0,0.0,0.0,0.0,0.0,0.0,0.0,0.0,0.0,0.0,0.0,0.0,0.0,0.0,0.0,0.0,0.0,0.0,0.0,0.0,0.0,0.0,0.0,0.0,0.0,0.0,0.0,0.0,0.0,0.0,0.0,0.0,0.0,0.0,0.0,0.0,0.0,0.0,0.0,0.0,0.0,0.0,0.0,0.0,0.0,0.0,0.0,0.0,0.0,0.0,0.0,0.0,0.2673,0.3431,0.0,0.0,0.0,0.0,0.0,0.0,0.0,0.0,0.0,0.0,0.0,0.0,0.0,0.0,0.0,0.0,0.0,0.0,0.0,0.0,0.0,0.0,0.0,0.0,0.0,0.0,0.0,0.0,0.0,0.0,0.0,0.0,0.0,0.0,0.0,0.0,0.0,0.0,0.0,0.0,0.6492,0.477,0.369,0.3964,0.4907,0.5441,0.5301,0.6085,0.6606,0.6606,0.7061,0.0,0.0,0.0,0.0,0.0,0.0,0.0,0.0,0.0,0.0,0.0,0.0,0.0,0.0,0.0,0.0,0.0,0.0,0.0,0.0,0.0,0.0,0.0,0.0,0.0,0.0,0.0,0.0,0.0,0.0,0.0,0.0,0.0,0.0,0.0,0.0,0.0,0.0,0.0,0.0,0.0,0.0,0.0,0.0,0.0,0.0,0.0,0.0,0.0,0.0,0.0,0.0,0.0,-0.2156,-0.1704,-0.0701,-0.0445,-0.0074,0.0433,0.1408,0.154,0.1193,0.2517,0.0,0.0,0.0,0.0,0.0,0.0,0.0,0.0,0.0,0.0,0.0,0.0,0.0,0.0,0.0,0.0,0.0,0.0,0.0,0.0,0.0,0.0,0.653,0.5852,0.5753,0.6227,0.7752,0.0,0.0,0.0,0.0,0.0,0.0,0.0,0.0,0.0,0.0,0.0,0.6488,0.4823,0.3799,0.407,0.4967,0.5563,0.5563,0.6228,0.664,0.6606,0.6814,0.7224,0.0,0.0,0.0,0.0,0.0,0.0,0.0,0.0,0.0,0.0,0.0,0.0,0.0,0.0,0.0,0.0,0.0,0.0,0.0,0.0,0.0,0.0,0.0,0.0,0.0,0.0,0.0,0.0,0.0,0.0,0.0,0.0,-0.4535,-0.4138,0.0,0.0,0.0,0.0,0.0,0.0,0.0,0.0,0.0,0.0,0.0,0.0,0.0,-0.7594,-0.5901,-0.7058,-0.657,-0.4419,-0.4743,-0.4408,-0.3449,-0.2257,-0.1694,-0.1556,-0.0279,0.0,0.1867,0.2095,0.0,0.0,0.0,0.0,0.0,0.0,0.0,0.0,0.0,0.0,0.0,0.0,0.0,0.0,0.0,0.0,0.0,0.0,0.0,0.0,0.0,0.0,0.6104,0.5375,0.5116,0.5152,0.5508,0.6905,0.8084,0.8027,0.9017,0.9955,0.0,0.0,0.0,0.0,0.0,0.0,0.6642,0.5135,0.4193,0.4416,0.5242,0.5756,0.5756,0.6502,0.6854,0.662,0.6627,0.6801,0.714,0.7115,0.0,0.0,0.0,0.0,0.0,0.0,0.0,0.0,0.0,0.0,0.0,0.0,0.0,0.0,0.0,0.0,0.0,0.0,0.0,0.0,0.0,0.0,0.0,0.0,0.0,0.0,0.0,0.0,0.0,-0.6391,-0.647,-0.6484,-0.6152,-0.5814,0.0,0.0,0.0,0.0,0.0,0.0,0.0,0.0,0.0,-0.9452,-0.9754,-0.9516,-0.8646,-0.9399,-0.8556,-0.6258,-0.6456,-0.5653,-0.3987,-0.3405,-0.3126,-0.3105,-0.2512,-0.15,-0.0191,0.0555,0.1154,0.1685,0.0,0.0,0.0,0.0,0.5727,0.5699,0.5808,0.5572,0.5171,0.4904,0.0,0.0,0.0,0.0,0.0,0.0,0.0,0.5389,0.5305,0.5119,0.5022,0.5306,0.5399,0.5386,0.5284,0.5903,0.6518,0.6576,0.7066,0.768,0.8397,0.8449,0.0,0.0,0.0,0.6152,0.6009,0.4942,0.4274,0.447,0.5405,0.5972,0.5805,0.6704,0.7081,0.6633,0.6914,0.7089,0.7006,0.7508,0.8282,0.0,0.0,0.0,0.0,0.0,0.0,0.0,0.0,0.0,0.0,0.0,0.0,0.0,0.0,0.0,0.0,0.0,0.0,0.0,0.0,0.0,0.0,0.0,0.0,0.0,0.0,0.0,0.0,-0.895,-0.892,-0.9003,-0.9364,-0.9277,0.0,0.0,0.0,0.0,0.0,0.0,-1.2997,-1.2918,-1.3022,-1.3445,-1.2844,-1.2203,-1.1612,-1.1905,-1.0814,-0.8438,-0.8558,-0.7729,-0.5995,-0.5332,-0.5001,-0.4997,-0.4293,-0.3451,-0.2396,-0.1066,0.011,0.114,0.1692,0.2387,0.3097,0.363,0.3495,0.3052,0.3196,0.2873,0.2403,0.2239,0.2027,0.1922,0.2342,0.0,0.0,0.0,0.0,0.3204,0.4073,0.3948,0.3848,0.4686,0.4962,0.495,0.4797,0.4726,0.4885,0.5448,0.5552,0.5891,0.6969,0.673,0.0,0.7256,0.6216,0.5394,0.5494,0.4793,0.4341,0.4477,0.5351,0.5923,0.5908,0.6766,0.7211,0.6961,0.729,0.7424,0.7246,0.7829,0.8473,0.9131,0.0,0.0,0.0,0.0,0.0,0.0,0.0,0.0,0.0,0.0,0.0,0.0,0.0,0.0,0.0,0.0,0.0,0.0,0.0,0.0,0.0,0.0,0.0,0.0,0.0,0.0,0.0,0.0,0.0,-1.162,-1.2916,0.0,0.0,0.0,0.0,-1.4899,-1.5326,-1.5702,-1.6167,-1.6695,-1.7131,-1.7403,-1.7895,-1.7125,-1.4869,-1.5278,-1.4131,-1.1462,-1.1586,-1.1609,-1.1414,-0.8947,-0.7816,-0.7661,-0.5099,-0.3943,-0.3806,-0.247,-0.0706,0.1088,0.1133,0.1591,0.2275,0.2311,0.2275,0.2285,0.2496,0.2405,0.2126,0.1537,0.0781,0.0112,0.0146,0.0697,0.0,0.0,0.1738,0.2321,0.2554,0.2608,0.265,0.2972,0.2955,0.2901,0.3002,0.2942,0.3262,0.4677,0.4935,0.515,0.5793,0.0,0.6032,0.6564,0.6,0.5502,0.5511,0.4917,0.4484,0.4491,0.4908,0.544,0.6125,0.6583,0.7122,0.7798,0.7638,0.7611,0.7846,0.7642,0.7836,0.8439,0.8466,0.0,0.0,0.0,0.0,0.0,0.0,0.0,0.0,0.0,0.0,0.0,0.0,0.0,0.0,0.0,0.0,0.0,0.0,0.0,0.0,0.0,0.0,0.0,0.0,0.0,0.0,0.0,0.0,-1.5386,-1.5905,0.0,-1.5017,-1.5601,-1.6334,-1.7063,-1.7934,-1.8732,-1.9465,-1.9738,-2.005,-2.0457,-2.0184,-1.9592,-1.8785,-1.8613,-1.7236,-1.47,-1.4483,-1.3513,-1.1853,-1.0956,-1.0507,-1.0458,-0.9502,-0.8616,-0.776,-0.7295,-0.5107,-0.2064,-0.2131,-0.1979,-0.1668,-0.1668,-0.1725,-0.1744,-0.1529,-0.1516,-0.1666,-0.1823,-0.2062,-0.2158,-0.1379,-0.098,-0.0593,0.0183,0.0588,0.0966,0.173,0.1933,0.2118,0.2844,0.2988,0.2958,0.2911,0.2845,0.2956,0.3414,0.3406,0.3384,0.3485,0.3495,0.3722,0.4441,0.4273,0.427,0.4794,0.4656,0.4491,0.4491,0.5,0.5394,0.5483,0.6066,0.6638,0.717,0.7303,0.7621,0.8203,0.8283,0.843,0.8644,0.8657,0.888,0.0,0.0,0.0,0.0,0.0,0.0,0.0,0.0,0.0,0.0,0.0,0.0,0.0,0.0,0.0,0.0,0.0,0.0,0.0,0.0,0.0,0.0,0.0,0.0,0.0,-1.6638,-1.7406,-1.8488,-1.9125,-1.9151,-1.833,-1.8934,-1.9559,-1.9993,-2.0776,-2.1543,-2.2223,-2.2322,-2.2481,-2.2824,-2.2319,-2.1812,-2.1384,-2.0977,-1.9727,-1.7644,-1.7182,-1.6101,-1.4458,-1.369,-1.3303,-1.3128,-1.2412,-1.1521,-1.0562,-1.0562,-0.8933,-0.636,-0.5149,-0.4598,-0.4497,-0.4016,-0.392,-0.3961,-0.3819,-0.3765,-0.3787,-0.3713,-0.3635,-0.3447,-0.2629,-0.2422,-0.2239,-0.1456,-0.0912,-0.044,0.0275,0.0754,0.1244,0.1884,0.2042,0.2031,0.1944,0.1923,0.1889,0.1808,0.2439,0.2843,0.2387,0.2558,0.2787,0.2972,0.3237,0.3573,0.4075,0.4395,0.4545,0.4498,0.4897,0.5171,0.5237,0.6031,0.6691,0.7087,0.7314,0.7754,0.8498,0.8371,0.8462,0.8778,0.8487,0.8368,0.8421,0.0,0.0,0.0,0.0,0.0,0.0,0.0,0.0,0.0,0.0,0.0,0.0,0.0,0.0,0.0,0.0,0.0,0.0,0.0,0.0,0.0,0.0,0.0,-1.8125,-1.9904,-2.1133,-2.0801,-2.2539,-2.332,-2.209,-2.2758,-2.3423,-2.3769,-2.3809,-2.3984,-2.4394,-2.4434,-2.4453,-2.4453,-2.4453,-2.3897,-2.2706,-2.2307,-2.1444,-2.0198,-1.9787,-1.9575,-1.9484,-1.7337,-1.6149,-1.5704,-1.3532,-1.2389,-1.2086,-1.2047,-1.1963,-1.1445,-0.7637,-0.618,-0.6034,-0.4742,-0.4226,-0.4222,-0.4226,-0.4162,-0.4036,-0.4029,-0.3938,-0.376,-0.3753,-0.3677,-0.3657,-0.3612,-0.2729,-0.1804,-0.1802,-0.0924,0.0,0.0,0.0,0.0,0.0,0.0,0.0,0.0,0.2104,0.3616,0.2608,0.3123,0.3343,0.2317,0.2947,0.0,0.3407,0.416,0.464,0.4525,0.4511,0.4781,0.5426,0.6435,0.7193,0.7607,0.7637,0.7969,0.8699,0.7805,0.7729,0.8725,0.7836,0.7488,0.7691,0.0,0.0,0.0,0.0,0.0,0.0,0.0,0.0,0.0,0.0,0.0,0.0,0.0,0.0,0.0,0.0,0.0,0.0,0.0,0.0,0.0,-2.037,-2.2103,-2.0977,-2.1602,-2.2578,-2.3736,-2.4082,-2.4102,-2.375,-2.3926,-2.4121,-2.4238,-2.4238,-2.4297,-2.4414,-2.4727,-2.5039,-2.5323,-2.5323,-2.5334,-2.535,-2.4603,-2.3654,-2.2428,-2.1943,-2.128,-2.0415,-1.9462,-1.9005,-1.8801,-1.7032,-1.6191,-1.6015,-1.5127,-1.4709,-1.4397,-1.1423,-1.0201,-1.0076,-0.9699,-0.952,-0.9465,-0.9554,-0.949,-0.9386,-0.9392,-0.8679,-0.7719,-0.6891,-0.5918,-0.4879,-0.4011,-0.2823,-0.1798,-0.181,-0.0924,0.0,0.0,0.0,0.0,0.0,0.0,0.0,0.0,0.1113,0.1758,0.0854,0.0902,0.1122,0.1366,0.1618,0.2205,0.3385,0.3747,0.4176,0.4846,0.4945,0.4965,0.5062,0.5329,0.5669,0.6082,0.6109,0.6443,0.7182,0.6929,0.6929,0.7208,0.6939,0.709,0.0,0.0,0.0,0.0,0.0,0.0,0.0,0.0,0.0,0.0,0.0,0.0,0.0,0.0,0.0,0.0,0.0,0.0,0.0,0.0,0.0,0.0,-2.3094,-2.5275,-2.4196,-2.4102,-2.4512,-2.5508,-2.5547,-2.5508,-2.5508,-2.5508,-2.543,-2.5254,-2.541,-2.543,-2.5254,-2.5644,-2.5996,-2.622,-2.6094,-2.6133,-2.6387,-2.5556,-2.4726,-2.4039,-2.3561,-2.2981,-2.2303,-2.16,-2.126,-2.1058,-1.9161,-1.8195,-1.7846,-1.6532,-1.5939,-1.5581,0.0,0.0,0.0,0.0,-1.1715,-1.167,-1.1755,-1.1691,-1.16,-1.16,-1.102,-1.0205,-0.954,-0.8367,-0.7093,-0.636,-0.4894,-0.3451,-0.3423,-0.2551,-0.1633,-0.1516,-0.1564,-0.144,-0.0866,-0.0772,-0.0592,-0.0082,0.0404,0.0,0.0077,0.0294,0.0567,0.0628,0.0951,0.1516,0.2432,0.3214,0.3882,0.4409,0.479,0.4975,0.4894,0.5245,0.0,0.0,0.0,0.5852,0.6118,0.6453,0.0,0.0,0.0,0.646,0.6853,0.6128,0.0,0.0,0.71,0.7021,0.0,0.0,0.0,0.0,0.0,0.0,0.0,0.0,0.0,0.0,0.0,0.0,0.0,0.0,0.0,0.0,-2.5509,-2.7586,-2.715,-2.6855,-2.6641,-2.6543,-2.6816,-2.7012,-2.7012,-2.7012,-2.6855,-2.6484,-2.6797,-2.6855,-2.6484,-2.6816,0.0,0.0,0.0,-2.6484,-2.6543,-2.5703,-2.5341,-2.5341,-2.4902,-2.4687,-2.4602,-2.3706,-2.3135,-2.2742,-2.054,-1.9287,-1.8686,-1.7175,-1.6311,-1.5769,-1.458,-1.4112,-1.398,-1.2764,-1.2339,-1.2339,-1.2339,0.0,0.0,-1.2168,-1.1973,-1.1759,-1.1759,-1.0815,-0.9731,-0.9731,-0.7944,-0.5993,-0.5891,-0.4915,-0.3953,-0.372,-0.3737,-0.3493,-0.23,-0.2036,-0.1658,-0.0435,-0.0211,-0.0164,-0.0041,0.0653,0.0876,0.011,0.0643,0.1147,0.1118,0.2533,0.3526,0.3535,0.4306,0.0,0.4812,0.5594,0.5989,0.5702,0.581,0.5734,0.5448,0.6055,0.6412,0.6412,0.5954,0.5686,0.5686,0.5035,0.485,0.5101,0.5515,0.541,0.0,0.0,0.0,0.0,0.0,0.0,0.0,0.0,0.0,0.0,0.0,0.0,0.0,0.0,0.0,-2.356,-2.632,-2.8271,-2.7629,-2.8047,-2.8184,-2.7552,-2.7187,-2.7012,-2.7012,-2.7012,-2.6973,-2.6894,-2.6973,-2.6973,-2.6894,-2.6973,-2.7168,-2.7519,-2.7109,-2.707,-2.7422,-2.6894,-2.6641,-2.6641,-2.6562,0.0,-2.5996,-2.543,-2.4967,-2.4544,-2.2727,-2.1865,-2.1583,-1.9233,-1.7556,-1.6437,-1.5717,-1.5439,-1.5391,-1.514,-1.5045,-1.5045,-1.5045,-1.5019,-1.5016,-1.5016,-1.4302,-1.3435,-1.3435,-1.2436,0.0,-1.1263,-0.9426,-0.7396,-0.737,-0.5706,-0.3982,-0.395,-0.3953,-0.3849,-0.3497,-0.3422,-0.3021,-0.1703,-0.1464,-0.115,-0.0168,0.0158,0.0188,0.0038,0.0147,0.0501,0.1183,0.1553,0.2091,0.2935,0.3818,0.4288,0.4191,0.5036,0.541,0.5102,0.5111,0.5097,0.5009,0.5151,0.5217,0.5217,0.5127,0.5081,0.5081,0.4937,0.4874,0.4928,0.5019,0.5074,0.0,0.0,0.0,0.0,0.0,0.0,0.0,0.0,0.0,0.0,0.0,-2.0781,-2.1426,0.0,-2.5544,-2.5405,-2.8056,-2.9598,-2.8226,-2.8907,-2.9219,-2.8133,-2.7969,-2.7891,-2.7676,-2.7656,-2.7656,-2.7656,-2.7656,-2.7656,-2.7656,-2.7656,-2.7754,-2.7969,-2.7559,-2.7441,-2.7728,-2.7226,-2.7012,-2.7012,-2.7012,-2.6914,-2.6699,-2.6484,-2.625,-2.5966,-2.4214,-2.3383,-2.3069,-2.0718,-1.8935,-1.764,-1.7378,-1.6746,-1.6032,-1.5838,-1.5784,-1.5784,-1.5784,-1.5784,-1.5784,-1.5784,-1.5391,-1.4854,-1.4854,-1.3886,-1.2771,-1.2771,-1.1392,-0.9854,-0.9759,-0.8379,-0.6972,-0.6785,-0.6295,-0.5683,-0.4866,-0.4697,-0.429,-0.2964,-0.2706,-0.2332,-0.1112,-0.0905,-0.0712,-0.0077,0.0,0.0147,0.0608,0.1034,0.1496,0.2029,0.2917,0.3431,0.3351,0.413,0.4702,0.4901,0.4887,0.4887,0.4887,0.4887,0.4887,0.4887,0.4961,0.4995,0.4995,0.4995,0.5067,0.5142,0.506,0.5029,0.0,0.0,0.0,0.0,0.0,0.0,0.0,-2.2355,-2.2493,-2.3591,-2.3557,-2.3644,-2.4655,-2.6113,-2.7166,-2.7243,-2.934,-3.0432,-2.8913,-2.9489,-2.97,-2.8814,-2.8815,-2.8789,-2.8437,-2.8496,-2.8535,-2.8535,-2.8535,-2.8535,-2.8535,-2.8457,-2.8418,-2.8418,-2.8008,-2.7845,-2.7845,-2.7441,-2.7266,-2.7266,-2.7266,-2.7226,-2.7148,-2.7148,-2.709,-2.6941,-2.547,-2.4523,-2.3854,-2.2163,-2.0459,-1.8885,-1.8825,-1.7859,-1.6406,-1.6112,-1.5917,-1.5878,-1.5979,-1.5878,-1.5798,-1.5899,-1.5824,-1.5784,-1.5784,-1.5092,-1.4268,-1.4268,-1.3295,-1.2238,-1.2146,-1.1231,-1.0307,-1.0029,-0.9092,-0.7918,-0.6659,-0.6195,-0.565,-0.4307,-0.4013,-0.3655,-0.2412,-0.2205,-0.1722,-0.0239,0.0,0.0,0.0,0.0626,0.1029,0.1055,0.1889,0.2496,0.2672,0.3238,0.3841,0.4425,0.4458,0.4458,0.4482,0.4653,0.4778,0.4772,0.5074,0.5231,0.5231,0.5231,0.5325,0.5481,0.5088,0.5003,-1.6902,-1.8014,-1.964,-2.1433,-2.2147,-2.3455,0.0,-2.7705,-2.7535,-2.9285,-2.8979,-2.8452,-2.8551,-2.8381,-2.8127,-2.8125,-2.8765,-2.9387,-3.0005,-2.9487,-2.9339,-3.0005,-2.9387,-2.8906,-2.8848,-2.9199,-2.9434,-2.9434,-2.9434,-2.9434,-2.9434,-2.9062,-2.8848,-2.8848,-2.8437,-2.8223,-2.8223,-2.8184,-2.8144,-2.8144,-2.8144,-2.7949,-2.7598,-2.7598,-2.7383,-2.7012,-2.68,-2.5799,-2.4256,-2.3996,-2.2181,-1.9493,-1.9244,-1.8333,-1.7072,-1.6714,-1.6446,-1.6259,-1.6513,-1.6273,-1.5872,-1.6139,-1.6046,-1.5784,-1.5784,-1.5689,-1.5581,-1.5581,-1.4651,-1.3669,-1.3646,-1.2694,-1.1697,-1.1637,-1.0675,-0.9665,-0.9411,-0.8369,-0.7139,-0.5816,-0.5546,-0.5134,-0.3807,-0.3653,-0.2886,-0.0369,0.0,0.0,0.0,0.0077,0.0153,0.0146,0.0943,0.1808,0.2638,0.2766,0.2863,0.2924,0.2931,0.2958,0.2956,0.38,0.4285,0.4278,0.5216,0.5725,0.5725,0.5725,0.5739,0.5716,0.4766,0.4682,-1.9863,-2.0541,-2.1609,-2.3766,-2.5756,-2.782,-3.0443,-3.0873,-3.1174,-3.2558,-3.1468,-3.0357,-3.0631,-2.9829,-2.9043,-2.9043,-2.8965,-2.9011,-2.946,-2.8734,-2.8239,-2.8387,-2.8865,-2.9139,-2.8922,-2.9082,-2.9394,-2.9902,-2.9707,-2.9668,-2.9922,-2.9531,-2.918,-2.8926,-2.9004,-2.8906,-2.8652,-2.8906,-2.9043,-2.9043,-2.8789,-2.8574,-2.8398,-2.8144,-2.7793,-2.7402,-2.7402,-2.6821,-2.5888,-2.5888,-2.4633,-2.2721,-2.2299,-2.0873,-1.8812,-1.7282,-1.6633,-1.654,-1.666,-1.654,-1.6353,-1.6486,-1.6446,-1.6339,-1.6339,-1.6219,-1.6086,-1.6086,-1.5569,-1.4997,-1.4997,-1.4028,-1.3054,-1.3054,-1.2037,-1.1065,-1.0944,-0.9905,-0.8758,-0.8106,-0.7336,-0.6438,-0.5158,-0.5013,-0.443,-0.26,-0.1643,-0.1139,-0.1051,-0.0447,0.0,0.0,0.0311,0.0921,0.1824,0.1894,0.2102,0.2651,0.2694,0.2691,0.2684,0.3088,0.3339,0.3338,0.3772,0.3989,0.3989,0.3989,0.3989,0.3989,0.3519,0.3514,-2.1191,-2.1987,-2.3293,-2.5846,-2.8657,-3.1249,-3.2984,-3.3822,-3.4557,-3.5453,-3.3743,-3.218,-3.2523,-3.0921,-2.9626,-2.9626,-2.9199,-2.9179,-2.9917,-2.8542,-2.7796,-2.8672,-2.861,-2.8686,-2.9206,-2.9416,-2.9763,-3.0194,-3.0039,-3.0078,-3.0371,-2.998,-2.959,-2.9277,-2.9473,-2.9414,-2.9101,-2.9414,-2.9626,-2.9626,-2.9258,-2.9101,-2.9082,-2.8652,-2.8242,-2.7885,-2.7885,-2.7598,-2.7187,-2.7187,-2.6318,-2.4941,-2.4651,-2.2755,-2.0084,-1.8357,-1.7309,-1.6834,-1.6914,-1.6847,-1.6727,-1.6807,-1.6767,-1.67,-1.67,-1.6553,-1.6393,-1.6393,-1.6233,-1.6046,-1.5979,-1.5255,-1.4557,-1.4424,-1.3392,-1.2432,-1.231,-1.1268,-1.0227,-0.9755,-0.8887,-0.7842,-0.6555,-0.6387,-0.6069,-0.5129,-0.3915,-0.2787,-0.1955,-0.0759,0.0,0.0,0.0,0.0243,0.0899,0.0935,0.1236,0.1895,0.1958,0.1955,0.1969,0.2258,0.2406,0.2385,0.2687,0.2828,0.2809,0.2809,0.2796,0.2817,0.2521,0.2402,-2.0078,-2.1907,-2.4638,-2.7534,-3.0066,-3.2663,-3.56,-3.7063,-3.8015,-3.8617,-3.6488,-3.4504,-3.4527,-3.1842,-2.9626,-2.9626,-2.9199,-2.9863,-3.2501,-2.9487,-2.8601,-3.2812,-2.8876,-2.6923,-2.9798,-3.0826,-3.1003,-3.027,-3.0605,-3.0859,-3.0859,-3.043,-3.0176,-3.0156,-2.9785,-2.957,-2.9551,-2.957,-2.9626,-2.9626,-2.9607,-2.9551,-2.9531,-2.9101,-2.8672,-2.8281,-2.8281,-2.8027,-2.7708,-2.7708,-2.6636,-2.5029,-2.4959,-2.3026,-2.028,-2.0249,-1.8907,-1.7233,-1.7462,-1.7181,-1.6754,-1.7099,-1.6941,-1.67,-1.67,-1.67,-1.6687,-1.6687,-1.6687,-1.662,-1.6339,-1.6259,-1.6131,-1.5803,-1.4758,-1.3824,-1.3813,-1.2802,-1.1444,-1.0222,-0.9936,-0.9486,-0.7973,-0.7831,-0.7831,-0.7543,-0.6595,-0.4926,-0.232,-0.081,0.0,0.0,0.0,0.0,0.0042,0.0042,0.0042,0.0084,0.0082,0.0082,0.0084,0.1066,0.1636,0.1628,0.2587,0.3093,0.3103,0.3103,0.3067,0.3076,0.207,0.1621,-2.1658,-2.3687,-2.5965,-2.819,-3.1371,-3.4409,-3.6126,-3.7615,-3.8517,-3.8341,-3.6201,-3.4202,-3.3804,-3.1603,-3.0204,-3.1487,-3.1216,-3.1158,-3.2052,-3.0758,-2.9775,-2.9942,-2.9391,-2.8976,-2.8872,-2.8899,-2.9297,-3.0154,-3.0351,-3.0566,-3.0879,-3.0742,-3.0508,-3.0215,-3.0351,-3.0293,-3.0,-3.0293,-3.0449,-3.0449,-3.0137,-2.9687,-2.9141,-2.8984,-2.8691,-2.8301,-2.8301,-2.8203,-2.8086,-2.8086,-2.7723,-2.716,-2.6893,-2.5567,-2.3787,-2.3546,-2.1771,-1.9362,-1.8224,-1.7622,-1.7341,-1.7649,-1.7542,-1.7288,-1.7288,-1.7154,-1.7058,-1.7058,-1.686,-1.6687,-1.658,-1.6567,-1.654,-1.6433,-1.6062,-1.5701,-1.5521,-1.4436,-1.3291,-1.27,-1.1891,-1.0849,-0.9478,-0.9272,-0.8985,-0.8,-0.6744,-0.5266,-0.3559,-0.2851,-0.2504,-0.2504,-0.1723,-0.1177,-0.1204,-0.0473,0.0,0.0,0.0,0.0,0.0,0.0334,0.0543,0.0546,0.0882,0.1046,0.1039,0.1039,0.1034,0.1026,0.0687,0.0525,-2.3281,-2.5005,-2.6839,-2.9396,-3.206,-3.4497,-3.6242,-3.71,-3.7419,-3.719,-3.4943,-3.2795,-3.1879,-2.9821,-2.8872,-3.086,-3.0555,-3.0535,-3.1934,-3.1063,-3.0372,-3.0592,-3.0356,-3.0068,-2.9962,-2.9198,-2.8967,-2.9704,-3.0176,-3.0508,-3.0644,-3.0801,-3.0762,-3.0449,-3.0742,-3.0742,-3.0449,-3.0742,-3.0898,-3.0879,-3.0586,-3.0078,-2.9375,-2.9375,-2.9062,-2.8516,-2.8516,-2.8437,-2.8301,-2.8301,-2.8301,-2.8262,-2.7988,-2.6964,-2.5574,-2.532,-2.3328,-2.0515,-1.9365,-1.8482,-1.7943,-1.8143,-1.8076,-1.7889,-1.7782,-1.7622,-1.7448,-1.7393,-1.7235,-1.7128,-1.6914,-1.6941,-1.6967,-1.6754,-1.67,-1.666,-1.6473,-1.5765,-1.4949,-1.4325,-1.3438,-1.2356,-1.1086,-1.0381,-0.9706,-0.8825,-0.7521,-0.6133,-0.4897,-0.4242,-0.3864,-0.3864,-0.3086,-0.2583,-0.2529,-0.1832,-0.1425,-0.135,-0.1348,-0.1396,-0.1407,-0.1343,-0.1295,-0.1347,-0.1295,-0.107,-0.0638,-0.0638,-0.0424,0.0,0.0,0.0,-2.4707,-2.5889,-2.7388,-3.0867,-3.2049,-3.3093,-3.5812,-3.5537,-3.4795,-3.504,-3.2783,-3.0267,-2.8832,-2.6778,-2.5975,-2.8058,-2.7673,-2.8497,-3.2427,-3.0745,-3.055,-3.4457,-3.1639,-3.0356,-3.2627,-3.1456,-3.0128,-2.9055,-3.0156,-3.0664,-3.0254,-3.0644,-3.0898,-3.0898,-3.0898,-3.0898,-3.0898,-3.0898,-3.0898,-3.0898,-3.0898,-3.0644,-3.0195,-3.0195,-2.9746,-2.8945,-2.8945,-2.873,-2.8359,-2.834,-2.832,-2.832,-2.8301,-2.7264,-2.5753,-2.5753,-2.3725,-2.0985,-2.0985,-1.9895,-1.849,-1.8504,-1.8504,-1.8437,-1.8102,-1.8009,-1.7955,-1.7716,-1.7822,-1.7916,-1.742,-1.7474,-1.7488,-1.6914,-1.678,-1.6767,-1.674,-1.6727,-1.6362,-1.5166,-1.4598,-1.3926,-1.2744,-1.1173,-1.0109,-1.001,-0.8924,-0.7638,-0.6274,-0.5001,-0.4182,-0.4182,-0.4131,-0.4051,-0.3928,-0.3942,-0.3957,-0.3832,-0.3829,-0.3864,-0.3985,-0.3751,-0.3661,-0.3825,-0.3661,-0.3055,-0.1913,-0.1912,-0.129,-0.0169,-0.0169,-0.0169,-2.6055,-2.7617,-2.9074,-3.031,-3.1277,-3.2048,-3.2435,-3.1815,-3.0928,-2.9977,-2.8221,-2.6553,-2.5508,-2.5326,-2.6603,-3.028,-3.0387,-3.1395,-3.5253,-3.454,-3.3635,-3.352,-3.2893,-3.2167,-3.1423,-3.1263,-3.084,-2.9956,-3.0176,-3.0469,-3.0703,-3.082,-3.0898,-3.0898,-3.0898,-3.0898,-3.0898,-3.0898,-3.0898,-3.0898,-3.0898,-3.0644,-3.0195,-3.0195,-2.9902,-2.9394,-2.9394,-2.9336,-2.9219,-2.8887,-2.8769,-2.873,-2.8418,-2.8009,-2.7626,-2.7626,-2.6387,-2.4746,-2.4746,-2.201,-1.8531,-1.8744,-1.8664,-1.8477,-1.8397,-1.837,-1.8357,-1.8277,-1.8317,-1.833,-1.8183,-1.821,-1.817,-1.7742,-1.7649,-1.7582,-1.7179,-1.7085,-1.6917,-1.6338,-1.5356,-1.4542,-1.424,-1.2836,-1.1447,-1.0456,-0.9838,-0.9,-0.7681,-0.7113,-0.6834,-0.6834,-0.5931,-0.5346,-0.5275,-0.4493,-0.3978,-0.3957,-0.3957,-0.3967,-0.3985,-0.395,-0.3935,-0.3957,-0.3832,-0.3601,-0.3309,-0.317,-0.3005,-0.268,-0.2685,-0.2687,-2.7676,-2.8965,-2.9902,-3.0137,-3.0378,-3.0389,-2.9782,-2.8589,-2.7343,-2.6131,-2.4806,-2.3504,-2.2313,-2.317,-2.5022,-2.8022,-2.9163,-3.0734,-3.3742,-3.4378,-3.4159,-3.3138,-3.3997,-3.3956,-3.2238,-3.2448,-3.2276,-3.1152,-3.0879,-3.082,-3.0879,-3.1074,-3.1074,-3.0898,-3.0898,-3.0898,-3.0898,-3.0898,-3.0898,-3.0898,-3.0898,-3.0762,-3.0508,-3.0508,-3.0254,-2.9844,-2.9844,-2.9746,-2.9551,-2.9297,-2.9199,-2.918,-2.8945,-2.873,-2.8574,-2.8574,-2.7536,-2.61,-2.61,-2.3337,-1.9878,-2.0047,-1.9553,-1.8851,-1.8718,-1.8677,-1.8651,-1.8531,-1.8584,-1.8651,-1.8517,-1.8584,-1.8611,-1.8317,-1.8237,-1.8156,-1.7862,-1.7635,-1.7422,-1.6981,-1.6329,-1.5821,-1.5645,-1.443,-1.3139,-1.2234,-1.1518,-1.0533,-0.908,-0.8301,-0.7909,-0.7909,-0.7197,-0.6738,-0.6679,-0.6101,-0.5721,-0.5671,-0.5666,-0.5691,-0.5741,-0.5651,-0.5621,-0.5666,-0.5514,-0.5222,-0.4665,-0.461,-0.431,-0.3758,-0.373,-0.3671,-2.9219,-2.9922,-3.0176,-3.0137,-2.9336,-2.8325,-2.7407,-2.562,-2.3858,-2.2804,-2.1801,-2.0719,-1.9316,-2.0662,-2.2532,-2.4166,-2.6216,-2.8454,-3.0937,-3.2586,-3.3432,-3.3226,-3.468,-3.5133,-3.3622,-3.3879,-3.3614,-3.2368,-3.1894,-3.1504,-3.1074,-3.1406,-3.1406,-3.0996,-3.1035,-3.1035,-3.0976,-3.1035,-3.1035,-3.0976,-3.0976,-3.0937,-3.0898,-3.0898,-3.0664,-3.0293,-3.0293,-3.0078,-2.9746,-2.9744,-2.9648,-2.9648,-2.959,-2.9336,-2.9004,-2.9004,-2.7967,-2.6537,-2.6537,-2.4735,-2.226,-2.1786,-2.0587,-1.9377,-1.9065,-1.8985,-1.8931,-1.8677,-1.8784,-1.8918,-1.8677,-1.8798,-1.8905,-1.8624,-1.8544,-1.8544,-1.8504,-1.829,-1.7956,-1.7474,-1.738,-1.7286,-1.6941,-1.591,-1.5014,-1.4501,-1.3286,-1.1854,-1.0285,-0.9046,-0.8187,-0.8038,-0.7988,-0.7934,-0.7855,-0.7914,-0.7934,-0.7848,-0.7841,-0.7902,-0.7982,-0.7794,-0.7719,-0.7841,-0.7699,-0.7099,-0.6047,-0.6031,-0.5501,-0.4458,-0.4382,-0.43,-2.9824,-3.0137,-3.0117,-2.9766,-2.8242,-2.6397,-2.4835,-2.2542,-2.0337,-1.8744,-1.7991,-1.7423,-1.6806,-1.8408,-2.1019,-2.4635,-2.5719,-2.7943,-3.3228,-3.3528,-3.3318,-3.356,-3.4218,-3.4101,-3.2634,-3.2533,-3.259,-3.2656,-3.2617,-3.2383,-3.1973,-3.2012,-3.1855,-3.1426,-3.1758,-3.1777,-3.1406,-3.1758,-3.1758,-3.1406,-3.1406,-3.123,-3.0898,-3.0898,-3.084,-3.0762,-3.0762,-3.0723,-3.0625,-3.0254,-3.0098,-3.0059,-2.9707,-2.9531,-2.9453,-2.9453,-2.9283,-2.9003,-2.9003,-2.7846,-2.5777,-2.2606,-2.0587,-1.9417,-1.9305,-1.9292,-1.9279,-1.9283,-1.931,-1.9279,-1.9283,-1.9252,-1.9212,-1.8918,-1.8851,-1.8784,-1.8544,-1.845,-1.8384,-1.8277,-1.8263,-1.8156,-1.7809,-1.7384,-1.6638,-1.5263,-1.3645,-1.2067,-1.0758,-1.0037,-0.9213,-0.8137,-0.7988,-0.7982,-0.7955,-0.7975,-0.7982,-0.7948,-0.7948,-0.7961,-0.7988,-0.7941,-0.7928,-0.7948,-0.7848,-0.7677,-0.743,-0.732,-0.7167,-0.6979,-0.6954,-0.6942,-3.0019,-3.0195,-3.0039,-2.9394,-2.7637,-2.543,-2.3008,-2.0801,-1.8656,-1.6758,-1.6191,-1.5946,-1.5762,-1.7592,-1.9903,-2.216,-2.3491,-2.5829,-3.036,-3.1921,-3.2588,-3.256,-3.4555,-3.5036,-3.2726,-3.2695,-3.291,-3.3105,-3.3125,-3.293,-3.2519,-3.2285,-3.207,-3.1855,-3.207,-3.207,-3.1855,-3.207,-3.207,-3.1855,-3.1621,-3.1406,-3.1211,-3.0996,-3.0898,-3.0898,-3.0898,-3.0898,-3.0879,-3.0644,-3.0547,-3.0547,-3.0332,-3.0117,-2.9902,-2.9902,-2.9766,-2.9626,-2.9626,-2.8578,-2.7011,-2.5184,-2.2897,-2.0887,-2.0887,-2.0164,-1.943,-1.943,-1.943,-1.943,-1.943,-1.943,-1.939,-1.9185,-1.9158,-1.9078,-1.8784,-1.8718,-1.8677,-1.8517,-1.849,-1.845,-1.8303,-1.8023,-1.7503,-1.6571,-1.5594,-1.4173,-1.199,-1.1503,-1.0584,-0.8473,-0.8208,-0.816,-0.816,-0.8035,-0.7988,-0.7988,-0.7988,-0.7988,-0.7988,-0.7988,-0.7988,-0.7988,-0.7921,-0.788,-0.788,-0.7862,-0.7828,-0.7828,-0.7746,-0.7706,-3.0078,-3.0195,-2.9961,-2.9023,-2.7109,-2.4641,-2.1758,-1.965,-1.7779,-1.582,-1.541,-1.541,-1.541,-1.7104,-1.8796,-1.9639,-2.142,-2.38,-2.6968,-2.9863,-3.1612,-3.1525,-3.4494,-3.5583,-3.3158,-3.3223,-3.3457,-3.3555,-3.3555,-3.3379,-3.2949,-3.2617,-3.2402,-3.2305,-3.2383,-3.2402,-3.2305,-3.2383,-3.2383,-3.2305,-3.1953,-3.1738,-3.1641,-3.1309,-3.1113,-3.1035,-3.1035,-3.0976,-3.0898,-3.0898,-3.0898,-3.0898,-3.0898,-3.0664,-3.0351,-3.0351,-3.0137,-2.9844,-2.9844,-2.9089,-2.8081,-2.8081,-2.5714,-2.2736,-2.2311,-2.1162,-1.9891,-1.9502,-1.943,-1.943,-1.943,-1.943,-1.943,-1.943,-1.943,-1.9305,-1.9065,-1.9025,-1.8945,-1.8718,-1.8677,-1.8664,-1.8597,-1.8384,-1.8075,-1.7822,-1.7358,-1.6091,-1.3622,-1.2757,-1.1492,-0.9315,-0.8598,-0.832,-0.832,-0.8126,-0.7988,-0.7988,-0.7988,-0.7988,-0.7988,-0.7988,-0.7988,-0.7988,-0.7988,-0.7988,-0.7988,-0.7988,-0.7988,-0.7988,-0.7916,-0.7862,-3.0078,-3.0195,-2.9902,-2.8652,-2.6426,-2.3848,-2.1271,-1.9004,-1.7109,-1.5703,-1.541,-1.541,-1.541,-1.6233,-1.7442,-1.9098,-2.086,-2.304,-2.6104,-2.843,-3.0241,-3.1348,-3.2844,-3.3654,-3.3359,-3.3398,-3.3594,-3.3984,-3.4023,-3.3828,-3.3379,-3.332,-3.3125,-3.2754,-3.3105,-3.3125,-3.2734,-3.3105,-3.3105,-3.2734,-3.2695,-3.248,-3.2109,-3.207,-3.1836,-3.1465,-3.1465,-3.125,-3.0898,-3.0898,-3.0898,-3.0898,-3.0898,-3.0859,-3.082,-3.082,-3.0801,-3.0762,-3.0762,-3.0704,-3.0587,-3.0587,-2.7988,-2.4489,-2.2736,-2.2107,-2.1569,-1.9891,-1.943,-1.943,-1.943,-1.943,-1.943,-1.943,-1.943,-1.9417,-1.9332,-1.9332,-1.9377,-1.935,-1.935,-1.9199,-1.8931,-1.8865,-1.8744,-1.845,-1.724,-1.6208,-1.5674,-1.3277,-1.1402,-1.0912,-0.9354,-0.832,-0.832,-0.8126,-0.7988,-0.7988,-0.7988,-0.7988,-0.7988,-0.7988,-0.7988,-0.7988,-0.7988,-0.7988,-0.7988,-0.7988,-0.7988,-0.7988,-0.7975,-0.7968,-2.9023,-2.9434,-2.918,-2.8164,-2.5957,-2.3301,-2.0449,-1.834,-1.6621,-1.5312,-1.5039,-1.5117,-1.5371,-1.5673,-1.6426,-1.791,-1.8316,-1.9744,-2.3516,-2.5629,-2.7667,-3.0054,-3.2091,-3.3336,-3.3383,-3.3652,-3.3887,-3.4062,-3.4082,-3.3887,-3.3437,-3.3418,-3.334,-3.3184,-3.334,-3.334,-3.3164,-3.334,-3.334,-3.3164,-3.291,-3.2715,-3.2539,-3.2285,-3.1934,-3.1523,-3.1523,-3.1269,-3.0898,-3.0898,-3.0898,-3.0898,-3.0898,-3.0898,-3.0898,-3.0898,-3.0898,-3.0898,-3.0898,-3.0898,-3.0898,-3.0898,-2.9851,-2.8253,-2.6295,-2.422,-2.2318,-2.1351,-2.0419,-1.9586,-1.9412,-1.943,-1.943,-1.943,-1.943,-1.943,-1.943,-1.943,-1.943,-1.943,-1.943,-1.939,-1.9212,-1.9038,-1.8878,-1.8771,-1.8082,-1.7234,-1.6279,-1.4239,-1.2543,-1.1454,-0.9654,-0.8533,-0.8533,-0.8397,-0.8303,-0.8303,-0.8303,-0.8303,-0.8303,-0.8303,-0.8269,-0.818,-0.8262,-0.8221,-0.7988,-0.8133,-0.8133,-0.7988,-0.7988,-0.7988,-2.7266,-2.8164,-2.834,-2.75,-2.5332,-2.2695,-1.9922,-1.7754,-1.5985,-1.4844,-1.4687,-1.4883,-1.5176,-1.543,-1.5957,-1.7012,-1.6973,-1.8105,-2.1816,-2.4032,-2.6121,-2.8573,-3.0982,-3.2596,-3.2819,-3.3711,-3.4199,-3.4082,-3.418,-3.4023,-3.3457,-3.3652,-3.3691,-3.3437,-3.3535,-3.3555,-3.3418,-3.3418,-3.3418,-3.3418,-3.3125,-3.2988,-3.2969,-3.2676,-3.2305,-3.1894,-3.1894,-3.166,-3.1269,-3.1269,-3.1191,-3.1074,-3.1074,-3.0996,-3.0898,-3.0898,-3.0898,-3.0898,-3.0898,-3.0898,-3.0898,-3.0898,-3.0898,-3.0645,-2.9252,-2.6378,-2.3301,-2.1965,-2.0785,-1.988,-1.9679,-1.9559,-1.9492,-1.9492,-1.9492,-1.9492,-1.9492,-1.9559,-1.9626,-1.9626,-1.9559,-1.9492,-1.9492,-1.9252,-1.9052,-1.9052,-1.8878,-1.8367,-1.7229,-1.5682,-1.4055,-1.2374,-1.0627,-0.9344,-0.8777,-0.8615,-0.8526,-0.8486,-0.8479,-0.8479,-0.8479,-0.8479,-0.8431,-0.8336,-0.8431,-0.8377,-0.8174,-0.8282,-0.8255,-0.8106,-0.8106,-0.8035,-2.4812,-2.6417,-2.7532,-2.6621,-2.4453,-2.1953,-1.9785,-1.7285,-1.5176,-1.4289,-1.4492,-1.4813,-1.4813,-1.5517,-1.6242,-1.6629,-1.7759,-1.9338,-2.1582,-2.4326,-2.6331,-2.6918,-2.9149,-3.0866,-3.1486,-3.3457,-3.4531,-3.4101,-3.4453,-3.4316,-3.3476,-3.4219,-3.4297,-3.3457,-3.3848,-3.3867,-3.3418,-3.3418,-3.3418,-3.3418,-3.3418,-3.3418,-3.3418,-3.3418,-3.3184,-3.2793,-3.2793,-3.2539,-3.2209,-3.2209,-3.1894,-3.1504,-3.1504,-3.125,-3.0898,-3.0898,-3.0898,-3.0898,-3.0898,-3.0898,-3.0898,-3.0898,-3.0898,-3.0898,-3.0879,-2.8392,-2.4838,-2.125,-2.0227,-2.0227,-2.0167,-2.0013,-1.98,-1.98,-1.98,-1.98,-1.98,-2.0013,-2.0167,-2.0167,-1.9987,-1.98,-1.98,-1.9559,-1.9359,-1.9359,-1.9417,-1.9252,-1.8901,-1.7558,-1.5943,-1.4065,-1.2623,-1.0932,-0.8852,-0.871,-0.8642,-0.8492,-0.8479,-0.8479,-0.8479,-0.8479,-0.8479,-0.8479,-0.8479,-0.8479,-0.8479,-0.8479,-0.8404,-0.832,-0.832,-0.8187,-2.1525,-2.2445,-2.2719,-2.2109,-2.0684,-1.8945,-1.707,-1.5517,-1.4348,-1.3802,-1.3809,-1.4082,-1.4696,-1.5028,-1.5723,-1.7344,-1.7949,-1.9195,-2.216,-2.3687,-2.5524,-2.8228,-3.1171,-3.3325,-3.4127,-3.4492,-3.4766,-3.4961,-3.4805,-3.459,-3.4316,-3.4844,-3.4629,-3.3457,-3.3848,-3.3867,-3.3418,-3.3418,-3.3418,-3.3418,-3.3418,-3.3418,-3.3418,-3.3418,-3.3184,-3.2793,-3.2793,-3.2559,-3.2229,-3.2229,-3.1914,-3.1523,-3.1523,-3.1269,-3.0898,-3.0898,-3.0898,-3.0898,-3.0898,-3.0898,-3.0898,-3.0898,-3.0898,-3.0704,-2.953,-2.7663,-2.5133,-2.1572,-2.0388,-2.0167,-2.0167,-2.016,-2.0094,-2.0094,-2.0094,-2.0094,-2.0094,-2.0174,-2.0167,-2.0167,-2.016,-2.0094,-2.0094,-1.9853,-1.9666,-1.9666,-1.9492,-1.9332,-1.9239,-1.6914,-1.4993,-1.43,-1.1963,-1.0068,-0.9255,-0.9171,-0.9103,-0.9002,-0.8995,-0.8899,-0.8798,-0.8798,-0.8743,-0.8642,-0.8743,-0.8689,-0.8479,-0.8587,-0.856,-0.8411,-0.8368,-0.8241,-1.8496,-1.9473,-1.9766,-1.9492,-1.8442,-1.7135,-1.5742,-1.4601,-1.3802,-1.3555,-1.3633,-1.3965,-1.4648,-1.4922,-1.5508,-1.7031,-1.7559,-1.876,-2.165,-2.3264,-2.5574,-2.9352,-3.2036,-3.3867,-3.459,-3.4844,-3.5078,-3.5371,-3.4961,-3.4707,-3.4707,-3.498,-3.4687,-3.3691,-3.4082,-3.4023,-3.3437,-3.3418,-3.3418,-3.3418,-3.3418,-3.3418,-3.3418,-3.3418,-3.3281,-3.3027,-3.3027,-3.2871,0.0,-3.2637,-3.2383,-3.1992,-3.1816,-3.1504,-3.1113,-3.0957,-3.0898,-3.0898,-3.0898,-3.0898,-3.0898,-3.0898,-3.0898,-3.0587,-2.892,-2.6832,-2.4486,-2.1679,-2.0708,-2.0561,-2.0561,-2.0481,-2.0401,-2.0401,-2.0401,-2.0401,-2.0401,-2.0481,-2.0561,-2.0561,-2.0481,-2.0401,-2.0401,-2.016,-1.996,-1.996,-1.9813,-1.9653,-1.9546,-1.7789,-1.6005,-1.4593,-1.2738,-1.1056,-0.9683,-0.9496,-0.9401,-0.9309,-0.9296,-0.9198,-0.911,-0.9103,-0.9062,-0.8967,-0.9055,-0.8981,-0.8791,-0.8716,-0.8662,-0.8567,-0.8418,-0.835,0.0,-1.7291,-1.8188,-1.8188,-1.7291,-1.6219,-1.541,-1.4316,0.0,-1.3496,-1.3782,-1.4231,-1.4785,-1.5233,-1.5694,-1.6222,-1.7076,-1.8473,-2.066,-2.3536,-2.6735,-3.0281,-3.2057,-3.3125,-3.3476,-3.4687,-3.543,-3.5391,-3.5,-3.4726,-3.4707,-3.4707,-3.4512,-3.4082,-3.4453,-3.4258,-3.3437,-3.3418,-3.3418,-3.3418,-3.3418,-3.3418,-3.3418,-3.3418,-3.3418,-3.3418,-3.3418,-3.3418,-3.3418,-3.3418,-3.3184,-3.2754,-3.2363,-3.1953,-3.1504,-3.1094,-3.0937,-3.0937,-3.0898,-3.0898,-3.0898,-3.0898,-3.0898,-3.0587,-2.8783,-2.6122,-2.345,-2.1727,-2.1172,-2.1109,-2.1109,-2.0909,-2.0708,-2.0708,-2.0708,-2.0708,-2.0708,-2.0922,-2.1109,-2.1109,-2.0895,-2.0708,-2.0708,-2.0454,-2.0267,-2.0267,-2.0254,-2.0134,-1.9867,-1.9708,-1.8448,-1.5207,-1.465,-1.3264,-1.0254,-0.9767,-0.9557,-0.9408,-0.9395,-0.9395,-0.9381,-0.9381,-0.9381,-0.9381,-0.9381,-0.9313,-0.9228,-0.8879,-0.8743,-0.8737,-0.8574,-0.8499,-1.3613,0.0,-1.4238,-1.4238,-1.4004,-1.373,0.0,-1.3267,-1.3125,-1.3437,-1.3594,-1.4082,-1.5537,-1.6131,-1.6867,-1.8321,-1.955,-2.135,-2.4307,-2.844,-3.1328,-3.1758,-3.3587,-3.4687,-3.4434,-3.5293,-3.5742,-3.541,-3.5293,-3.5078,-3.4726,-3.4707,-3.4512,-3.4082,-3.416,-3.3965,-3.3437,-3.3418,-3.3418,-3.3418,-3.3418,-3.3418,-3.3418,-3.3418,-3.3418,-3.3418,-3.3418,-3.3418,-3.3418,-3.3418,-3.3184,-3.2793,-3.2695,-3.2383,-3.1953,-3.1523,-3.1367,-3.1328,-3.0996,-3.0898,-3.0898,-3.0898,-3.0898,-3.0333,-2.7452,-2.6045,-2.5085,-2.345,-2.209,-2.1109,-2.1109,-2.1056,-2.1002,-2.1002,-2.1002,-2.1002,-2.1002,-2.1069,-2.1109,-2.1109,-2.1056,-2.1002,-2.1002,-2.0762,-2.0575,-2.0575,-2.0374,-2.0214,-2.0134,-1.9079,-1.8058,-1.7196,-1.4858,-1.2952,-1.2008,-1.0579,-0.9707,-0.9564,-0.9557,-0.9503,-0.9388,-0.9381,-0.9381,-0.9381,-0.9381,-0.9361,-0.9327,-0.9193,-0.9105,-0.9098,-0.8777,-0.8655,-1.2798,-1.3027,-1.3164,-1.3164,-1.3164,-1.3164,-1.3164,-1.3052,-1.3066,-1.3646,-1.3763,-1.4258,-1.5811,-1.6618,-1.7385,-1.8507,-2.0115,-2.2586,-2.6541,-3.0225,-3.2746,-3.3336,-3.4986,-3.583,-3.5086,-3.5449,-3.5547,-3.5117,-3.4902,-3.4766,-3.4707,-3.4336,-3.4101,-3.4082,-3.3887,-3.3652,-3.3418,-3.3418,-3.3418,-3.3418,-3.3418,-3.3418,-3.3418,-3.3418,-3.3418,-3.3418,-3.3418,-3.3418,-3.3418,-3.3418,-3.3281,-3.3066,-3.2871,-3.2539,-3.2109,-3.168,-3.1406,-3.1191,-3.0976,-3.0898,-3.0898,-3.0898,-3.0898,-3.0587,-2.8801,-2.7194,-2.5497,-2.3139,-2.179,-2.1109,-2.1109,-2.1109,-2.1109,-2.1109,-2.1109,-2.1109,-2.1109,-2.1109,-2.1109,-2.1109,-2.1109,-2.1109,-2.1109,-2.0975,-2.0869,-2.0869,-2.0735,-2.0588,-2.0454,-1.9678,-1.8865,-1.7994,-1.6309,-1.4834,-1.3985,-1.2283,-1.0782,-0.978,-0.9707,-0.9673,-0.9585,-0.9585,-0.9585,-0.9585,-0.9517,-0.949,-0.9483,-0.9334,-0.9316,-0.9309,-0.9096,-0.9015,-1.2981,-1.3561,-1.3828,-1.3496,-1.3555,-1.3672,-1.3535,-1.3281,-1.3301,-1.4055,-1.425,-1.4738,-1.6222,-1.7399,-1.8275,-1.8609,-2.0663,-2.3654,-2.7973,-3.0559,-3.2594,-3.4221,-3.5644,-3.618,-3.5191,-3.5215,-3.5098,-3.4629,-3.4336,-3.4258,-3.4492,-3.3887,-3.3633,-3.3867,-3.3574,-3.3398,-3.332,-3.3379,-3.3418,-3.3418,-3.3418,-3.3418,-3.3418,-3.3418,-3.3418,-3.3418,-3.3418,-3.3418,-3.3418,-3.3418,-3.3418,-3.3379,-3.3027,-3.2637,-3.2207,-3.1777,-3.1348,-3.0976,-3.0918,-3.0898,-3.0898,-3.0898,-3.0898,-3.082,-3.0587,-2.8545,-2.568,-2.2389,-2.1299,-2.1109,-2.1109,-2.1109,-2.1109,-2.1109,-2.1109,-2.1109,-2.1109,-2.1109,-2.1109,-2.1109,-2.1109,-2.1109,-2.1109,-2.1109,-2.1109,-2.1109,-2.1109,-2.1015,-2.0775,-2.0735,-2.0133,-1.8569,-1.8163,-1.7337,-1.5691,-1.3941,-1.2049,-1.0033,-0.989,-0.9883,-0.9856,-0.9836,-0.9822,-0.9822,-0.97,-0.9639,-0.9639,-0.949,-0.9415,-0.9415,-0.9395,-0.9381,-1.4172,-1.5107,-1.5263,-1.3463,-1.3789,-1.4394,-1.3672,-1.3704,-1.4055,-1.459,-1.4961,-1.581,-1.7837,-2.0083,-2.1666,-2.1788,-2.4524,-2.7249,-2.9158,-3.1503,-3.2936,-3.2653,-3.4073,-3.4693,-3.3789,-3.4375,-3.4629,-3.4199,-3.4434,-3.4316,-3.3652,-3.3848,-3.3672,-3.3008,-3.3262,-3.3242,-3.2891,-3.3242,-3.3418,-3.3418,-3.3418,-3.3418,-3.3418,-3.3418,-3.3418,-3.3418,-3.3418,-3.3418,-3.3418,-3.3418,-3.3418,-3.3418,-3.3359,-3.3066,-3.2656,-3.2226,-3.1797,-3.1367,-3.1016,-3.0898,-3.0898,-3.0898,-3.0898,-3.0645,-2.9216,-2.8426,-2.7391,-2.4116,-2.2215,-2.1109,-2.1109,-2.1109,-2.1109,-2.1109,-2.1109,-2.1109,-2.1109,-2.1109,-2.1109,-2.1109,-2.1109,-2.1109,-2.1109,-2.1109,-2.1109,-2.1109,-2.1109,-2.1096,-2.1042,-2.1042,-2.0952,-2.0661,-1.9296,-1.7655,-1.5802,-1.4079,-1.2282,-1.0342,-1.0209,-1.0154,-0.9957,-0.989,-0.9822,-0.9822,-0.9802,-0.9788,-0.9788,-0.9646,-0.9571,-0.9571,-0.9442,-0.9381,-1.3517,-1.4735,-1.5469,-1.4492,-1.5566,-1.6699,-1.6074,-1.6063,-1.6317,-1.6746,-1.698,-1.7564,-1.9026,-2.1011,-2.3326,-2.611,-2.8015,-2.9914,-3.1993,-3.2826,-3.3306,-3.3558,-3.4529,-3.4799,-3.3853,-3.4121,-3.418,-3.375,-3.3691,-3.3594,-3.3437,-3.3398,-3.3203,-3.2812,-3.3203,-3.3105,-3.2461,-3.3105,-3.3418,-3.3418,-3.3418,-3.3418,-3.3418,-3.3418,-3.3418,-3.3418,-3.3418,-3.3418,-3.3418,-3.3418,-3.3418,-3.3418,-3.3418,-3.3027,-3.2383,-3.1719,-3.1348,-3.1152,-3.0957,-3.0898,-3.0898,-3.0898,-3.0898,-3.0762,-2.9962,-2.9098,-2.811,-2.6608,-2.4409,-2.2215,-2.1362,-2.1109,-2.1109,-2.1109,-2.1109,-2.1109,-2.1109,-2.1109,-2.1109,-2.1109,-2.1109,-2.1109,-2.1109,-2.1109,-2.1109,-2.1109,-2.1109,-2.1109,-2.1109,-2.1109,-2.1109,-2.1109,-2.0386,-1.956,-1.8716,-1.7041,-1.4409,-1.0545,-1.0283,-1.0249,-1.0175,-1.0107,-1.0032,-0.9883,-0.9883,-0.9842,-0.9822,-0.9754,-0.9727,-0.972,-0.9652,-0.9618,-1.3117,-1.455,-1.5811,-1.585,-1.7019,-1.8208,-1.8418,-1.8301,-1.8364,-1.9182,-1.9358,-1.9703,-2.0716,-2.2506,-2.5345,-2.9981,-3.0596,-3.1401,-3.4131,-3.3558,-3.3314,-3.4329,-3.4841,-3.4733,-3.3877,-3.3867,-3.3691,-3.3164,-3.293,-3.2891,-3.3105,-3.2832,-3.2598,-3.25,-3.291,-3.2773,-3.2031,-3.2754,-3.3184,-3.3281,-3.3379,-3.3418,-3.3418,-3.3418,-3.3379,-3.3281,-3.3281,-3.3281,-3.3281,-3.3281,-3.334,-3.3418,-3.3418,-3.291,-3.207,-3.1211,-3.0898,-3.0898,-3.0898,-3.0898,-3.0898,-3.0898,-3.0898,-3.0898,-3.0898,-3.002,-2.8842,-2.8051,-2.6045,-2.3807,-2.209,-2.1466,-2.1216,-2.1216,-2.1269,-2.1309,-2.1309,-2.1309,-2.1296,-2.1229,-2.1216,-2.1189,-2.1122,-2.1109,-2.1109,-2.1109,-2.1109,-2.1109,-2.1109,-2.1109,-2.1109,-2.1109,-2.1109,-2.0906,-2.0526,-1.8896,-1.59,-1.1283,-1.06,-1.0331,-1.0331,-1.0297,-1.0222,-1.0044,-1.0004,-0.995,-0.993,-0.9856,-0.9836,-0.9876,-0.9836,-0.9822,-1.4316,-1.5859,-1.71,-1.7224,-1.7051,-1.735,-1.9336,-1.9124,-1.9143,-2.123,-2.166,-2.2106,-2.3638,-2.5906,-2.8775,-3.2456,-3.1487,-3.1177,-3.4047,-3.3193,-3.2566,-3.3387,-3.3524,-3.3407,-3.293,-3.3242,-3.3125,-3.2324,-3.2598,-3.2637,-3.2285,-3.2226,-3.2031,-3.1621,-3.2031,-3.2031,-3.1562,-3.2031,-3.2461,-3.2851,-3.3242,-3.3418,-3.3418,-3.3418,-3.3203,-3.2832,-3.2832,-3.2832,-3.2832,-3.2832,-3.3066,-3.3418,-3.3418,-3.291,-3.207,-3.1211,-3.0898,-3.0898,-3.0898,-3.0898,-3.0898,-3.0898,-3.0898,-3.0898,-3.0898,-3.082,-3.0079,-2.7013,-2.5984,-2.5436,-2.3807,-2.2504,-2.1588,-2.1588,-2.1724,-2.1924,-2.1924,-2.1924,-2.1844,-2.1641,-2.1588,-2.1494,-2.1162,-2.1109,-2.1109,-2.1109,-2.1109,-2.1109,-2.1109,-2.1109,-2.1109,-2.1109,-2.1109,-2.0462,-1.8832,-1.7076,-1.5255,-1.3217,-1.1453,-1.0473,-1.0473,-1.0351,-1.0276,-1.0263,-1.012,-1.0114,-1.0249,-0.9958,-0.9897,-0.997,-0.989,-0.9822,-1.3502,-1.5226,-1.6965,-1.7292,-1.8335,-1.9646,-2.1154,-2.2574,-2.3929,-2.5201,-2.5986,-2.6455,-2.6535,-2.911,-3.1586,-3.291,-3.3156,-3.3523,-3.4332,-3.3135,-3.2285,-3.2598,-3.2637,-3.2578,-3.2422,-3.2559,-3.2519,-3.2187,-3.207,-3.2051,-3.2168,-3.1914,-3.168,-3.1523,-3.1953,-3.1836,-3.1133,-3.1816,-3.2109,-3.2012,-3.2441,-3.2637,-3.2637,-3.2637,-3.2695,-3.2773,-3.2519,-3.2695,-3.3144,-3.2617,-3.2656,-3.2969,-3.2441,-3.2051,-3.1699,-3.1113,-3.0898,-3.0898,-3.0898,-3.0898,-3.0898,-3.0898,-3.0898,-3.0898,-3.0898,-3.0898,-3.0645,-2.9412,-2.7572,-2.5375,-2.2702,-2.1833,-2.1614,-2.1614,-2.1777,-2.1991,-2.1991,-2.1991,-2.1951,-2.1844,-2.1817,-2.179,-2.167,-2.1657,-2.1657,-2.1657,-2.1657,-2.1657,-2.1657,-2.1657,-2.1657,-2.1657,-2.1657,-2.1318,-2.0477,-1.7826,-1.5929,-1.5271,-1.3316,-1.173,-1.0702,-1.0582,-1.0507,-1.0412,-1.0351,-1.031,-1.0283,-1.0161,-1.0134,-1.0188,-1.0134,-1.0107,-1.3086,-1.4834,-1.6724,-1.7096,-1.9486,-2.1993,-2.3097,-2.515,-2.7232,-2.8437,-2.874,-2.8698,-2.8307,-3.0101,-3.1931,-3.2622,-3.3301,-3.3898,-3.4223,-3.2934,-3.2012,-3.2148,-3.2229,-3.2109,-3.1973,-3.209,-3.2111,-3.1777,-3.1601,-3.1582,-3.1758,-3.1484,-3.1328,-3.1328,-3.1601,-3.1484,-3.0898,-3.1465,-3.1621,-3.1328,-3.1621,-3.1914,-3.2229,-3.2229,-3.2246,-3.2383,-3.209,-3.2285,-3.2773,-3.2207,-3.2207,-3.2519,-3.1797,-3.1523,-3.1465,-3.1055,-3.0898,-3.0898,-3.0898,-3.0898,-3.0898,-3.0898,-3.0976,-3.1094,-3.1094,-3.1191,-3.123,-3.0677,-2.8503,-2.5714,-2.2941,-2.1974,-2.1762,-2.1762,-2.1977,-2.2258,-2.2258,-2.2258,-2.2231,-2.2138,-2.2124,-2.2098,-2.2004,-2.1991,-2.1991,-2.1991,-2.1991,-2.1991,-2.1991,-2.1991,-2.1991,-2.1991,-2.1991,-2.1871,-2.1641,-1.89,-1.6942,-1.6277,-1.437,-1.2545,-1.0784,-1.0717,-1.067,-1.0568,-1.0514,-1.0466,-1.0419,-1.0324,-1.0304,-1.0344,-1.0304,-1.0283,-1.3516,-1.4975,-1.656,-1.671,-2.0262,-2.3969,-2.4925,-2.6396,-2.8188,-3.0524,-2.945,-2.8174,-2.8632,-2.8715,-2.9508,-3.1794,-3.1464,-3.158,-3.3397,-3.2411,-3.168,-3.2109,-3.2209,-3.1992,-3.1562,-3.1894,-3.1797,-3.0957,-3.1269,-3.1328,-3.0918,-3.0898,-3.0898,-3.0898,-3.0898,-3.0898,-3.0898,-3.0898,-3.0898,-3.0898,-3.0898,-3.1328,-3.2209,-3.2209,-3.1914,-3.1523,-3.1504,-3.1523,-3.1523,-3.1523,-3.1777,-3.2109,-3.168,-3.1504,-3.1465,-3.1055,-3.0898,-3.0898,-3.0898,-3.0898,-3.0898,-3.0898,-3.1172,-3.1504,-3.1523,-3.1816,-3.1844,-3.0174,-2.8477,-2.671,-2.5046,-2.3326,-2.1991,-2.1991,-2.2432,-2.2928,-2.2928,-2.2928,-2.2779,-2.2485,-2.2418,-2.2338,-2.2044,-2.1991,-2.1991,-2.1991,-2.1991,-2.1991,-2.1991,-2.1991,-2.1991,-2.1991,-2.1991,-2.1884,-2.1655,-2.0033,-1.8131,-1.6063,-1.4297,-1.2545,-1.0784,-1.0717,-1.0717,-1.0717,-1.0568,-1.0568,-1.0717,-1.0426,-1.0358,-1.0487,-1.0351,-1.0283,-1.375,-1.5787,-1.8403,-1.9188,-2.2308,-2.5873,-2.8169,-2.9875,-3.1297,-3.2568,-3.1738,-3.0637,-3.012,-3.0909,-3.1438,-3.1137,-3.1491,-3.1824,-3.1734,-3.1348,-3.1133,-3.125,-3.1269,-3.1211,-3.1094,-3.1191,-3.1172,-3.0918,-3.0996,-3.1016,-3.0898,-3.0898,-3.0898,-3.0898,-3.0898,-3.0898,-3.0898,-3.0898,-3.0898,-3.0898,-3.0898,-3.1035,-3.1269,-3.1269,-3.1367,-3.1504,-3.1211,-3.1426,-3.1953,-3.1641,-3.1426,-3.125,-3.1133,-3.1074,-3.1055,-3.0937,-3.0898,-3.0898,-3.0898,-3.0898,-3.0898,-3.0898,-3.0976,-3.1133,-3.1426,-3.1601,-3.1657,-3.1504,-2.9368,-2.6964,-2.6519,-2.4319,-2.2285,-2.2285,-2.2579,-2.2928,-2.2928,-2.2928,-2.2832,-2.2752,-2.2726,-2.2699,-2.2619,-2.2605,-2.2605,-2.2605,-2.2605,-2.2605,-2.2605,-2.2605,-2.2525,-2.2311,-2.2472,-2.2485,-2.2191,-2.0418,-1.8527,-1.6645,-1.4517,-1.2545,-1.0784,-1.0717,-1.0717,-1.0717,-1.0677,-1.0677,-1.0717,-1.0629,-1.0609,-1.0649,-1.0609,-1.0588,-1.5876,-1.7397,-1.9469,-2.1489,-2.4196,-2.7238,-3.0504,-3.1788,-3.2532,-3.3234,-3.2454,-3.1398,-3.0595,-3.1358,-3.1741,-3.0601,-3.1162,-3.1502,-3.0956,-3.0723,-3.0684,-3.0859,-3.0723,-3.0684,-3.0879,-3.0898,-3.0898,-3.0898,-3.0898,-3.0898,-3.0898,-3.0898,-3.0898,-3.0898,-3.0898,-3.0898,-3.0898,-3.0898,-3.0898,-3.0898,-3.0898,-3.0898,-3.0898,-3.0898,-3.1035,-3.125,-3.0996,-3.1191,-3.1641,-3.1387,-3.1113,-3.0898,-3.0898,-3.0898,-3.0898,-3.0898,-3.0898,-3.0898,-3.0898,-3.0898,-3.0898,-3.0898,-3.0996,-3.1191,-3.1445,-3.1758,-3.209,-3.2344,-3.0541,-2.8418,-2.7713,-2.5596,-2.3414,-2.258,-2.2645,-2.2928,-2.2928,-2.2928,-2.2928,-2.2928,-2.2928,-2.2928,-2.2928,-2.2928,-2.2928,-2.2928,-2.2928,-2.2928,-2.2928,-2.2928,-2.2792,-2.2619,-2.2752,-2.2739,-2.2445,-2.068,-1.9046,-1.7927,-1.5128,-1.3053,-1.1992,-1.1143,-1.0717,-1.0717,-1.0717,-1.0717,-1.0717,-1.0717,-1.0717,-1.0717,-1.0717,-1.0717,-1.8851,-1.9421,-2.0228,-2.3737,-2.6215,-2.8589,-3.1929,-3.2394,-3.2316,-3.2847,-3.1952,-3.0921,-3.0381,-3.0701,-3.0867,-3.0305,-3.0547,-3.082,-3.0781,-3.041,-3.0293,-3.0723,-3.0391,-3.0312,-3.0723,-3.0762,-3.0762,-3.0762,-3.0801,-3.082,-3.0762,-3.084,-3.0879,-3.082,-3.0859,-3.0898,-3.0898,-3.0898,-3.0898,-3.0898,-3.0898,-3.0898,-3.0898,-3.0898,-3.0898,-3.0898,-3.0898,-3.0898,-3.0898,-3.0898,-3.0898,-3.0898,-3.0898,-3.0898,-3.0898,-3.0898,-3.0898,-3.0898,-3.0898,-3.0898,-3.0898,-3.0898,-3.1152,-3.1465,-3.1562,-3.2129,-3.2754,-3.2832,-3.1872,-3.0448,-2.8821,-2.6972,-2.504,-2.3104,-2.2795,-2.2928,-2.2928,-2.2928,-2.2928,-2.2928,-2.2928,-2.2928,-2.2928,-2.2928,-2.2928,-2.2928,-2.2928,-2.2928,-2.2928,-2.2928,-2.2928,-2.2928,-2.2928,-2.2752,-2.2485,-2.0977,-1.9896,-1.9456,-1.632,-1.4282,-1.3839,-1.1807,-1.0731,-1.0717,-1.0717,-1.0717,-1.0717,-1.0717,-1.0717,-1.0717,-1.0717,-1.0717,-1.8497,-2.0164,-2.2614,-2.6709,-3.0197,-3.2522,-3.1975,-3.1801,-3.1751,-3.1746,-3.1304,-3.091,-3.0761,-3.0874,-3.0792,-3.0291,-3.0273,-3.0234,-2.9902,-2.9766,-2.9746,-2.99,-2.9766,-2.9746,-2.9844,-2.9844,-2.9844,-2.9844,-3.0156,-3.0195,-2.9883,-3.0508,-3.0723,-3.0351,-3.0703,-3.0898,-3.0898,-3.0898,-3.0898,-3.0898,-3.0898,-3.0898,-3.0898,-3.0898,-3.0898,-3.0898,-3.0898,-3.0898,-3.0898,-3.0898,-3.0898,-3.0898,-3.0898,-3.0898,-3.0898,-3.0898,-3.0898,-3.0898,-3.0898,-3.0898,-3.0898,-3.0898,-3.0957,-3.1152,-3.1816,-3.2148,-3.2441,-3.3105,-3.2098,-3.0707,-3.0319,-2.7883,-2.5368,-2.4958,-2.3814,-2.2928,-2.2928,-2.2928,-2.2928,-2.2928,-2.2928,-2.2928,-2.2928,-2.2928,-2.2928,-2.2928,-2.2928,-2.2928,-2.2928,-2.2928,-2.2928,-2.2928,-2.2928,-2.2832,-2.2779,-2.22,-2.1222,-1.9784,-1.8777,-1.6964,-1.4095,-1.1977,-1.0846,-1.0724,-1.0717,-1.0717,-1.0717,-1.0717,-1.0717,-1.0717,-1.0717,-1.0717,-1.9468,-2.1087,-2.3433,-2.8134,-3.1321,-3.3005,-3.1838,-3.2179,-3.2265,-3.084,-3.0949,-3.1144,-3.0425,-3.086,-3.0987,-3.0035,-2.9902,-2.9824,-2.9646,-2.9394,-2.9336,-2.9551,-2.9394,-2.9336,-2.9551,-2.9626,-2.9626,-2.9626,-2.9766,-2.9805,-2.9646,-3.0,-3.0156,-2.9902,-3.0332,-3.0566,-3.0566,-3.0781,-3.0898,-3.0898,-3.0898,-3.0898,-3.0898,-3.0898,-3.0898,-3.0898,-3.0898,-3.0898,-3.0898,-3.0898,-3.0898,-3.0898,-3.0898,-3.0898,-3.0898,-3.0898,-3.0898,-3.0898,-3.0898,-3.0898,-3.0898,-3.0898,-3.1035,-3.1269,-3.1719,-3.2148,-3.2559,-3.3008,-3.2023,-3.0578,-2.98,-2.7553,-2.5315,-2.4452,-2.3597,-2.2928,-2.2928,-2.2928,-2.2928,-2.2928,-2.2928,-2.2928,-2.2928,-2.2928,-2.2928,-2.2928,-2.2928,-2.2928,-2.2928,-2.2928,-2.2928,-2.2928,-2.2928,-2.2928,-2.2928,-2.2726,-2.2279,-2.1369,-2.0347,-1.8834,-1.6879,-1.3985,-1.1959,-1.0934,-1.0867,-1.0826,-1.0826,-1.0758,-1.0717,-1.0717,-1.0717,-1.0758,-2.0245,-2.2104,-2.4402,-2.8958,-3.1381,-3.2397,-3.1634,-3.2564,-3.2796,-2.9859,-3.0587,-3.1332,-2.9885,-3.0585,-3.0984,-2.9695,-2.9453,-2.9434,-2.9411,-2.9043,-2.8945,-2.9316,-2.9023,-2.8945,-2.9316,-2.9411,-2.9411,-2.9411,-2.9414,-2.9434,-2.9355,-2.9548,-2.9531,-2.9453,-2.9863,-3.0098,-3.0098,-3.0469,-3.0664,-3.0664,-3.0742,-3.082,-3.0898,-3.0898,-3.0898,-3.0898,-3.0898,-3.0898,-3.0898,-3.0898,-3.0898,-3.0898,-3.0898,-3.0898,-3.0898,-3.0898,-3.0898,-3.0898,-3.0898,-3.0898,-3.0898,-3.0898,-3.1172,-3.1523,-3.1601,-3.2168,-3.2812,-3.2871,-3.21,-3.0836,-2.9083,-2.7304,-2.5517,-2.3788,-2.3133,-2.2928,-2.2928,-2.2928,-2.2928,-2.2928,-2.2928,-2.2928,-2.2928,-2.2968,-2.2939,-2.2939,-2.2979,-2.3088,-2.3088,-2.3088,-2.3088,-2.3088,-2.3088,-2.3088,-2.3088,-2.2966,-2.2939,-2.2939,-2.1484,-2.0233,-1.9392,-1.6342,-1.3641,-1.1309,-1.105,-1.0894,-1.0914,-1.0806,-1.0731,-1.0758,-1.0758,-1.0759,-1.8455,-2.3193,-2.784,-2.9995,-3.2105,-3.3196,-3.1385,-3.1956,-3.1925,-2.8649,-2.9883,-3.1223,-2.9829,-2.9793,-2.9711,-2.9062,-2.9004,-2.8867,-2.8516,-2.8418,-2.8398,-2.8457,-2.8418,-2.8398,-2.8457,-2.8457,-2.8457,-2.8457,-2.8809,-2.8848,-2.8476,-2.916,-2.9394,-2.9023,-2.9434,-2.9648,-2.9648,-2.9707,-2.9746,-2.9802,-3.0117,-3.0508,-3.0898,-3.0898,-3.0898,-3.0898,-3.0898,-3.0898,-3.0898,-3.0898,-3.0898,-3.0898,-3.0898,-3.0898,-3.0898,-3.0898,-3.0898,-3.0898,-3.0898,-3.0898,-3.0898,-3.0898,-3.1172,-3.1582,-3.1973,-3.2422,-3.2871,-3.3242,-3.317,-3.2619,-3.09,-2.9148,-2.737,-2.5584,-2.3992,-2.2928,-2.2928,-2.2928,-2.2928,-2.2928,-2.2928,-2.2928,-2.2928,-2.3086,-2.326,-2.326,-2.3487,-2.3647,-2.3647,-2.3647,-2.3647,-2.3647,-2.3647,-2.3647,-2.3647,-2.342,-2.326,-2.326,-2.2799,-2.102,-1.7697,-1.7067,-1.5159,-1.163,-1.1089,-1.1009,-1.1131,-1.0853,-1.0785,-1.0853,-1.0853,-1.086,-1.8498,-2.2226,-2.5906,-2.8887,-3.0022,-3.0443,-3.0418,-3.0827,-3.0631,-2.8702,-2.9281,-2.9829,-2.8706,-2.8301,-2.8086,-2.7891,-2.7851,-2.7871,-2.793,-2.793,-2.8027,-2.8262,-2.8301,-2.8301,-2.8301,-2.8301,-2.8301,-2.8301,-2.8457,-2.8496,-2.8301,-2.8652,-2.8769,-2.8574,-2.8984,-2.9199,-2.9199,-2.9453,-2.9626,-2.9626,-2.9766,-2.9961,-3.0156,-3.0156,-3.043,-3.0898,-3.0898,-3.0898,-3.0898,-3.0898,-3.0898,-3.0898,-3.0898,-3.0898,-3.0898,-3.0898,-3.0898,-3.0898,-3.0898,-3.0898,-3.0898,-3.0898,-3.1348,-3.1914,-3.2109,-3.2617,-3.3184,-3.3379,-3.2683,-3.1771,-3.0964,-2.8738,-2.6506,-2.5719,-2.4196,-2.2928,-2.2928,-2.2928,-2.2928,-2.2928,-2.3006,-2.3126,-2.3126,-2.338,-2.3581,-2.3581,-2.3688,-2.3768,-2.3768,-2.3768,-2.3768,-2.3768,-2.3768,-2.3701,-2.3541,-2.3407,-2.3247,-2.3073,-2.2939,-2.216,-2.0467,-1.8369,-1.6413,-1.4796,-1.2377,-1.1226,-1.1294,-1.1077,-1.1002,-1.107,-1.107,-1.1111,-1.7997,-2.0341,-2.2759,-2.605,-2.6918,-2.7296,-2.8655,-2.9376,-2.9507,-2.8464,-2.8748,-2.8715,-2.732,-2.7012,-2.7012,-2.7012,-2.7012,-2.7129,-2.7461,-2.75,-2.7617,-2.793,-2.7969,-2.7969,-2.7969,-2.8066,-2.8086,-2.7969,-2.8066,-2.8125,-2.8125,-2.8027,-2.8027,-2.8125,-2.8437,-2.8594,-2.8594,-2.9023,-2.9297,-2.9394,-2.9394,-2.9453,-2.9626,-2.9626,-2.9922,-3.0566,-3.0566,-3.0684,-3.0879,-3.0762,-3.0781,-3.0898,-3.0898,-3.0898,-3.0898,-3.0898,-3.0898,-3.0898,-3.0898,-3.0898,-3.0898,-3.0898,-3.1387,-3.2031,-3.2129,-3.2676,-3.3281,-3.3398,-3.2492,-3.1368,-3.09,-2.8476,-2.6039,-2.5584,-2.4196,-2.2928,-2.2928,-2.2926,-2.2979,-2.2979,-2.3233,-2.3434,-2.3434,-2.3688,-2.3875,-2.3875,-2.3941,-2.3995,-2.3995,-2.3995,-2.3995,-2.3995,-2.3995,-2.3875,-2.3581,-2.3487,-2.334,-2.3113,-2.302,-2.2799,-2.2436,-1.9186,-1.7106,-1.6632,-1.3247,-1.1484,-1.145,-1.1253,-1.1255,-1.1219,-1.1219,-1.128,-1.5775,-1.777,-1.9765,-2.0991,-2.3097,-2.5104,-2.6018,-2.7755,-2.8691,-2.7147,-2.8255,-2.8669,-2.5759,-2.6191,-2.7012,-2.7012,-2.7012,-2.7031,-2.7051,-2.7051,-2.7051,-2.709,-2.709,-2.709,-2.709,-2.7461,-2.7519,-2.7109,-2.7461,-2.7748,-2.7748,-2.7305,-2.7266,-2.7748,-2.7767,-2.7787,-2.7787,-2.8144,-2.8555,-2.8945,-2.8945,-2.916,-2.9626,-2.9626,-2.959,-2.9704,-2.9704,-3.0117,-3.0859,-3.041,-3.0488,-3.0898,-3.0898,-3.0898,-3.0898,-3.0898,-3.0898,-3.0898,-3.0898,-3.0898,-3.0898,-3.0898,-3.1191,-3.1621,-3.2051,-3.248,-3.291,-3.3301,-3.3355,-3.2892,-3.124,-2.9474,-2.7635,-2.592,-2.4196,-2.2928,-2.2928,-2.31,-2.33,-2.33,-2.3541,-2.3754,-2.3754,-2.3981,-2.4182,-2.4182,-2.4422,-2.4596,-2.4596,-2.4596,-2.4596,-2.4596,-2.4596,-2.4476,-2.4182,-2.3901,-2.3741,-2.3728,-2.346,-2.2621,-2.1055,-1.8953,-1.6976,-1.5055,-1.2889,-1.1742,-1.1606,-1.1307,-1.124,-1.1382,-1.1382,-1.1382,-1.5577,-1.6665,-1.7926,-1.9591,-2.0873,-2.1902,-2.2586,-2.3957,-2.5147,-2.5147,-2.5525,-2.5878,-2.5863,-2.6171,-2.6269,-2.5868,-2.5527,-2.5644,-2.6484,-2.6367,-2.6356,-2.6953,-2.7012,-2.7012,-2.7012,-2.7148,-2.7187,-2.7031,-2.7168,-2.7246,-2.7246,-2.709,-2.709,-2.7246,-2.7246,-2.7383,-2.7728,-2.7812,-2.8105,-2.8516,-2.8516,-2.8594,-2.875,-2.875,-2.8906,-2.9141,-2.8867,-2.9394,-3.043,-3.0273,-3.0469,-3.0898,-3.0898,-3.0898,-3.0898,-3.0898,-3.0898,-3.0898,-3.0898,-3.0898,-3.0898,-3.0898,-3.1367,-3.1973,-3.2129,-3.2656,-3.3223,-3.3379,-3.3418,-3.3292,-3.2619,-3.0337,-2.7437,-2.452,-2.3324,-2.2928,-2.2928,-2.31,-2.338,-2.3581,-2.3848,-2.4048,-2.4048,-2.4289,-2.4476,-2.4476,-2.4569,-2.4636,-2.4636,-2.4636,-2.4636,-2.4636,-2.4636,-2.4516,-2.4222,-2.4115,-2.3968,-2.3781,-2.3674,-2.3364,-2.2801,-2.0898,-1.8881,-1.6841,-1.4889,-1.316,-1.1619,-1.1511,-1.1484,-1.1538,-1.1538,-1.1586,-1.5484,-1.5943,-1.6456,-1.7773,-1.852,-1.9165,-1.9885,-2.1069,-2.2242,-2.2988,-2.3533,-2.3988,-2.4483,-2.5074,-2.531,-2.4913,-2.4609,-2.4727,-2.5605,-2.5605,-2.5723,-2.6289,-2.6504,-2.6582,-2.6582,-2.6719,-2.6738,-2.6602,-2.6719,-2.6797,-2.6797,-2.666,-2.666,-2.6797,-2.6797,-2.7012,-2.7441,-2.7598,-2.7812,-2.8086,-2.8223,-2.8301,-2.8301,-2.8301,-2.8437,-2.8691,-2.8418,-2.8945,-2.998,-2.9824,-3.0039,-3.0469,-3.0605,-3.0664,-3.0684,-3.084,-3.0898,-3.0898,-3.0898,-3.0898,-3.0898,-3.0898,-3.1367,-3.1973,-3.2129,-3.2656,-3.3242,-3.3379,-3.3418,-3.3292,-3.2683,-2.993,-2.6537,-2.3735,-2.302,-2.3073,-2.3273,-2.3394,-2.3527,-2.3728,-2.4088,-2.4342,-2.4342,-2.4516,-2.4636,-2.4636,-2.4636,-2.4636,-2.4636,-2.4636,-2.4636,-2.4636,-2.4636,-2.4516,-2.4222,-2.4209,-2.4115,-2.3928,-2.3915,-2.3955,-2.4062,-2.2201,-2.0151,-1.8079,-1.6176,-1.4056,-1.1769,-1.1769,-1.1769,-1.1769,-1.1769,-1.1816,0.0,0.0,0.0,-1.5391,-1.6005,-1.6943,-1.8044,-1.9265,-2.0296,-2.0716,-2.2372,-2.3187,-2.1491,-2.2778,-2.4115,-2.4283,-2.4355,-2.4394,-2.4414,-2.4766,-2.5086,-2.5086,-2.543,-2.5654,-2.5654,-2.6094,-2.6172,-2.5693,-2.6113,-2.6348,-2.6367,-2.5977,-2.5869,-2.6328,-2.6367,-2.6562,-2.6992,-2.7422,-2.7689,-2.7728,-2.8086,-2.8281,-2.8301,-2.8301,-2.8301,-2.8301,-2.8301,-2.8769,-2.9548,-2.9082,-2.918,-2.9665,-3.0039,-3.0195,-3.0254,-3.0723,-3.0898,-3.0898,-3.0898,-3.0898,-3.0898,-3.0898,-3.1191,-3.1621,-3.2031,-3.248,-3.2891,-3.3301,-3.3418,-3.2956,-3.1176,-2.8163,-2.5216,-2.3664,-2.334,-2.35,-2.4062,-2.3981,-2.3781,-2.3794,-2.4262,-2.4649,-2.4636,-2.4649,-2.4649,-2.4636,-2.4636,-2.4636,-2.4636,-2.4636,-2.4636,-2.4636,-2.4636,-2.4516,-2.4235,-2.4222,-2.4222,-2.4222,-2.4222,-2.4342,-2.4623,-2.2732,-2.0642,-1.8313,-1.6376,-1.4287,-1.2074,-1.2067,-1.2135,-1.2135,-1.2067,-1.2142,-1.4429,0.0,0.0,0.0,0.0,0.0,-1.5716,-1.6568,-1.7483,-1.8235,-1.9286,-2.0082,-2.0251,-2.0739,-2.1292,-2.1995,-2.2847,-2.3666,-2.4336,-2.4258,-2.4258,-2.4551,-2.4707,-2.4738,-2.4738,-2.5176,-2.5439,-2.5273,-2.5419,-2.5566,-2.5898,-2.5752,-2.5644,-2.543,-2.5742,-2.6133,-2.6562,-2.668,-2.7102,-2.7728,-2.7793,-2.7988,-2.8301,-2.8301,-2.8301,-2.8301,-2.8301,-2.8418,-2.8652,-2.8848,-2.918,-2.9665,-3.0039,-3.0195,-3.0254,-3.0723,-3.0898,-3.0898,-3.0898,-3.0898,-3.0898,-3.0898,-3.1387,-3.2012,-3.2129,-3.2676,-3.3281,-3.3379,-3.3418,-3.2759,-2.9934,-2.8476,-2.704,-2.4329,-2.3647,-2.3688,-2.3861,-2.3995,-2.4142,-2.4356,-2.4703,-2.489,-2.4676,-2.481,-2.489,-2.4676,-2.4636,-2.4636,-2.4636,-2.4636,-2.4636,-2.4636,-2.4636,-2.4609,-2.4529,-2.4516,-2.4516,-2.4516,-2.4516,-2.4556,-2.4636,-2.4105,-2.2088,-1.8556,-1.7954,-1.5969,-1.2379,-1.2169,-1.2135,-1.2067,-1.2176,-1.223,-1.3687,-1.4302,-1.4837,-1.461,0.0,0.0,-1.459,-1.5039,-1.5654,-1.5957,-1.6699,-1.7467,-1.8184,-1.875,-1.9355,-2.0001,-2.123,-2.2422,-2.3477,-2.3555,-2.3672,-2.4102,-2.4316,-2.4414,-2.4414,-2.4648,-2.4805,-2.4805,-2.4805,-2.4902,-2.5128,-2.5148,-2.5156,-2.5125,-2.5312,-2.5664,-2.6113,-2.6289,-2.6641,-2.7129,-2.7552,-2.7793,-2.8047,-2.8203,-2.8301,-2.8301,-2.8301,-2.8301,-2.832,-2.8555,-2.8906,-2.9336,-2.9766,-3.0039,-3.0254,-3.0723,-3.0898,-3.0898,-3.0898,-3.0898,-3.0898,-3.0898,-3.1465,-3.2229,-3.2229,-3.2754,-3.3418,-3.3418,-3.2892,-3.1736,-2.9277,-2.8035,-2.6954,-2.4547,-2.3955,-2.3981,-2.4102,-2.4262,-2.4396,-2.4449,-2.469,-2.4836,-2.4663,-2.4783,-2.4836,-2.4663,-2.4636,-2.4636,-2.4636,-2.4636,-2.4636,-2.4636,-2.4636,-2.4636,-2.4636,-2.4636,-2.4636,-2.4636,-2.4636,-2.4636,-2.4636,-2.4636,-2.2732,-1.8648,-1.8572,-1.6599,-1.2501,-1.2332,-1.2244,-1.225,-1.2338,-1.2379,-1.3003,-1.3484,-1.4118,-1.4064,-1.4695,0.0,-1.4289,-1.4488,-1.4727,-1.427,-1.4777,-1.5469,-1.587,-1.6914,-1.7871,-1.8325,-1.9434,-2.0762,-2.2168,-2.2691,-2.3164,-2.3594,-2.3984,-2.4219,-2.4277,-2.4316,-2.4355,-2.4355,-2.4394,-2.4375,-2.4277,-2.4355,-2.457,-2.4969,-2.5067,-2.5254,-2.5615,-2.6094,-2.6348,-2.6406,-2.7207,-2.7669,-2.7728,-2.8105,-2.8301,-2.8301,-2.8301,-2.8301,-2.8301,-2.8301,-2.8535,-2.8965,-2.9394,-2.9824,-3.0254,-3.0723,-3.0898,-3.0898,-3.0898,-3.0898,-3.0898,-3.0898,-3.1465,-3.2229,-3.2229,-3.2754,-3.3418,-3.3418,-3.2301,-3.0667,-2.901,-2.7458,-2.5958,-2.4552,-2.4222,-2.4329,-2.4583,-2.4636,-2.4556,-2.4302,-2.4489,-2.4676,-2.4649,-2.4663,-2.4676,-2.4636,-2.4636,-2.4636,-2.4636,-2.4636,-2.4636,-2.4636,-2.4636,-2.4636,-2.4636,-2.4636,-2.4636,-2.4636,-2.4636,-2.4636,-2.4636,-2.4636,-2.2806,-1.9025,-1.8497,-1.638,-1.2501,-1.2501,-1.2501,-1.2501,-1.2501,-1.2501,-1.2583,-1.2949,-1.348,-1.3288,-1.4022,0.0,-1.4264,-1.4753,-1.5176,-1.4746,-1.4785,-1.497,-1.5048,-1.5527,-1.6141,-1.6941,-1.7617,-1.8828,-2.1112,-2.1855,-2.2285,-2.2715,-2.2832,-2.3027,-2.3315,-2.3711,-2.3906,-2.3906,-2.4219,-2.4075,-2.3374,-2.4043,-2.4297,-2.4043,-2.4707,-2.5165,-2.5195,-2.5644,-2.6035,-2.6387,-2.6894,-2.7324,-2.7728,-2.8105,-2.8301,-2.8301,-2.8301,-2.8301,-2.8301,-2.8301,-2.8535,-2.8965,-2.9394,-2.9824,-3.0254,-3.0723,-3.0898,-3.0898,-3.0898,-3.0898,-3.0898,-3.0898,-3.1465,-3.2229,-3.2229,-3.2754,-3.3418,-3.3418,-3.3165,-3.2268,-2.9343,-2.8516,-2.767,-2.4881,-2.4382,-2.4569,-2.4623,-2.4636,-2.4549,-2.4569,-2.4796,-2.4917,-2.4676,-2.4836,-2.4917,-2.4676,-2.4636,-2.4636,-2.4636,-2.4636,-2.4636,-2.4636,-2.4636,-2.4636,-2.4636,-2.4636,-2.4636,-2.4636,-2.4636,-2.4636,-2.4636,-2.4636,-2.35,-2.1066,-1.7805,-1.4935,-1.2501,-1.2501,-1.2501,-1.2501,-1.2501,-1.2501,-1.2002,-1.2413,-1.3006,-1.2867,-1.3775,0.0,0.0,-1.4626,-1.5039,-1.4824,-1.4434,-1.4219,-1.4414,-1.4629,-1.4972,-1.5644,-1.6484,-1.7598,-1.9102,-2.0059,-2.0742,-2.1172,-2.1406,-2.1719,-2.2107,-2.2578,-2.3008,-2.3437,-2.3652,-2.3549,-2.312,-2.3491,-2.3789,-2.3789,-2.4199,-2.4629,-2.5106,-2.5293,-2.5625,-2.6074,-2.6504,-2.6934,-2.7363,-2.7793,-2.8086,-2.8301,-2.8301,-2.8301,-2.832,-2.8516,-2.8848,-2.9258,-2.9492,-2.998,-3.0566,-3.0801,-3.0898,-3.0898,-3.0898,-3.0898,-3.0898,-3.0898,-3.1465,-3.2229,-3.2229,-3.2754,-3.3418,-3.3418,-3.3418,-3.267,-2.941,-2.8837,-2.8164,-2.4966,-2.4422,-2.4636,-2.4636,-2.4636,-2.4636,-2.4636,-2.4756,-2.481,-2.4663,-2.4756,-2.481,-2.4663,-2.4636,-2.4636,-2.4636,-2.4636,-2.469,-2.4836,-2.473,-2.469,-2.485,-2.4716,-2.4636,-2.4636,-2.4636,-2.4636,-2.4636,-2.4636,-2.319,-2.0155,-1.7056,-1.4523,-1.2617,-1.2535,-1.2501,-1.2508,-1.2657,-1.2691,-1.195,-1.2472,-1.3119,-1.2703,-1.3721,-1.4656,0.0,0.0,0.0,-1.4411,-1.4003,-1.3776,-1.3842,-1.3987,-1.4211,-1.4609,-1.5605,-1.6414,-1.6719,-1.7793,-1.8848,-1.9687,-2.0098,-2.0527,-2.1055,-2.1426,-2.1953,-2.2672,-2.2808,-2.2886,-2.2964,-2.3042,-2.3257,-2.3652,-2.375,-2.4121,-2.4851,-2.5028,-2.5254,-2.5557,-2.6133,-2.6562,-2.6914,-2.7422,-2.7904,-2.8184,-2.8262,-2.8301,-2.832,-2.8652,-2.9101,-2.9626,-2.9668,-3.0176,-3.0898,-3.0898,-3.0898,-3.0898,-3.0898,-3.0898,-3.0898,-3.0898,-3.1465,-3.2268,-3.2363,-3.2891,-3.3418,-3.3418,-3.3418,-3.267,-2.941,-2.8837,-2.8148,-2.4897,-2.4342,-2.4556,-2.4556,-2.4516,-2.4502,-2.4609,-2.4596,-2.4569,-2.4623,-2.4636,-2.4636,-2.4636,-2.469,-2.4703,-2.4649,-2.469,-2.481,-2.505,-2.481,-2.4783,-2.513,-2.4836,-2.4663,-2.4716,-2.4676,-2.4636,-2.4636,-2.4636,-2.2732,-1.8648,-1.694,-1.498,-1.2732,-1.2664,-1.2617,-1.2596,-1.2813,-1.2868,-1.3319,-1.4077,-1.4635,-1.2725,-1.3777,-1.4934,-1.3461,0.0,-1.4484,-1.2995,0.0,-1.4311,-1.3232,0.0,0.0,-1.4172,-1.4648,-1.4883,-1.4523,-1.5245,-1.6719,-1.9082,-1.9394,-1.9746,-2.0605,-2.0723,-2.0918,-2.1366,-2.1816,-2.2187,-2.2559,-2.2886,-2.312,-2.3159,-2.3594,-2.3828,-2.3945,-2.4687,-2.5145,-2.5204,-2.5996,-2.6406,-2.6484,-2.7305,-2.7748,-2.7806,-2.8125,-2.8301,-2.8301,-2.834,-2.8828,-2.9665,-2.998,-3.0449,-3.0898,-3.0898,-3.0898,-3.0898,-3.0898,-3.0898,-3.0898,-3.0898,-3.1465,-3.2305,-3.3047,-3.334,-3.3418,-3.3418,-3.3418,-3.267,-2.941,-2.8837,-2.8154,-2.4634,-2.4035,-2.4249,-2.4249,-2.4048,-2.4022,-2.4529,-2.4422,-2.4329,-2.4596,-2.4636,-2.4636,-2.4636,-2.4863,-2.493,-2.4676,-2.4863,-2.5037,-2.5077,-2.481,-2.4863,-2.5411,-2.4957,-2.4743,-2.501,-2.4783,-2.4636,-2.4636,-2.4636,-2.2732,-1.8648,-1.8459,-1.6578,-1.2732,-1.2976,-1.303,-1.2908,-1.2807,-1.282,-1.4532,-1.4991,-1.529,-1.3906,-1.4273,-1.4679,-1.349,-1.3521,-1.3668,-1.32,0.0,0.0,0.0,0.0,0.0,0.0,-1.4863,-1.5,-1.457,-1.4824,-1.5547,-1.6875,-1.7298,-1.7885,-1.8965,-1.9531,-2.0,-2.043,-2.1113,-2.1699,-2.2129,-2.2539,-2.2847,-2.3081,-2.3276,-2.3535,-2.3789,-2.4394,-2.4824,-2.5125,-2.5703,-2.6152,-2.6406,-2.6758,-2.7187,-2.7728,-2.7851,-2.8066,-2.832,-2.8555,-2.9023,-2.9665,-3.0039,-3.0488,-3.0898,-3.0898,-3.0898,-3.0898,-3.0898,-3.0898,-3.0976,-3.1465,-3.1875,-3.2324,-3.3164,-3.3418,-3.3418,-3.3418,-3.3418,-3.2613,-2.9204,-2.8592,-2.7852,-2.433,-2.3861,-2.4155,-2.3981,-2.3995,-2.4102,-2.4342,-2.4289,-2.4302,-2.4583,-2.4636,-2.4636,-2.4636,-2.4743,-2.4783,-2.4649,-2.489,-2.5144,-2.5317,-2.5224,-2.5317,-2.5732,-2.5384,-2.5197,-2.5317,-2.505,-2.489,-2.489,-2.473,-2.2732,-1.8648,-1.8663,-1.6766,-1.2861,-1.2901,-1.3017,-1.3214,-1.3152,-1.3105,-1.5816,-1.622,-1.6468,-1.5358,-1.4965,-1.4645,-1.3786,-1.3316,-1.2996,-1.2917,-1.3021,0.0,0.0,0.0,-1.4034,-1.4401,0.0,-1.5098,-1.4668,-1.4707,-1.4941,-1.5352,-1.5898,-1.6621,-1.7545,-1.8223,-1.8809,-1.9355,-2.006,-2.082,-2.1484,-2.2051,-2.2539,-2.2906,-2.3042,-2.3257,-2.3613,-2.4043,-2.4453,-2.4902,-2.5332,-2.5781,-2.6211,-2.6328,-2.6797,-2.75,-2.7669,-2.791,-2.832,-2.8633,-2.9062,-2.9646,-2.9902,-3.0371,-3.0898,-3.0898,-3.0898,-3.0898,-3.0898,-3.0898,-3.1035,-3.1894,-3.2229,-3.2324,-3.3164,-3.3418,-3.3418,-3.3418,-3.3418,-3.2721,-2.9809,-2.8843,-2.7976,-2.486,-2.4178,-2.4142,-2.3941,-2.3995,-2.4128,-2.4289,-2.4262,-2.4302,-2.4583,-2.4636,-2.4636,-2.4636,-2.4703,-2.473,-2.4649,-2.489,-2.5197,-2.5478,-2.5438,-2.5585,-2.6039,-2.5732,-2.5518,-2.5518,-2.5317,-2.5197,-2.5197,-2.4917,-2.2843,-1.8815,-1.8663,-1.6784,-1.2963,-1.2888,-1.3044,-1.3397,-1.3356,-1.3302,-1.7135,-1.8151,-1.8754,-1.7002,-1.5948,-1.5166,-1.4264,-1.357,-1.2691,-1.1368,-1.3185,-1.4365,-1.2259,-1.3462,-1.4533,-1.375,-1.4308,0.0,0.0,-1.4512,-1.4941,-1.5352,-1.6161,-1.6687,-1.6746,-1.6765,-1.7135,-1.8008,-1.8442,-1.9277,-2.0586,-2.1426,-2.209,-2.2519,-2.2886,-2.3101,-2.312,-2.3594,-2.4023,-2.4434,-2.4883,-2.5332,-2.5732,-2.6191,-2.6621,-2.707,-2.748,-2.791,-2.8301,-2.8301,-2.8809,-2.9626,-2.959,-3.0117,-3.0898,-3.0898,-3.0898,-3.0898,-3.0898,-3.0898,-3.1035,-3.1894,-3.2229,-3.2324,-3.3164,-3.3418,-3.3418,-3.3418,-3.3418,-3.3052,-3.1473,-3.0035,-2.8535,-2.6752,-2.5228,-2.4195,-2.4195,-2.3981,-2.3955,-2.4516,-2.4396,-2.4302,-2.4583,-2.4636,-2.4636,-2.4636,-2.4877,-2.4957,-2.4676,-2.489,-2.5197,-2.5478,-2.5264,-2.5438,-2.6306,-2.5838,-2.5518,-2.5518,-2.5504,-2.5504,-2.5504,-2.5224,-2.3127,-1.9039,-1.8896,-1.6841,-1.2963,-1.3091,-1.3241,-1.3397,-1.3247,-1.3254,-1.8573,-1.9118,-1.9418,-1.8225,-1.7327,-1.651,-1.561,-1.4833,-1.39,-1.2524,-1.3058,-1.3442,-1.2264,-1.2459,-1.29,-1.3156,-1.3868,-1.4265,0.0,-1.4353,-1.4844,-1.498,-1.5508,-1.5829,-1.5829,-1.6113,-1.6437,-1.6731,-1.7656,-1.8652,-1.9668,-2.082,-2.1777,-2.248,-2.2886,-2.3101,-2.3101,-2.3574,-2.4004,-2.4414,-2.4863,-2.5293,-2.5713,-2.6191,-2.6621,-2.7031,-2.748,-2.791,-2.8301,-2.8301,-2.8789,-2.9626,-2.9626,-3.0117,-3.0898,-3.0898,-3.0898,-3.0898,-3.0898,-3.0898,-3.1035,-3.1894,-3.2229,-3.2324,-3.3164,-3.3418,-3.3418,-3.3418,-3.3418,-3.274,-2.9975,-2.8943,-2.8008,-2.5027,-2.4263,-2.4155,-2.3955,-2.3995,-2.4115,-2.4315,-2.4275,-2.4302,-2.4583,-2.4636,-2.4636,-2.4636,-2.4716,-2.4823,-2.4917,-2.5184,-2.5478,-2.5772,-2.5892,-2.6066,-2.636,-2.6213,-2.6092,-2.6092,-2.5919,-2.5798,-2.5798,-2.5518,-2.3411,-1.9196,-1.9128,-1.7117,-1.3098,-1.3152,-1.3254,-1.3397,-1.3349,-1.3349,-1.9512,-1.9707,-1.9785,-1.9182,-1.8316,-1.7442,-1.6878,-1.6035,-1.495,-1.3546,-1.3797,-1.391,-1.2676,-1.2711,-1.2974,-1.319,-1.3791,-1.4212,0.0,-1.4687,-1.5,-1.5,-1.5254,-1.541,-1.541,-1.5664,-1.5928,-1.6085,-1.6992,-1.7988,-1.9004,-2.0293,-2.1387,-2.2266,-2.2808,-2.3101,-2.3101,-2.3574,-2.4004,-2.4414,-2.4863,-2.5293,-2.5713,-2.6191,-2.6621,-2.7031,-2.748,-2.791,-2.8301,-2.8301,-2.8789,-2.9626,-2.9626,-3.0117,-3.0898,-3.0898,-3.0898,-3.0898,-3.0898,-3.0898,-3.1016,-3.1699,-3.1934,-3.209,-3.2949,-3.3203,-3.3203,-3.3203,-3.3301,-3.2727,-2.9707,-2.8826,-2.8008,-2.5111,-2.4344,-2.4302,-2.4115,-2.4222,-2.4356,-2.4356,-2.4356,-2.4422,-2.4609,-2.4636,-2.4636,-2.4636,-2.473,-2.4863,-2.505,-2.5331,-2.5625,-2.5919,-2.6119,-2.6279,-2.6386,-2.6386,-2.6386,-2.6386,-2.6213,-2.6106,-2.6106,-2.5114,-2.2943,-1.9551,-1.8533,-1.6455,-1.3254,-1.32,-1.3254,-1.3403,-1.3403,-1.3403]},{"header":{"parameterUnit":"m.s-1","parameterCategory":1,"la1":30.6,"la2":29.2853,"lo1":-89.7004,"lo2":-87.6739,"dy":0.0162,"dx":0.0183,"nx":112,"ny":82,"refTime":"2023-10-05T06:00:00:Z","depth":0,"parameterNumber":3,"parameterNumberName":"V-component_of_WINDS"},"data":[0.0,0.0,0.0,0.0,0.0,0.0,0.0,0.0,0.0,0.0,0.0,0.0,0.0,0.0,0.0,0.0,0.0,0.0,0.0,0.0,0.0,0.0,0.0,0.0,0.0,0.0,0.0,0.0,0.0,0.0,0.0,0.0,0.0,0.0,0.0,0.0,0.0,0.0,0.0,0.0,0.0,0.0,0.0,0.0,0.0,0.0,0.0,0.0,0.0,0.0,0.0,0.0,0.0,0.0,0.0,0.0,0.0,0.0,0.0,0.0,0.0,0.0,0.0,0.0,0.0,0.0,0.0,0.0,0.0,0.0,0.0,0.0,0.0,0.0,0.0,0.0,0.0,0.0,0.0,0.0,0.0,0.0,0.0,0.0,0.0,0.0,0.0,0.0,0.0,0.0,1.8025,1.8229,2.182,2.3933,2.3226,2.3742,2.319,2.1005,0.0,0.0,0.0,0.0,0.0,0.0,0.0,0.0,0.0,0.0,0.0,0.0,0.0,0.0,0.0,0.0,0.0,0.0,0.0,0.0,0.0,0.0,0.0,0.0,0.0,0.0,0.0,0.0,0.0,0.0,0.0,0.0,0.0,0.0,0.0,0.0,0.0,0.0,0.0,0.0,0.0,0.0,0.0,0.0,0.0,0.0,0.0,0.0,0.0,0.0,0.0,0.0,0.0,0.0,0.0,0.0,0.0,0.0,0.0,0.0,0.0,0.0,0.0,0.0,0.0,0.0,0.0,0.0,0.0,0.0,0.0,0.0,0.0,0.0,0.0,0.0,0.0,0.0,0.0,0.0,0.0,0.0,0.0,0.0,0.0,0.0,0.0,0.0,0.0,0.0,0.0,0.0,0.0,0.0,0.0,0.0,0.0,0.0,0.0,0.0,0.0,0.0,0.0,0.0,1.9109,2.1876,2.338,2.4153,2.4043,2.3016,2.2457,2.2611,0.0,0.0,0.0,0.0,0.0,0.0,0.0,0.0,0.0,0.0,0.0,0.0,0.0,0.0,0.0,0.0,0.0,0.0,0.0,0.0,0.0,0.0,0.0,0.0,0.0,0.0,0.0,0.0,0.0,0.0,0.0,0.0,0.0,0.0,0.0,0.0,0.0,0.0,0.0,0.0,0.0,0.0,0.0,0.0,0.0,0.0,0.0,0.0,0.0,0.0,0.0,0.0,0.0,0.0,0.0,0.0,0.0,0.0,0.0,0.0,0.0,0.0,0.0,0.0,0.0,0.0,0.0,0.0,0.0,0.0,0.0,0.0,0.0,0.0,0.0,0.0,0.0,0.0,0.0,0.0,0.0,0.0,0.0,0.0,0.0,0.0,0.0,0.0,0.0,0.0,0.0,0.0,0.0,0.0,0.0,0.0,0.0,0.0,0.0,0.0,0.0,0.0,0.0,1.8308,1.9856,2.328,2.3969,2.419,2.419,2.2773,2.2132,2.2698,2.2,0.0,0.0,0.0,0.0,0.0,0.0,0.0,0.0,0.0,0.0,0.0,0.0,0.0,0.0,0.0,0.0,0.0,0.0,0.0,0.0,0.0,0.0,0.0,0.0,0.0,0.0,0.0,0.0,0.0,0.0,0.0,0.0,0.0,0.0,0.0,0.0,0.0,0.0,0.0,0.0,0.0,0.0,0.0,0.0,0.0,0.0,0.0,0.0,0.0,0.0,0.0,0.0,0.0,0.0,0.0,0.0,0.0,0.0,0.0,0.0,0.0,0.0,0.0,0.0,0.0,0.0,0.0,0.0,0.0,0.0,0.0,0.0,0.0,0.0,0.0,0.0,0.0,0.0,0.0,0.0,0.0,0.0,0.0,0.0,0.0,0.0,0.0,0.0,0.0,0.0,0.0,0.0,0.0,0.0,0.0,0.0,0.0,0.0,0.0,0.0,0.0,0.0,2.0053,2.0698,2.3925,2.4303,2.4238,2.4026,2.2487,2.1833,2.2473,2.1267,0.0,0.0,0.0,0.0,0.0,0.0,0.0,0.0,0.0,0.0,0.0,0.0,0.0,0.0,0.0,0.0,0.0,0.0,0.0,0.0,0.0,0.0,0.0,0.0,0.0,0.0,0.0,0.0,0.0,0.0,0.0,0.0,0.0,0.0,0.0,0.0,0.0,0.0,0.0,0.0,0.0,0.0,0.0,0.0,0.0,0.0,0.0,0.0,0.0,0.0,0.0,0.0,0.0,0.0,0.0,0.0,0.0,0.0,0.0,0.0,0.0,0.0,0.0,0.0,0.0,0.0,0.0,0.0,0.0,0.0,0.0,0.0,0.0,0.0,0.0,0.0,0.0,0.0,0.0,0.0,0.0,0.0,0.0,0.0,0.0,0.0,0.0,0.0,0.0,0.0,0.0,0.0,0.0,0.0,0.0,0.0,0.0,0.0,0.0,0.0,0.0,0.0,2.0825,2.1917,2.4239,2.4647,2.4385,2.3441,2.1839,2.1356,2.2411,2.0748,0.0,0.0,0.0,0.0,0.0,0.0,0.0,0.0,0.0,0.0,0.0,0.0,0.0,0.0,0.0,0.0,0.0,0.0,0.0,0.0,0.0,0.0,0.0,0.0,0.0,0.0,0.0,0.0,0.0,0.0,0.0,0.0,0.0,0.0,0.0,0.0,0.0,0.0,0.0,0.0,0.0,0.0,0.0,0.0,0.0,0.0,0.0,0.0,0.0,0.0,0.0,0.0,0.0,0.0,0.0,0.0,0.0,0.0,0.0,0.0,0.0,0.0,0.0,0.0,0.0,0.0,0.0,0.0,0.0,0.0,0.0,0.0,0.0,0.0,0.0,0.0,0.0,0.0,0.0,0.0,0.0,0.0,0.0,0.0,0.0,0.0,0.0,0.0,0.0,0.0,0.0,0.0,0.0,0.0,0.0,0.0,0.0,0.0,0.0,0.0,0.0,0.0,2.1561,2.2476,2.4474,2.4249,2.3798,2.3353,2.1287,2.0649,2.2114,0.0,0.0,0.0,0.0,0.0,0.0,0.0,0.0,0.0,0.0,0.0,0.0,0.0,0.0,0.0,0.0,0.0,0.0,0.0,0.0,0.0,0.0,0.0,0.0,0.0,0.0,0.0,0.0,0.0,0.0,0.0,0.0,0.0,0.0,0.0,0.0,0.0,0.0,0.0,0.0,0.0,0.0,0.0,0.0,0.0,0.0,0.0,0.0,0.0,0.0,0.0,0.0,0.0,0.0,0.0,0.0,0.0,0.0,0.0,0.0,0.0,0.0,0.0,0.0,0.0,0.0,0.0,0.0,0.0,0.0,0.0,0.0,0.0,0.0,0.0,0.0,0.0,0.0,0.0,0.0,0.0,0.0,0.0,0.0,0.0,0.0,0.0,0.0,0.0,0.0,0.0,0.0,0.0,0.0,0.0,0.0,0.0,0.0,0.0,0.0,0.0,0.0,2.1365,2.1738,2.2359,2.3846,2.3556,2.3056,2.2548,2.0529,1.9944,2.1514,0.0,0.0,0.0,0.0,0.0,0.0,0.0,0.0,0.0,0.0,0.0,0.0,0.0,0.0,0.0,0.0,0.0,0.0,0.0,0.0,0.0,0.0,0.0,0.0,0.0,0.0,0.0,0.0,0.0,0.0,0.0,0.0,0.0,0.0,0.0,0.0,0.0,0.0,0.0,0.0,0.0,0.0,0.0,0.0,0.0,0.0,0.0,0.0,0.0,0.0,0.0,0.0,0.0,0.0,0.0,0.0,0.0,0.0,0.0,0.0,0.0,0.0,0.0,0.0,0.0,0.0,0.0,0.0,0.0,0.0,0.0,0.0,0.0,0.0,0.0,0.0,0.0,0.0,0.0,0.0,0.0,0.0,0.0,0.0,0.0,0.0,0.0,0.0,0.0,0.0,0.0,0.0,0.0,0.0,0.0,0.0,0.0,0.0,0.0,0.0,0.0,0.0,2.0963,2.1232,2.1532,2.2243,2.2581,2.2253,2.0886,1.9446,1.921,0.0,0.0,0.0,0.0,0.0,0.0,0.0,0.0,0.0,0.0,0.0,0.0,0.0,0.0,0.0,0.0,0.0,0.0,0.0,0.0,0.0,0.0,0.0,0.0,0.0,0.0,0.0,0.0,0.0,0.0,0.0,0.0,0.0,0.0,0.0,0.0,0.0,0.0,0.0,0.0,0.0,0.0,0.0,0.0,0.0,0.0,0.0,0.0,0.0,0.0,0.0,0.0,0.0,0.0,0.0,0.0,0.0,0.0,0.0,0.0,0.0,0.0,0.0,0.0,0.0,0.0,0.0,0.0,0.0,0.0,0.0,0.0,0.0,0.0,0.0,0.0,0.0,0.0,0.0,0.0,0.0,0.0,0.0,0.0,0.0,0.0,0.0,0.0,0.0,0.0,0.0,0.0,0.0,0.0,0.0,0.0,0.0,0.0,0.0,0.0,0.0,0.0,0.0,2.2096,2.123,2.0967,2.2508,2.212,2.1308,2.0262,1.861,1.836,2.0178,0.0,0.0,0.0,0.0,0.0,0.0,0.0,0.0,0.0,0.0,0.0,0.0,0.0,0.0,0.0,0.0,0.0,0.0,0.0,0.0,0.0,0.0,0.0,0.0,0.0,0.0,0.0,0.0,0.0,0.0,0.0,0.0,0.0,0.0,0.0,0.0,0.0,0.0,0.0,0.0,0.0,0.0,0.0,0.0,0.0,0.0,0.0,0.0,0.0,0.0,0.0,0.0,0.0,0.0,0.0,0.0,0.0,0.0,0.0,0.0,0.0,0.0,0.0,0.0,0.0,0.0,0.0,0.0,0.0,0.0,0.0,0.0,0.0,0.0,0.0,0.0,0.0,0.0,0.0,0.0,0.0,0.0,0.0,0.0,0.0,0.0,0.0,0.0,0.0,0.0,0.0,0.0,0.0,0.0,0.0,0.0,0.0,0.0,0.0,0.0,0.0,0.0,2.2189,2.0806,2.0152,2.152,2.1144,2.0494,1.9843,1.8203,1.8024,1.9966,0.0,0.0,0.0,0.0,0.0,0.0,0.0,0.0,0.0,0.0,0.0,0.0,0.0,0.0,0.0,0.0,0.0,0.0,0.0,0.0,0.0,0.0,0.0,0.0,0.0,0.0,0.0,0.0,0.0,0.0,0.0,0.0,0.0,0.0,0.0,0.0,0.0,0.0,0.0,0.0,0.0,0.0,0.0,0.0,0.0,0.0,0.0,0.0,0.0,0.0,0.0,0.0,0.0,0.0,0.0,0.0,0.0,0.0,0.0,0.0,0.0,0.0,0.0,0.0,0.0,0.0,0.0,0.0,0.0,0.0,0.0,0.0,0.0,0.0,0.0,0.0,0.0,0.0,0.0,0.0,0.0,0.0,0.0,0.0,0.0,0.0,0.0,0.0,0.0,0.0,0.0,0.0,0.0,0.0,0.0,0.0,0.0,0.0,0.0,0.0,0.0,0.0,2.1723,2.0272,1.9396,2.0174,2.0179,1.9985,1.9649,1.8193,1.8047,1.9813,0.0,0.0,0.0,0.0,0.0,0.0,0.0,0.0,0.0,0.0,0.0,0.0,0.0,0.0,0.0,0.0,0.0,0.0,0.0,0.0,0.0,0.0,0.0,0.0,0.0,0.0,0.0,0.0,0.0,0.0,0.0,0.0,0.0,0.0,0.0,0.0,0.0,0.0,0.0,0.0,0.0,0.0,0.0,0.0,0.0,0.0,0.0,0.0,0.0,0.0,0.0,0.0,0.0,0.0,0.0,0.0,0.0,0.0,0.0,0.0,2.3428,2.3471,0.0,0.0,0.0,0.0,0.0,0.0,0.0,0.0,0.0,0.0,0.0,0.0,0.0,0.0,0.0,0.0,0.0,0.0,0.0,0.0,0.0,0.0,0.0,0.0,0.0,0.0,0.0,0.0,0.0,0.0,0.0,0.0,0.0,0.0,0.0,0.0,0.0,0.0,0.0,0.0,2.2869,2.1303,2.0573,2.2055,2.1384,2.0585,1.9884,1.8645,1.8081,1.8491,1.8177,0.0,0.0,0.0,0.0,0.0,0.0,0.0,0.0,0.0,0.0,0.0,0.0,0.0,0.0,0.0,0.0,0.0,0.0,0.0,0.0,0.0,0.0,0.0,0.0,0.0,0.0,0.0,0.0,0.0,0.0,0.0,0.0,0.0,0.0,0.0,0.0,0.0,0.0,0.0,0.0,0.0,0.0,0.0,0.0,0.0,0.0,0.0,0.0,0.0,0.0,0.0,0.0,0.0,0.0,0.0,0.0,0.0,0.0,0.0,2.6545,2.5631,0.0,0.0,0.0,0.0,0.0,0.0,0.0,0.0,0.0,0.0,0.0,0.0,0.0,0.0,0.0,0.0,0.0,0.0,0.0,0.0,0.0,0.0,0.0,0.0,0.0,0.0,0.0,0.0,0.0,0.0,0.0,0.0,0.0,0.0,0.0,0.0,0.0,0.0,0.0,0.0,2.3211,2.1629,2.0927,2.2624,2.1798,2.0945,2.0497,1.9011,1.8089,1.8089,1.8336,0.0,0.0,0.0,0.0,0.0,0.0,0.0,0.0,0.0,0.0,0.0,0.0,0.0,0.0,0.0,0.0,0.0,0.0,0.0,0.0,0.0,0.0,0.0,0.0,0.0,0.0,0.0,0.0,0.0,0.0,0.0,0.0,0.0,0.0,0.0,0.0,0.0,0.0,0.0,0.0,0.0,0.0,0.0,0.0,0.0,0.0,0.0,0.0,0.0,0.0,0.0,0.0,0.0,3.235,3.3198,3.3821,3.3981,3.375,3.3083,3.071,2.8787,2.7318,2.6757,0.0,0.0,0.0,0.0,0.0,0.0,0.0,0.0,0.0,0.0,0.0,0.0,0.0,0.0,0.0,0.0,0.0,0.0,0.0,0.0,0.0,0.0,2.619,2.667,2.7211,2.7106,2.5161,0.0,0.0,0.0,0.0,0.0,0.0,0.0,0.0,0.0,0.0,0.0,2.3496,2.2097,2.1543,2.3081,2.2065,2.1317,2.1317,1.9457,1.8243,1.8089,1.872,1.9068,0.0,0.0,0.0,0.0,0.0,0.0,0.0,0.0,0.0,0.0,0.0,0.0,0.0,0.0,0.0,0.0,0.0,0.0,0.0,0.0,0.0,0.0,0.0,0.0,0.0,0.0,0.0,0.0,0.0,0.0,0.0,0.0,2.4029,2.4893,0.0,0.0,0.0,0.0,0.0,0.0,0.0,0.0,0.0,0.0,0.0,0.0,0.0,3.148,3.184,3.4121,3.4815,3.3853,3.5426,3.5902,3.5418,3.6258,3.6953,3.7507,3.6522,0.0,2.8963,2.7381,0.0,0.0,0.0,0.0,0.0,0.0,0.0,0.0,0.0,0.0,0.0,0.0,0.0,0.0,0.0,0.0,0.0,0.0,0.0,0.0,0.0,0.0,2.7535,2.8482,2.8291,2.7967,2.8337,2.67,2.4974,2.4253,2.3568,2.3102,0.0,0.0,0.0,0.0,0.0,0.0,2.4466,2.4028,2.3932,2.4885,2.3284,2.2155,2.2155,2.0313,1.8831,1.8126,1.8207,1.8559,1.9225,1.9483,0.0,0.0,0.0,0.0,0.0,0.0,0.0,0.0,0.0,0.0,0.0,0.0,0.0,0.0,0.0,0.0,0.0,0.0,0.0,0.0,0.0,0.0,0.0,0.0,0.0,0.0,0.0,0.0,0.0,2.4936,2.5359,2.4629,2.6001,2.6638,0.0,0.0,0.0,0.0,0.0,0.0,0.0,0.0,0.0,3.1911,3.3329,3.4168,3.4358,3.6343,3.7433,3.7647,3.8842,3.9598,4.0036,4.0443,4.0857,4.1172,4.0351,3.8174,3.496,3.1792,3.0212,2.9679,0.0,0.0,0.0,0.0,2.7536,2.7701,2.9034,2.9001,2.8599,3.0111,0.0,0.0,0.0,0.0,0.0,0.0,0.0,2.7564,2.7779,2.8846,3.0012,3.0479,3.0621,3.0544,2.9967,2.9015,2.768,2.5776,2.5159,2.4733,2.4045,2.3943,0.0,0.0,0.0,2.3788,2.479,2.4427,2.4394,2.5192,2.3888,2.2785,2.2344,2.0864,1.9455,1.8163,1.8933,1.941,1.9315,2.0629,2.1717,0.0,0.0,0.0,0.0,0.0,0.0,0.0,0.0,0.0,0.0,0.0,0.0,0.0,0.0,0.0,0.0,0.0,0.0,0.0,0.0,0.0,0.0,0.0,0.0,0.0,0.0,0.0,0.0,2.6085,2.6467,2.499,2.7389,2.8447,0.0,0.0,0.0,0.0,0.0,0.0,3.0341,3.2276,3.3704,3.4462,3.5896,3.6737,3.6969,3.8637,4.001,4.1016,4.1829,4.2744,4.3692,4.3817,4.3896,4.3857,4.3107,4.2085,4.0632,3.6195,3.3711,3.2636,3.1634,3.1198,3.1096,3.096,3.0975,3.1336,3.2813,3.2843,3.2333,3.3049,3.2554,3.1426,2.9752,0.0,0.0,0.0,0.0,2.9553,2.9683,3.0763,3.1917,3.2318,3.2712,3.2634,3.1393,3.093,2.9995,2.7234,2.6694,2.6301,2.5024,2.5009,0.0,2.4495,2.4255,2.4331,2.4909,2.4656,2.462,2.5231,2.4261,2.3322,2.264,2.154,2.0362,1.9124,1.996,2.0327,1.9976,2.151,2.2438,2.26,0.0,0.0,0.0,0.0,0.0,0.0,0.0,0.0,0.0,0.0,0.0,0.0,0.0,0.0,0.0,0.0,0.0,0.0,0.0,0.0,0.0,0.0,0.0,0.0,0.0,0.0,0.0,0.0,0.0,2.6724,2.9354,0.0,0.0,0.0,0.0,3.0718,3.151,3.2282,3.3055,3.4709,3.6016,3.6795,3.8376,3.9621,4.0439,4.2119,4.3011,4.3152,4.4008,4.4487,4.4537,4.4978,4.5188,4.5175,4.4749,4.4513,4.4055,3.8984,3.597,3.4397,3.3496,3.3126,3.3047,3.3044,3.3047,3.3203,3.4088,3.386,3.3565,3.61,3.5812,3.4336,3.3398,3.1945,0.0,0.0,3.0615,3.0772,3.1576,3.1807,3.2313,3.3972,3.3777,3.3155,3.3067,3.2406,3.104,2.8327,2.7808,2.7451,2.6403,0.0,2.5869,2.4932,2.4872,2.4947,2.4985,2.5149,2.5269,2.5308,2.4394,2.368,2.3472,2.2494,2.1837,2.1646,2.0914,2.0841,2.1629,2.0996,2.1383,2.2951,2.3024,0.0,0.0,0.0,0.0,0.0,0.0,0.0,0.0,0.0,0.0,0.0,0.0,0.0,0.0,0.0,0.0,0.0,0.0,0.0,0.0,0.0,0.0,0.0,0.0,0.0,0.0,0.0,0.0,3.0608,3.2792,0.0,3.1572,3.1723,3.223,3.2866,3.3377,3.4233,3.548,3.7815,3.9456,4.0257,4.1613,4.2498,4.2818,4.2936,4.3339,4.3934,4.3759,4.4027,4.4624,4.4773,4.484,4.4851,4.4704,4.4327,4.3731,4.1909,4.0145,3.8578,3.8261,3.7761,3.7267,3.7267,3.7617,3.8046,3.786,3.7547,3.7228,3.7104,3.6309,3.5286,3.509,3.4556,3.3979,3.3476,3.3706,3.4049,3.3706,3.4047,3.4623,3.5158,3.5029,3.4679,3.4134,3.3787,3.2954,3.0866,2.9609,2.8589,2.7633,2.7474,2.7129,2.6189,2.6058,2.5861,2.5252,2.5278,2.5308,2.5308,2.4854,2.4331,2.375,2.3245,2.2681,2.1985,2.2147,2.237,2.2538,2.2758,2.3162,2.3749,2.3786,2.3829,0.0,0.0,0.0,0.0,0.0,0.0,0.0,0.0,0.0,0.0,0.0,0.0,0.0,0.0,0.0,0.0,0.0,0.0,0.0,0.0,0.0,0.0,0.0,0.0,0.0,3.1457,3.326,3.3699,3.6063,3.6887,3.5025,3.5146,3.5651,3.6349,3.6627,3.7313,3.8589,4.0373,4.1621,4.2146,4.2989,4.3511,4.3723,4.3009,4.3038,4.3807,4.3066,4.3065,4.3685,4.4259,4.4377,4.4144,4.4756,4.455,4.3783,4.3783,4.2948,4.1626,4.1557,4.115,4.065,4.0779,4.1181,4.1609,4.1073,4.0489,3.9781,3.9003,3.7755,3.6635,3.7016,3.6952,3.6611,3.6064,3.6356,3.6677,3.6054,3.6359,3.6776,3.6709,3.6662,3.6467,3.5611,3.5221,3.4597,3.3115,3.1429,2.9865,2.8729,2.8518,2.83,2.7693,2.7348,2.6912,2.6287,2.5919,2.5615,2.5346,2.5192,2.4859,2.4246,2.4302,2.3926,2.2913,2.3375,2.3603,2.3428,2.3722,2.398,2.4199,2.4303,2.4303,2.4284,0.0,0.0,0.0,0.0,0.0,0.0,0.0,0.0,0.0,0.0,0.0,0.0,0.0,0.0,0.0,0.0,0.0,0.0,0.0,0.0,0.0,0.0,0.0,3.1393,3.4561,3.6603,3.5938,3.9039,4.0392,3.8261,3.9318,4.0468,4.117,4.1238,4.1542,4.2252,4.232,4.2354,4.2354,4.2354,4.267,4.3272,4.2511,4.2428,4.2948,4.2192,4.186,4.1903,4.3593,4.3922,4.3294,4.4961,4.5248,4.4521,4.4572,4.4069,4.3278,4.3038,4.2956,4.2937,4.3296,4.3388,4.3349,4.3388,4.2256,4.0974,4.1838,4.0434,3.8606,3.9431,3.9085,3.842,3.8385,3.8419,3.8434,3.8395,3.8504,3.8594,3.8594,3.8594,3.8359,3.7539,3.668,3.582,3.4922,3.3215,3.1433,2.9808,2.9405,2.9341,2.944,2.8638,0.0,2.7997,2.7223,2.6313,2.55,2.5423,2.5334,2.5124,2.5691,2.5611,2.4593,2.4501,2.4436,2.4228,2.3668,2.3611,2.4218,2.4479,2.4588,2.4485,0.0,0.0,0.0,0.0,0.0,0.0,0.0,0.0,0.0,0.0,0.0,0.0,0.0,0.0,0.0,0.0,0.0,0.0,0.0,0.0,0.0,3.3651,3.598,3.6061,3.7415,3.9106,4.1009,4.1711,4.1745,4.1136,4.1441,4.1779,4.1982,4.1982,4.2083,4.2286,4.2828,4.3369,4.3972,4.3972,4.4326,4.5035,4.3707,4.334,4.3899,4.3182,4.3034,4.3408,4.333,4.3191,4.2982,4.3377,4.3448,4.3264,4.3623,4.3643,4.35,4.397,4.3748,4.3216,4.3302,4.2942,4.2474,4.3094,4.2588,4.1691,4.193,4.1724,4.1396,4.174,4.1455,4.0842,4.0269,3.9744,3.9217,3.8551,3.8504,3.8594,3.8594,3.8594,3.8516,3.8281,3.8047,3.7422,3.5937,3.5178,3.4252,3.2606,3.1784,3.1152,3.0516,2.9643,2.8822,2.8078,2.7756,2.7734,2.8021,2.8044,2.7802,2.7149,2.7257,2.667,2.4973,2.4846,2.4802,2.4639,2.4467,2.4467,2.4631,2.4708,2.4625,0.0,0.0,0.0,0.0,0.0,0.0,0.0,0.0,0.0,0.0,0.0,0.0,0.0,0.0,0.0,0.0,0.0,0.0,0.0,0.0,0.0,0.0,3.6513,3.8919,4.1283,4.1745,4.2455,4.4181,4.4248,4.4181,4.4181,4.4181,4.4045,4.3741,4.4012,4.4045,4.3741,4.4418,4.5026,4.5529,4.5196,4.5263,4.5703,4.4153,4.3593,4.3931,4.3169,4.2994,4.3305,4.3442,4.3349,4.3056,4.3805,4.3792,4.3218,4.3779,4.3791,4.3546,0.0,0.0,0.0,0.0,4.3529,4.3177,4.368,4.3253,4.2549,4.2549,4.242,4.2302,4.2377,4.2305,4.2102,4.1626,4.1352,4.0988,4.0128,4.0271,4.0436,3.9698,3.9813,3.9974,3.9678,3.9328,3.8784,3.7812,3.7029,0.0,3.5195,3.371,3.2495,3.1986,3.1118,3.0196,2.9274,2.8766,2.8526,2.8647,2.8625,2.8396,2.7934,2.7791,0.0,0.0,0.0,2.5349,2.4884,2.484,0.0,0.0,0.0,2.5322,2.5137,2.5404,0.0,0.0,2.6729,2.6548,0.0,0.0,0.0,0.0,0.0,0.0,0.0,0.0,0.0,0.0,0.0,0.0,0.0,0.0,0.0,0.0,3.928,4.1091,4.6207,4.6515,4.6143,4.5974,4.6447,4.6786,4.6786,4.6786,4.6515,4.5872,4.6413,4.6515,4.5872,4.6447,0.0,0.0,0.0,4.5872,4.5974,4.4519,4.3781,4.3781,4.3132,4.276,4.2719,4.389,4.3973,4.3341,4.5071,4.5027,4.3755,4.4453,4.4362,4.3769,4.3892,4.3921,4.4004,4.4332,4.4493,4.4493,4.4493,0.0,0.0,4.3324,4.281,4.2221,4.2221,4.2392,4.2574,4.2574,4.2864,4.2983,4.2247,4.2726,4.3022,4.1474,4.1669,4.2043,4.1303,4.0535,3.9966,3.988,3.8632,3.7539,3.7461,3.5228,3.3465,3.3554,3.2767,3.1854,3.1034,3.0089,2.9241,2.8532,2.8386,0.0,2.8186,2.7962,2.744,2.6543,2.6479,2.6136,2.5359,2.5221,2.5132,2.5132,2.6047,2.6466,2.6466,2.6677,2.7505,2.8929,2.726,2.7042,0.0,0.0,0.0,0.0,0.0,0.0,0.0,0.0,0.0,0.0,0.0,0.0,0.0,0.0,0.0,4.0298,4.2741,4.5024,4.7376,4.8578,4.8815,4.7601,4.709,4.6786,4.6786,4.6786,4.6718,4.6583,4.6718,4.6718,4.6583,4.6718,4.7056,4.7665,4.6955,4.6887,4.7496,4.6583,4.6143,4.6143,4.6007,0.0,4.5026,4.472,4.413,4.3382,4.3657,4.3615,4.3407,4.4498,4.5144,4.5314,4.4078,4.3597,4.3614,4.366,4.3693,4.3693,4.3693,4.3619,4.3455,4.3455,4.3531,4.3602,4.3602,4.3369,0.0,4.3164,4.2962,4.2763,4.2609,4.2982,4.3333,4.2983,4.3022,4.2914,4.2081,4.1735,4.1257,4.0003,3.9465,3.9045,3.8437,3.6171,3.4413,3.4453,3.3711,3.2809,3.1892,3.1602,3.1376,3.119,3.1095,3.0757,3.0061,2.9891,2.919,2.7698,2.7577,2.75,2.7358,2.7292,2.7319,2.7319,2.7495,2.7583,2.7583,2.7648,2.7818,2.8126,2.7753,2.806,0.0,0.0,0.0,0.0,0.0,0.0,0.0,0.0,0.0,0.0,0.0,3.5994,3.711,0.0,4.0878,4.3563,4.479,4.6125,4.8158,4.8709,4.875,4.8483,4.8443,4.8308,4.7936,4.7902,4.7902,4.7902,4.7902,4.7902,4.7902,4.7902,4.8071,4.8443,4.7733,4.753,4.7906,4.7158,4.6786,4.6786,4.6786,4.6616,4.6244,4.5872,4.5466,4.5089,4.4947,4.4681,4.4316,4.443,4.488,4.5362,4.4543,4.42,4.4048,4.3662,4.3515,4.3515,4.3515,4.3515,4.3515,4.3515,4.3614,4.3758,4.3758,4.3707,4.3638,4.3638,4.3655,4.3547,4.3128,4.3616,4.4021,4.3142,4.3413,4.3537,4.2299,4.2043,4.1694,4.0477,3.9947,3.9541,3.9203,3.7723,3.6282,3.5469,3.4609,3.3711,3.2807,3.2679,3.2622,3.2593,3.2133,3.165,3.1227,3.0345,2.9273,2.7972,2.7895,2.7895,2.7895,2.7895,2.7895,2.7895,2.8319,2.8511,2.8511,2.8511,2.8736,2.9159,2.8698,2.8703,0.0,0.0,0.0,0.0,0.0,0.0,0.0,3.2603,3.4064,3.5726,3.779,3.984,4.1648,4.2822,4.4331,4.6832,4.6613,4.6749,4.8478,4.8358,4.8229,4.8673,4.9533,4.9864,4.9255,4.9357,4.9424,4.9424,4.9424,4.9424,4.9424,4.9289,4.9221,4.9221,4.8511,4.8108,4.8108,4.753,4.7225,4.7225,4.7225,4.7158,4.7022,4.7022,4.6921,4.6781,4.6666,4.6243,4.5581,4.4819,4.4894,4.5452,4.5307,4.5193,4.5076,4.4268,4.3882,4.3772,4.3901,4.3772,4.3551,4.3681,4.3625,4.3515,4.3515,4.3677,4.3912,4.3912,4.4175,4.4318,4.3614,4.4221,4.4646,4.3227,4.3713,4.406,4.2647,4.2401,4.2202,4.1417,4.074,4.0264,4.0162,3.9587,3.8477,3.6523,3.5781,3.5039,3.3828,3.3744,3.3695,3.3343,3.2641,3.2169,3.2155,3.0807,2.9674,2.8961,2.8758,2.8758,2.8912,2.8767,2.8746,2.8905,2.9528,2.9858,2.9858,2.9858,3.0198,3.0885,3.0199,2.9699,2.9798,3.0054,3.0978,3.3402,3.2603,3.2883,0.0,3.9111,3.8513,4.1247,4.3167,4.4447,4.4708,4.6655,4.8351,4.8714,4.92,4.915,4.7902,4.8954,4.9315,4.7902,4.915,5.0067,4.9965,5.0574,5.098,5.098,5.098,5.098,5.098,5.0338,4.9965,4.9965,4.9255,4.8883,4.8883,4.8815,4.8748,4.8748,4.8748,4.8409,4.78,4.78,4.7428,4.6786,4.6772,4.6663,4.6472,4.6343,4.6634,4.706,4.6317,4.6392,4.6746,4.592,4.5186,4.4672,4.5369,4.4709,4.3608,4.4342,4.4085,4.3515,4.3515,4.3549,4.3546,4.3546,4.3786,4.402,4.3946,4.4271,4.4625,4.4399,4.468,4.4749,4.3805,4.3817,4.3836,4.3086,4.2846,4.2582,4.1937,4.1754,4.064,3.7615,3.7734,3.7305,3.4883,3.5234,3.5117,3.3554,3.3229,3.3115,3.3059,3.2852,3.2726,3.2603,3.1897,3.1816,3.2561,3.1805,3.1743,3.2493,3.2474,3.2468,3.2468,3.2468,3.2545,3.2628,3.2622,3.1806,3.4404,3.3684,3.3196,3.5234,3.5943,3.6751,3.9318,4.0417,4.1463,4.3501,4.5679,4.7309,4.7736,4.9157,5.0304,5.0304,5.0168,4.9871,4.9152,4.8902,4.8422,4.7245,4.7686,4.8616,4.9968,5.0371,5.0913,5.1792,5.1454,5.1386,5.1826,5.115,5.0541,5.0101,5.0236,5.0067,4.9627,5.0067,5.0304,5.0304,4.9864,4.9492,4.9187,4.8748,4.8139,4.7462,4.7462,4.7165,4.6703,4.6703,4.7069,4.7502,4.6751,4.702,4.7756,4.6377,4.57,4.5443,4.5773,4.5443,4.4929,4.5296,4.5186,4.4892,4.4892,4.4562,4.4195,4.4195,4.3965,4.371,4.371,4.3989,4.4247,4.4247,4.4535,4.4585,4.3689,4.3776,4.3781,4.2953,4.2972,4.3076,4.2776,4.2754,4.2151,4.0346,3.9614,3.8655,3.7055,3.7224,3.7031,3.5781,3.5624,3.5183,3.4092,3.401,3.3763,3.3215,3.2858,3.2819,3.3173,3.2824,3.2799,3.3153,3.3106,3.3081,3.3081,3.3081,3.3081,3.3081,3.3134,3.2742,3.6705,3.6233,3.5782,3.7171,3.8905,4.0177,3.9836,4.1674,4.3738,4.4972,4.7088,4.8966,4.9488,5.0459,5.1185,5.1185,5.0574,4.9909,4.9424,4.8334,4.7188,4.6109,4.6009,4.6926,4.9213,4.9814,5.0653,5.2165,5.2029,5.2097,5.2604,5.1928,5.1251,5.071,5.1048,5.0947,5.0405,5.0947,5.1185,5.1185,5.0676,5.0405,5.0371,4.9627,4.8917,4.8176,4.8176,4.78,4.709,4.709,4.7358,4.7657,4.7103,4.7572,4.8337,4.7054,4.645,4.625,4.6471,4.6287,4.5957,4.6177,4.6067,4.5883,4.5883,4.548,4.5039,4.5039,4.4599,4.4085,4.3901,4.3992,4.4146,4.3902,4.4146,4.4264,4.3649,4.3768,4.3862,4.3329,4.3436,4.3637,4.3533,4.3715,4.3524,4.2543,4.1613,4.049,3.8935,3.8664,3.8359,3.7734,3.7656,3.7148,3.5809,3.5691,3.5408,3.4714,3.4476,3.4437,3.4671,3.4457,3.4408,3.4645,3.4622,3.4494,3.426,3.426,3.4104,3.3907,3.393,3.3821,3.4776,3.6191,3.8122,3.9232,4.0632,4.1996,4.2995,4.4267,4.5406,4.6124,4.7876,4.9277,4.9309,5.0345,5.1185,5.1185,5.0574,4.9456,4.7623,4.7074,4.6107,4.4141,4.4359,4.548,4.7571,4.9093,5.0592,5.2166,5.301,5.345,5.345,5.2706,5.2266,5.2232,5.1589,5.1217,5.1183,5.1217,5.1185,5.1185,5.1151,5.1183,5.115,5.0405,4.9661,4.8984,4.8984,4.8545,4.7872,4.7872,4.7807,4.7699,4.7692,4.8005,4.851,4.8438,4.7845,4.7186,4.7976,4.7205,4.603,4.6819,4.6544,4.5883,4.5883,4.5883,4.5847,4.5847,4.5847,4.5663,4.4892,4.4672,4.4469,4.3716,4.3791,4.4013,4.3975,4.428,4.4651,4.4946,4.505,4.4868,4.4367,4.4987,4.4987,4.3333,4.3803,4.3236,4.0089,3.9054,3.8594,3.8555,3.8555,3.8555,3.8476,3.8476,3.8476,3.8437,3.7656,3.7539,3.8398,3.7563,3.7464,3.8247,3.8194,3.7725,3.6862,3.6862,3.6434,3.5609,3.576,3.5353,3.7608,3.9131,4.0659,4.2894,4.3981,4.4843,4.6032,4.6142,4.5903,4.5693,4.6023,4.6222,4.5788,4.7521,4.8928,4.8718,4.9355,4.9622,4.9003,4.8397,4.7077,4.4496,4.4301,4.462,4.543,4.7391,4.9613,5.2098,5.257,5.2942,5.3484,5.3247,5.2841,5.2334,5.257,5.2469,5.1961,5.2469,5.2739,5.2739,5.2198,5.142,5.0473,5.0202,4.9695,4.9018,4.9018,4.8849,4.8646,4.8646,4.8629,4.8498,4.8021,4.8211,4.8635,4.8144,4.833,4.8841,4.9069,4.8416,4.7645,4.8489,4.8196,4.7498,4.7498,4.7131,4.6709,4.6709,4.6324,4.5847,4.5553,4.5516,4.5443,4.5149,4.52,4.5119,4.4603,4.4761,4.487,4.4472,4.4574,4.4759,4.4829,4.5072,4.517,4.4799,4.4136,4.3274,4.2272,4.1425,4.0939,4.0939,4.0471,3.9944,3.9396,3.9411,3.9219,3.8633,3.832,3.8281,3.8594,3.8319,3.8277,3.8512,3.8505,3.8345,3.8072,3.8072,3.7915,3.7603,3.7064,3.6988,4.0324,4.203,4.3477,4.6254,4.7308,4.77,4.7768,4.6956,4.5798,4.4518,4.3831,4.3323,4.2887,4.4107,4.543,4.6185,4.6715,4.7473,4.8707,4.8062,4.6881,4.5142,4.4688,4.4788,4.5375,4.684,4.881,5.132,5.2266,5.2841,5.3078,5.3348,5.3281,5.2739,5.3247,5.3247,5.2739,5.3247,5.3518,5.3484,5.2976,5.2097,5.0879,5.0879,5.0338,4.939,4.939,4.9255,4.9018,4.9018,4.9018,4.8951,4.8477,4.8519,4.8737,4.8252,4.877,4.9681,4.9637,4.9431,4.9297,4.9848,4.9664,4.915,4.8857,4.8416,4.7939,4.7626,4.7352,4.7058,4.6471,4.6544,4.6617,4.603,4.5883,4.5773,4.5259,4.5304,4.5333,4.492,4.4826,4.4934,4.5304,4.519,4.518,4.54,4.4644,4.3988,4.3829,4.3073,4.2559,4.2559,4.2153,4.1482,4.0624,4.0935,4.0795,3.9899,3.986,3.9976,4.0288,3.9704,3.9549,3.9821,3.9549,3.9243,3.8979,3.8979,3.8865,3.8594,3.8047,3.8047,4.2794,4.4728,4.6612,4.9159,5.0307,5.0236,4.8286,4.6734,4.5039,4.2697,4.1306,4.0532,4.0515,4.0362,4.1069,4.3725,4.3229,4.3673,4.6962,4.645,4.5829,4.5934,4.5608,4.5864,4.7252,4.7525,4.8332,5.0071,5.2232,5.3112,5.2401,5.3078,5.3518,5.3518,5.3518,5.3518,5.3518,5.3518,5.3518,5.3518,5.3518,5.3078,5.23,5.23,5.1522,5.0135,5.0135,4.9763,4.912,4.9086,4.9052,4.9052,4.9018,4.8933,4.8819,4.8819,4.9186,4.9739,4.9739,5.0185,5.0802,5.0839,5.0839,5.0655,4.9904,4.9647,4.95,4.8673,4.8967,4.9224,4.77,4.7846,4.8049,4.6471,4.6104,4.6067,4.5993,4.5957,4.6046,4.6331,4.5775,4.5372,4.5758,4.5444,4.5132,4.5154,4.5381,4.5338,4.4639,4.3896,4.3432,4.3432,4.3397,4.3052,4.224,4.2905,4.3061,4.2209,4.217,4.2559,4.3372,4.1824,4.1322,4.2131,4.1322,4.051,3.9837,3.9798,3.9393,3.871,3.8671,3.8671,4.5128,4.7834,5.0105,5.1328,5.079,4.9705,4.8657,4.5437,4.2084,3.9871,3.7965,3.6379,3.5352,3.7903,4.0384,4.1203,4.4525,4.7097,4.7533,4.8535,4.8597,4.7103,4.7305,4.7802,4.8387,4.8955,4.9959,5.1626,5.2266,5.2773,5.3179,5.3382,5.3518,5.3518,5.3518,5.3518,5.3518,5.3518,5.3518,5.3518,5.3518,5.3078,5.23,5.23,5.1792,5.0913,5.0913,5.0811,5.0608,5.0033,4.983,4.9763,4.9221,4.9006,4.8954,4.8954,4.9367,4.9905,4.9905,5.0319,5.0912,5.1499,5.1279,5.0765,5.0545,5.0472,5.0435,5.0215,5.0325,5.0362,4.9958,5.0031,4.9921,4.8913,4.8656,4.8306,4.7039,4.6782,4.6636,4.6138,4.6062,4.6121,4.6215,4.5895,4.5697,4.5974,4.5551,4.5246,4.5291,4.4592,4.4083,4.4083,4.3583,4.3147,4.2959,4.3204,4.3294,4.3061,4.3061,4.3177,4.3372,4.2983,4.2827,4.3061,4.2209,4.1681,4.147,4.0854,4.0435,4.0223,3.9636,3.9675,4.7936,5.0168,5.1792,5.2198,5.1061,4.9227,4.6749,4.3193,3.9507,3.6299,3.4221,3.28,3.2015,3.427,3.6836,3.8836,4.2333,4.5565,4.7855,4.8984,4.947,4.9361,4.9581,4.9988,5.0603,5.1303,5.2285,5.3687,5.3484,5.3382,5.3484,5.3822,5.3822,5.3518,5.3518,5.3518,5.3518,5.3518,5.3518,5.3518,5.3518,5.3281,5.2841,5.2841,5.2401,5.1691,5.1691,5.1522,5.1183,5.0744,5.0574,5.0541,5.0135,4.9763,4.9492,4.9492,4.9676,5.0004,5.0004,5.0622,5.1449,5.1887,5.195,5.1793,5.1426,5.1316,5.1242,5.0912,5.1059,5.1242,5.0875,5.1059,5.1132,5.0325,5.0105,4.9884,4.8911,4.8453,4.7865,4.6654,4.6597,4.6607,4.6254,4.6115,4.6012,4.5857,4.5559,4.5396,4.539,4.5062,4.4855,4.4855,4.45,4.4097,4.3711,4.4111,4.4201,4.3814,4.3775,4.3969,4.4356,4.3659,4.3427,4.3775,4.2968,4.2532,4.2597,4.2092,4.1888,4.1902,4.1081,4.0929,5.0608,5.1826,5.2266,5.2198,5.0811,4.8326,4.386,4.0507,3.7091,3.272,3.0847,2.9936,2.9887,3.0778,3.2861,3.7124,3.9328,4.2484,4.8097,4.8884,4.9681,5.178,5.1902,5.2209,5.3287,5.3956,5.4719,5.5781,5.5243,5.4566,5.3822,5.4397,5.4397,5.3687,5.3754,5.3754,5.3653,5.3754,5.3754,5.3653,5.3653,5.3585,5.3518,5.3518,5.3112,5.2469,5.2469,5.2097,5.1522,5.1388,5.1352,5.1352,5.1251,5.0811,5.0236,5.0236,5.0195,5.0172,5.0172,5.0997,5.2125,5.2114,5.2599,5.3057,5.238,5.216,5.2013,5.1316,5.161,5.1977,5.1316,5.1646,5.194,5.1169,5.0949,5.0949,5.0839,5.0251,4.9334,4.7846,4.759,4.7333,4.6544,4.6535,4.638,4.5642,4.5767,4.5836,4.5452,4.5476,4.5559,4.5586,4.5594,4.5287,4.4547,4.5171,4.5287,4.4509,4.447,4.4816,4.5556,4.4201,4.3778,4.447,4.3662,4.3289,4.3369,4.3253,4.3245,4.3326,4.2588,4.2243,5.1657,5.2198,5.2164,5.1555,4.8917,4.5607,4.2267,3.8268,3.4353,3.1119,2.9794,2.8996,2.8318,3.0865,3.4216,3.7844,4.146,4.5045,4.8687,5.0416,5.1674,5.2679,5.3325,5.4047,5.5127,5.5368,5.5742,5.6562,5.6494,5.6089,5.5378,5.5446,5.5175,5.4431,5.5006,5.504,5.4397,5.5006,5.5006,5.4397,5.4397,5.4093,5.3518,5.3518,5.3416,5.3281,5.3281,5.3213,5.3044,5.2401,5.2131,5.2063,5.1454,5.115,5.1014,5.1014,5.0977,5.1002,5.1002,5.1554,5.2271,5.2147,5.2599,5.3167,5.3041,5.3004,5.2968,5.28,5.2873,5.2968,5.28,5.2894,5.2784,5.1977,5.1793,5.161,5.0949,5.0692,5.0508,5.0215,5.0178,4.9884,4.9096,4.8419,4.7813,4.7326,4.7005,4.687,4.7067,4.5988,4.5283,4.5568,4.5594,4.5556,4.5402,4.5518,4.5556,4.5364,4.5364,4.5441,4.5594,4.5325,4.5248,4.5364,4.4509,4.4102,4.4105,4.345,4.3119,4.315,4.2996,4.2919,5.1995,5.23,5.2029,5.0913,4.7868,4.4045,3.9851,3.6028,3.2395,2.9025,2.8044,2.769,2.73,2.935,3.2242,3.5898,3.8428,4.1943,4.777,4.8341,4.9586,5.3394,5.3851,5.447,5.6115,5.663,5.7002,5.734,5.7374,5.7036,5.6325,5.5919,5.5547,5.5175,5.5547,5.5547,5.5175,5.5547,5.5547,5.5175,5.4769,5.4397,5.4059,5.3687,5.3518,5.3518,5.3518,5.3518,5.3484,5.3078,5.2909,5.2909,5.2536,5.2164,5.1792,5.1792,5.1555,5.1185,5.1185,5.1688,5.2304,5.2212,5.2659,5.3195,5.3195,5.3222,5.3203,5.3203,5.3203,5.3203,5.3203,5.3203,5.3093,5.2711,5.2637,5.2417,5.161,5.1426,5.1316,5.0875,5.0802,5.0692,5.0288,4.9517,4.875,4.8125,4.7465,4.7093,4.7212,4.6569,4.6306,4.6857,4.6547,4.6278,4.6278,4.5864,4.5594,4.5594,4.5594,4.5594,4.5594,4.5594,4.5594,4.5594,4.521,4.4979,4.4979,4.4586,4.4393,4.4393,4.3932,4.3701,5.2097,5.23,5.1894,5.027,4.6955,4.2787,3.7686,3.4121,3.0871,2.7402,2.6691,2.6691,2.6691,2.7911,3.0079,3.3676,3.5298,3.8742,4.6359,4.6651,4.8217,5.3921,5.4538,5.5187,5.6858,5.7543,5.7949,5.8118,5.8118,5.7814,5.707,5.6494,5.6122,5.5953,5.6089,5.6122,5.5953,5.6089,5.6089,5.5953,5.5344,5.4972,5.4803,5.4228,5.389,5.3754,5.3754,5.3653,5.3518,5.3518,5.3518,5.3518,5.3518,5.3112,5.257,5.257,5.2198,5.1691,5.1691,5.2075,5.2536,5.2536,5.2867,5.3239,5.3207,5.3212,5.32,5.3219,5.3203,5.3203,5.3203,5.3203,5.3203,5.3203,5.3203,5.3041,5.238,5.227,5.205,5.1426,5.1316,5.1279,5.1096,5.0508,4.9831,4.8967,4.8345,4.7917,4.7702,4.782,4.8099,4.8488,4.7549,4.6885,4.6885,4.6086,4.5594,4.5594,4.5594,4.5594,4.5594,4.5594,4.5594,4.5594,4.5594,4.5594,4.5594,4.5594,4.5594,4.5594,4.4893,4.4586,5.2097,5.23,5.1792,4.9627,4.5771,4.1305,3.6749,3.2916,2.9634,2.7199,2.6691,2.6691,2.6691,2.7975,2.9983,3.2996,3.5858,3.9606,4.5099,4.8627,5.1595,5.4296,5.6318,5.7563,5.778,5.7848,5.8186,5.8863,5.893,5.8592,5.7814,5.7712,5.7374,5.6731,5.734,5.7374,5.6697,5.734,5.734,5.6697,5.663,5.6258,5.5615,5.5547,5.5141,5.4499,5.4499,5.4126,5.3518,5.3518,5.3518,5.3518,5.3518,5.345,5.3382,5.3382,5.3348,5.3281,5.3281,5.3314,5.3381,5.3381,5.3337,5.3274,5.3239,5.3207,5.3217,5.32,5.3203,5.3203,5.3203,5.3203,5.3203,5.3203,5.3203,5.3167,5.3115,5.3115,5.3057,5.2983,5.2983,5.2747,5.2013,5.183,5.1499,5.0692,5.0786,5.0633,4.9901,5.043,5.0646,4.9995,4.8123,4.6885,4.6885,4.6086,4.5594,4.5594,4.5594,4.5594,4.5594,4.5594,4.5594,4.5594,4.5594,4.5594,4.5594,4.5594,4.5594,4.5594,4.5518,4.5479,5.027,5.098,5.0541,4.8781,4.4959,4.0358,3.5419,3.1765,2.8789,2.6522,2.6048,2.6184,2.6623,2.7216,2.845,3.1021,3.1644,3.4112,4.073,4.2339,4.526,5.1794,5.3541,5.5208,5.7676,5.8287,5.8693,5.8998,5.9032,5.8693,5.7915,5.7881,5.7746,5.7476,5.7746,5.7746,5.7442,5.7746,5.7746,5.7442,5.7002,5.6664,5.6359,5.5919,5.531,5.46,5.46,5.416,5.3518,5.3518,5.3518,5.3518,5.3518,5.3518,5.3518,5.3518,5.3518,5.3518,5.3518,5.3518,5.3518,5.3518,5.3439,5.3418,5.3322,5.3611,5.3881,5.3347,5.3543,5.3812,5.3335,5.3203,5.3203,5.3203,5.3203,5.3203,5.3203,5.3203,5.3203,5.3203,5.3203,5.3093,5.2784,5.2307,5.1867,5.1573,5.1239,5.0953,5.0856,5.1343,5.1502,5.0875,4.9378,4.8394,4.8394,4.7625,4.7086,4.7086,4.7086,4.7086,4.7086,4.7086,4.6894,4.6394,4.6855,4.6624,4.5594,4.6124,4.6124,4.5594,4.5594,4.5594,4.7225,4.8781,4.9086,4.7631,4.3876,3.9309,3.4506,3.0751,2.7757,2.571,2.5439,2.5778,2.6285,2.6725,2.7638,2.9465,2.9397,3.136,3.7787,3.8553,4.13,4.8996,5.0559,5.2547,5.6558,5.8389,5.9235,5.9032,5.9201,5.893,5.7949,5.8287,5.8355,5.7915,5.8084,5.8118,5.7881,5.7881,5.7881,5.7881,5.7374,5.7137,5.7103,5.6596,5.5953,5.5243,5.5243,5.4837,5.416,5.416,5.4025,5.3822,5.3822,5.3687,5.3518,5.3518,5.3518,5.3518,5.3518,5.3518,5.3518,5.3518,5.3518,5.3483,5.3457,5.3934,5.4399,5.4026,5.4323,5.462,5.4069,5.3739,5.3555,5.3555,5.3555,5.3555,5.3555,5.3739,5.3922,5.3922,5.3739,5.3555,5.3555,5.2894,5.2344,5.2344,5.1867,5.1511,5.1491,5.1901,5.2001,5.1543,5.0815,5.0113,4.9462,4.8856,4.8355,4.8125,4.8086,4.8086,4.8086,4.8086,4.7817,4.7278,4.7817,4.7509,4.6355,4.6971,4.6817,4.597,4.597,4.5864,4.2868,4.564,4.7567,4.6109,4.2354,3.8024,3.4269,2.9939,2.6285,2.4812,2.5101,2.5592,2.5592,2.681,2.806,2.8874,3.0838,3.358,3.7381,3.9794,4.2551,4.6389,4.8154,5.0493,5.4261,5.7949,5.981,5.9066,5.9674,5.9438,5.7983,5.9268,5.9404,5.7949,5.8626,5.866,5.7881,5.7881,5.7881,5.7881,5.7881,5.7881,5.7881,5.7881,5.7476,5.6799,5.6799,5.6359,5.5647,5.5647,5.5243,5.4566,5.4566,5.4126,5.3518,5.3518,5.3518,5.3518,5.3518,5.3518,5.3518,5.3518,5.3518,5.3518,5.3484,5.3963,5.466,5.5358,5.5574,5.5574,5.5596,5.4987,5.4399,5.4399,5.4399,5.4399,5.4399,5.4987,5.5596,5.5596,5.4913,5.4399,5.4399,5.3739,5.3188,5.3188,5.3167,5.2894,5.2107,5.2287,5.2353,5.2039,5.2327,5.1708,4.9567,4.9394,4.9009,4.8163,4.8086,4.8086,4.8086,4.8086,4.8086,4.8086,4.8086,4.8086,4.8086,4.8086,4.7663,4.6885,4.6885,4.6432,3.7188,3.8777,3.9251,3.8294,3.5825,3.2814,2.9567,2.6945,2.4914,2.3966,2.3917,2.4391,2.539,2.5964,2.7232,3.004,3.1089,3.2669,3.5898,3.9131,4.2585,4.6291,5.2134,5.6715,5.8961,5.9742,6.0216,6.0554,6.0283,5.9911,5.9438,6.0351,5.9979,5.7949,5.8626,5.866,5.7881,5.7881,5.7881,5.7881,5.7881,5.7881,5.7881,5.7881,5.7476,5.6799,5.6799,5.6393,5.5681,5.5681,5.5277,5.46,5.46,5.416,5.3518,5.3518,5.3518,5.3518,5.3518,5.3518,5.3518,5.3518,5.3518,5.3584,5.4106,5.4734,5.547,5.6197,5.6014,5.5596,5.5596,5.539,5.5207,5.5207,5.5207,5.5207,5.5207,5.5427,5.5596,5.5596,5.539,5.5207,5.5207,5.4546,5.4032,5.4032,5.3555,5.3115,5.2858,5.3442,5.3607,5.2906,5.3963,5.3991,5.2154,5.201,5.1625,5.0731,5.0692,5.0471,4.9894,4.9894,4.9586,4.9009,4.9586,4.9279,4.8086,4.8702,4.8548,4.7702,4.7154,4.674,3.2036,3.3728,3.4235,3.3761,3.2022,2.9754,2.7266,2.5354,2.3966,2.3477,2.3613,2.4188,2.5372,2.5845,2.686,2.9499,3.0412,3.1928,3.5157,3.8337,4.2144,4.6974,5.3847,5.866,5.9911,6.0351,6.0757,6.1264,6.0554,6.0114,6.0114,6.0588,6.008,5.8355,5.9032,5.893,5.7915,5.7881,5.7881,5.7881,5.7881,5.7881,5.7881,5.7881,5.7645,5.7205,5.7205,5.6934,0.0,5.6528,5.6089,5.5412,5.5108,5.4566,5.389,5.3619,5.3518,5.3518,5.3518,5.3518,5.3518,5.3518,5.3518,5.3651,5.4391,5.532,5.6313,5.7034,5.6895,5.6492,5.6492,5.6271,5.6051,5.6051,5.6051,5.6051,5.6051,5.6271,5.6492,5.6492,5.6271,5.6051,5.6051,5.539,5.484,5.484,5.4436,5.3995,5.3702,5.4145,5.4251,5.3757,5.4628,5.4953,5.422,5.3857,5.3318,5.2462,5.2385,5.2164,5.1664,5.1625,5.1395,5.0856,5.1356,5.0933,4.9538,4.9433,4.9125,4.8586,4.774,4.7355,0.0,3.0025,3.1582,3.1582,3.0025,2.8163,2.6691,2.4797,0.0,2.3376,2.3932,2.4711,2.5609,2.6252,2.6978,2.8027,2.9428,3.1598,3.5161,3.7941,4.2067,4.8696,5.4016,5.7374,5.7983,6.008,6.1366,6.1298,6.0622,6.0148,6.0114,6.0114,5.9776,5.9032,5.9674,5.9336,5.7915,5.7881,5.7881,5.7881,5.7881,5.7881,5.7881,5.7881,5.7881,5.7881,5.7881,5.7881,5.7881,5.7881,5.7476,5.6731,5.6055,5.5344,5.4566,5.3856,5.3585,5.3585,5.3518,5.3518,5.3518,5.3518,5.3518,5.3651,5.4419,5.5702,5.6964,5.7726,5.7973,5.7997,5.7997,5.7446,5.6895,5.6895,5.6895,5.6895,5.6895,5.7483,5.7997,5.7997,5.7409,5.6895,5.6895,5.6198,5.5684,5.5684,5.5647,5.5317,5.4583,5.4516,5.4542,5.4602,5.4673,5.4985,5.5665,5.5038,5.4203,5.3356,5.328,5.328,5.3203,5.3203,5.3203,5.3203,5.3203,5.2818,5.2,5.0356,4.9586,4.9548,4.8625,4.8202,2.3579,0.0,2.4661,2.4661,2.4255,2.3782,0.0,2.2922,2.2733,2.3274,2.3545,2.4391,2.6843,2.6582,2.7323,3.1415,3.2457,3.3594,3.5952,4.2164,4.8356,5.3512,5.7738,6.008,5.9641,6.1129,6.1907,6.1332,6.1129,6.0757,6.0148,6.0114,5.9776,5.9032,5.9167,5.8829,5.7915,5.7881,5.7881,5.7881,5.7881,5.7881,5.7881,5.7881,5.7881,5.7881,5.7881,5.7881,5.7881,5.7881,5.7476,5.6799,5.663,5.6089,5.5344,5.46,5.4329,5.4262,5.3687,5.3518,5.3518,5.3518,5.3518,5.375,5.5059,5.5695,5.6177,5.6964,5.7546,5.7997,5.7997,5.785,5.7703,5.7703,5.7703,5.7703,5.7703,5.7886,5.7997,5.7997,5.785,5.7703,5.7703,5.7042,5.6528,5.6528,5.5978,5.5537,5.5317,5.5607,5.5783,5.5809,5.6436,5.6664,5.6192,5.5723,5.5049,5.4241,5.4203,5.3895,5.3241,5.3203,5.3203,5.3203,5.3203,5.3087,5.2895,5.1808,5.1308,5.1269,4.9779,4.9086,2.2335,2.2564,2.2801,2.2801,2.2801,2.2801,2.2801,2.255,2.2632,2.3695,2.3898,2.4695,2.7317,2.7794,2.8791,3.1894,3.3895,3.6232,3.9628,4.5341,5.0788,5.5071,5.8227,6.0225,6.0617,6.14,6.1569,6.0825,6.0452,6.0216,6.0114,5.9471,5.9066,5.9032,5.8693,5.8287,5.7881,5.7881,5.7881,5.7881,5.7881,5.7881,5.7881,5.7881,5.7881,5.7881,5.7881,5.7881,5.7881,5.7881,5.7645,5.7273,5.6934,5.6359,5.5615,5.4871,5.4397,5.4025,5.3653,5.3518,5.3518,5.3518,5.3518,5.3651,5.4454,5.5144,5.5948,5.7091,5.7703,5.7997,5.7997,5.7997,5.7997,5.7997,5.7997,5.7997,5.7997,5.7997,5.7997,5.7997,5.7997,5.7997,5.7997,5.7629,5.7336,5.7336,5.6969,5.6565,5.6198,5.635,5.6381,5.6214,5.6644,5.6846,5.6618,5.6572,5.6122,5.5115,5.5049,5.4857,5.4357,5.4357,5.4357,5.4357,5.3972,5.3818,5.378,5.2933,5.25,5.2462,5.1587,5.1125,2.277,2.3429,2.3951,2.3376,2.3477,2.368,2.3444,2.3004,2.3038,2.4406,2.4745,2.5591,2.8027,2.9465,3.0717,3.2151,3.5431,3.9562,4.4658,4.8199,5.1534,5.5032,5.7459,5.9331,6.0646,6.0994,6.0791,5.9979,5.9471,5.9336,5.9742,5.8693,5.8254,5.866,5.8152,5.7848,5.7712,5.7814,5.7881,5.7881,5.7881,5.7881,5.7881,5.7881,5.7881,5.7881,5.7881,5.7881,5.7881,5.7881,5.7881,5.7814,5.7205,5.6528,5.5784,5.504,5.4296,5.3653,5.3551,5.3518,5.3518,5.3518,5.3518,5.3517,5.3651,5.4544,5.5865,5.7389,5.7927,5.7997,5.7997,5.7997,5.7997,5.7997,5.7997,5.7997,5.7997,5.7997,5.7997,5.7997,5.7997,5.7997,5.7997,5.7997,5.7997,5.7997,5.7997,5.774,5.7079,5.6969,5.6853,5.652,5.6529,5.6706,5.7062,5.7514,5.7301,5.6181,5.6088,5.6049,5.5895,5.578,5.5703,5.5703,5.5011,5.4664,5.4664,5.3818,5.3395,5.3395,5.328,5.3203,2.4609,2.61,2.637,2.326,2.3883,2.4932,2.368,2.3797,2.4406,2.527,2.5913,2.7453,3.0973,3.1298,3.2503,3.708,4.0314,4.4142,4.9377,5.166,5.3485,5.5434,5.8133,5.949,5.8524,5.9539,5.9979,5.9235,5.9641,5.9438,5.8287,5.8626,5.8321,5.7171,5.7611,5.7577,5.6968,5.7577,5.7881,5.7881,5.7881,5.7881,5.7881,5.7881,5.7881,5.7881,5.7881,5.7881,5.7881,5.7881,5.7881,5.7881,5.778,5.7273,5.6562,5.5818,5.5074,5.4329,5.3721,5.3518,5.3518,5.3518,5.3518,5.3618,5.4232,5.4606,5.5089,5.6642,5.7498,5.7997,5.7997,5.7997,5.7997,5.7997,5.7997,5.7997,5.7997,5.7997,5.7997,5.7997,5.7997,5.7997,5.7997,5.7997,5.7997,5.7997,5.7997,5.796,5.7813,5.7813,5.7762,5.7743,5.809,5.8201,5.7962,5.8365,5.841,5.7912,5.7896,5.7588,5.683,5.6088,5.5703,5.5703,5.5588,5.5511,5.5511,5.4703,5.428,5.428,5.3549,5.3203,2.3589,2.5457,2.6793,2.5101,2.6962,2.8924,2.7841,2.7893,2.8333,2.9077,2.9484,3.0499,3.3038,3.4541,3.7059,4.209,4.4401,4.6618,4.9739,5.1526,5.3301,5.5302,5.7043,5.8203,5.8487,5.9099,5.9201,5.8457,5.8355,5.8186,5.7915,5.7848,5.7509,5.6833,5.7509,5.734,5.6224,5.734,5.7881,5.7881,5.7881,5.7881,5.7881,5.7881,5.7881,5.7881,5.7881,5.7881,5.7881,5.7881,5.7881,5.7881,5.7881,5.7205,5.6089,5.4938,5.4296,5.3957,5.3619,5.3518,5.3518,5.3518,5.3518,5.3551,5.3913,5.4296,5.4726,5.5472,5.6474,5.7498,5.7904,5.7997,5.7997,5.7997,5.7997,5.7997,5.7997,5.7997,5.7997,5.7997,5.7997,5.7997,5.7997,5.7997,5.7997,5.7997,5.7997,5.7997,5.7997,5.7997,5.7997,5.7997,5.8172,5.8249,5.8033,5.8465,5.8606,5.8312,5.8319,5.8127,5.7703,5.7319,5.6896,5.6406,5.6406,5.6175,5.5703,5.5318,5.5164,5.5126,5.4741,5.4549,2.3008,2.4887,2.6909,2.7384,2.9551,3.1616,3.1901,3.1698,3.1887,3.3309,3.3613,3.3955,3.5082,3.8017,4.1461,4.5082,4.734,4.9052,5.0246,5.1798,5.3573,5.5746,5.644,5.7239,5.8383,5.866,5.8355,5.7442,5.7036,5.6968,5.734,5.6867,5.6461,5.6292,5.7002,5.6765,5.548,5.6731,5.7476,5.7645,5.7814,5.7881,5.7881,5.7881,5.7814,5.7645,5.7645,5.7645,5.7645,5.7645,5.7746,5.7881,5.7881,5.7002,5.5547,5.4059,5.3518,5.3518,5.3518,5.3518,5.3518,5.3518,5.3518,5.3518,5.3518,5.3881,5.4388,5.4757,5.5695,5.6773,5.7546,5.799,5.829,5.829,5.8437,5.8547,5.8547,5.8547,5.851,5.8327,5.829,5.8217,5.8033,5.7997,5.7997,5.7997,5.7997,5.7997,5.7997,5.7997,5.7997,5.7997,5.7997,5.8029,5.8164,5.8591,5.8826,5.8731,5.8619,5.8588,5.8588,5.8396,5.7973,5.733,5.7099,5.6791,5.6319,5.5895,5.578,5.6011,5.578,5.5703,2.4797,2.6199,2.7499,2.9387,2.9533,3.0127,3.3491,3.3207,3.3241,3.6772,3.7516,3.7528,3.7555,4.1158,4.4098,4.4063,4.8486,5.2404,5.3573,5.4701,5.5982,5.7538,5.7775,5.7572,5.7036,5.7577,5.7374,5.5987,5.6461,5.6528,5.5919,5.5818,5.548,5.4769,5.548,5.548,5.4668,5.548,5.6224,5.69,5.7577,5.7881,5.7881,5.7881,5.7509,5.6867,5.6867,5.6867,5.6867,5.6867,5.7273,5.7881,5.7881,5.7002,5.5547,5.4059,5.3518,5.3518,5.3518,5.3518,5.3518,5.3518,5.3518,5.3518,5.3518,5.3517,5.3848,5.5232,5.5724,5.5976,5.6773,5.8057,5.9111,5.9111,5.9685,6.0236,6.0236,6.0236,6.0015,5.9258,5.9111,5.8854,5.8143,5.7997,5.7997,5.7997,5.7997,5.7997,5.7997,5.7997,5.7997,5.7997,5.7997,5.8186,5.8611,5.9065,5.9521,5.9927,5.9613,5.9396,5.9396,5.8704,5.828,5.8204,5.7396,5.7357,5.8127,5.6472,5.6126,5.6907,5.6088,5.5703,2.3327,2.5849,2.8587,2.98,3.059,3.2217,3.6365,3.7476,3.8295,4.0724,4.1891,4.2336,4.2055,4.2654,4.3876,4.5714,4.8925,5.1868,5.3762,5.501,5.5919,5.6461,5.6528,5.6427,5.6156,5.6393,5.6325,5.575,5.5547,5.5513,5.5716,5.5277,5.4871,5.46,5.5344,5.5141,5.3923,5.5108,5.5615,5.5446,5.619,5.6528,5.6528,5.6528,5.663,5.6765,5.6325,5.663,5.7408,5.6494,5.6562,5.7103,5.619,5.5513,5.4905,5.389,5.3518,5.3518,5.3518,5.3518,5.3518,5.3518,5.3518,5.3518,5.3518,5.3518,5.3618,5.4171,5.4999,5.6004,5.7266,5.8396,5.9184,5.9184,5.9832,6.0419,6.0419,6.0419,6.0309,6.0015,5.9942,5.9869,5.9538,5.9501,5.9501,5.9501,5.9501,5.9501,5.9501,5.9501,5.9501,5.9501,5.9501,5.9375,5.905,5.97,6.0234,6.0404,6.0065,5.9997,6.0308,6.0012,5.9588,5.905,5.8704,5.8473,5.8319,5.7627,5.7473,5.778,5.7473,5.7319,2.2665,2.5309,2.8321,2.9462,3.126,3.411,3.9211,4.0249,4.1046,4.4317,4.5004,4.4939,4.4863,4.4106,4.4253,4.6589,4.9487,5.195,5.3461,5.4675,5.5446,5.5683,5.5681,5.5615,5.5378,5.5581,5.5478,5.504,5.4735,5.4702,5.5006,5.4532,5.4262,5.4262,5.4735,5.4532,5.3518,5.4499,5.4769,5.4262,5.4769,5.5277,5.5681,5.5681,5.5852,5.6089,5.5581,5.5919,5.6765,5.5784,5.5784,5.6325,5.5074,5.46,5.4499,5.3788,5.3518,5.3518,5.3518,5.3518,5.3518,5.3518,5.3653,5.3856,5.3856,5.4025,5.4228,5.4498,5.549,5.6751,5.8053,5.8968,5.9588,5.9588,6.0382,6.1153,6.1153,6.1153,6.108,6.0823,6.0786,6.0713,6.0456,6.0419,6.0419,6.0419,6.0419,6.0419,6.0419,6.0419,6.0419,6.0419,6.0419,6.0089,5.9258,5.9942,6.0322,6.0222,6.0143,6.0311,6.0769,6.0781,6.0512,5.9935,5.9627,5.9358,5.9088,5.855,5.8434,5.8665,5.8434,5.8319,2.341,2.4679,2.6501,2.8511,3.1276,3.5285,4.1896,4.0939,4.0538,4.7341,4.6451,4.4762,4.5489,4.5621,4.5765,4.626,5.0353,5.3345,5.306,5.3941,5.4871,5.5615,5.5647,5.5412,5.4668,5.5243,5.5074,5.3619,5.416,5.4262,5.3551,5.3518,5.3518,5.3518,5.3518,5.3518,5.3518,5.3518,5.3518,5.3518,5.3518,5.4262,5.5647,5.5647,5.5277,5.46,5.4566,5.46,5.46,5.46,5.504,5.5615,5.4871,5.4566,5.4499,5.3788,5.3518,5.3518,5.3518,5.3518,5.3518,5.3518,5.3991,5.4566,5.46,5.5108,5.5857,5.66,5.7429,5.8272,5.9006,5.979,6.0419,6.0419,6.163,6.278,6.278,6.278,6.2585,6.1777,6.1594,6.1374,6.0566,6.0419,6.0419,6.0419,6.0419,6.0419,6.0419,6.0419,6.0419,6.0419,6.0419,6.0126,5.9294,5.9656,5.9771,5.943,5.9839,6.0311,6.0769,6.0781,6.0781,6.0781,5.9935,5.9935,6.0781,5.9127,5.8742,5.9473,5.8704,5.8319,2.3227,2.5142,2.7542,2.9831,3.3624,3.7911,4.2158,4.1786,4.2103,4.7387,4.7054,4.6287,4.7737,4.737,4.7162,4.8061,5.0152,5.2059,5.3208,5.3618,5.3923,5.4126,5.416,5.4059,5.3856,5.4025,5.3991,5.3551,5.3687,5.3721,5.3518,5.3518,5.3518,5.3518,5.3518,5.3518,5.3518,5.3518,5.3518,5.3518,5.3518,5.3754,5.416,5.416,5.4329,5.4566,5.4059,5.4431,5.5344,5.4803,5.4431,5.4126,5.3923,5.3822,5.3788,5.3585,5.3518,5.3518,5.3518,5.3518,5.3518,5.3518,5.3653,5.3923,5.4431,5.4735,5.5109,5.5825,5.7022,5.8155,5.8359,5.9815,6.1227,6.1227,6.2034,6.278,6.278,6.278,6.2732,6.2511,6.2438,6.2365,6.2144,6.2108,6.2108,6.2108,6.2108,6.2108,6.2108,6.2108,6.1887,6.13,6.1741,6.1777,6.097,6.0804,6.0835,6.1053,6.0469,6.0311,6.0769,6.0781,6.0781,6.0781,6.055,6.055,6.0781,6.0281,6.0165,6.0396,6.0165,6.005,2.4389,2.6662,2.9414,3.2854,3.6731,4.0572,4.3971,4.4979,4.6032,4.9155,4.8456,4.789,4.9926,4.8987,4.8413,5.0059,5.1227,5.23,5.3349,5.3213,5.3145,5.345,5.3213,5.3145,5.3484,5.3518,5.3518,5.3518,5.3518,5.3518,5.3518,5.3518,5.3518,5.3518,5.3518,5.3518,5.3518,5.3518,5.3518,5.3518,5.3518,5.3518,5.3518,5.3518,5.3754,5.4126,5.3687,5.4025,5.4803,5.4363,5.389,5.3518,5.3518,5.3518,5.3518,5.3518,5.3518,5.3518,5.3518,5.3518,5.3518,5.3518,5.3687,5.4025,5.4465,5.5006,5.5581,5.6021,5.7289,5.8589,5.8926,6.03,6.1598,6.1618,6.2218,6.278,6.278,6.278,6.278,6.278,6.278,6.278,6.278,6.278,6.278,6.278,6.278,6.278,6.278,6.278,6.2622,6.2144,6.2511,6.2475,6.1667,6.1581,6.1575,6.1503,6.1245,6.1082,6.098,6.0863,6.0781,6.0781,6.0781,6.0781,6.0781,6.0781,6.0781,6.0781,6.0781,6.0781,2.6186,2.8457,3.1298,3.6378,3.9985,4.3193,4.6784,4.9292,5.097,5.1559,5.0276,4.9725,5.1966,5.0593,4.9758,5.1965,5.2909,5.3382,5.3315,5.2672,5.2469,5.3213,5.2638,5.2503,5.3213,5.3281,5.3281,5.3281,5.3348,5.3382,5.3281,5.3416,5.3484,5.3382,5.345,5.3518,5.3518,5.3518,5.3518,5.3518,5.3518,5.3518,5.3518,5.3518,5.3518,5.3518,5.3518,5.3518,5.3518,5.3518,5.3518,5.3518,5.3518,5.3518,5.3518,5.3518,5.3518,5.3518,5.3518,5.3518,5.3518,5.3518,5.3957,5.4499,5.4668,5.5649,5.6731,5.6867,5.7946,5.9278,6.0086,6.0938,6.1589,6.159,6.2205,6.278,6.278,6.278,6.278,6.278,6.278,6.278,6.278,6.278,6.278,6.278,6.278,6.278,6.278,6.278,6.278,6.278,6.278,6.2511,6.1777,6.2017,6.1921,6.1241,6.1989,6.217,6.1469,6.1096,6.0858,6.0781,6.0781,6.0781,6.0781,6.0781,6.0781,6.0781,6.0781,6.0781,2.5285,2.682,2.8879,3.5045,4.0438,4.5175,4.8539,4.9678,5.008,5.0314,5.1461,5.2606,5.3146,5.2809,5.2404,5.2334,5.2435,5.2367,5.1792,5.1555,5.1522,5.1658,5.1555,5.1522,5.1691,5.1691,5.1691,5.1691,5.2232,5.23,5.1758,5.2841,5.3213,5.257,5.3179,5.3518,5.3518,5.3518,5.3518,5.3518,5.3518,5.3518,5.3518,5.3518,5.3518,5.3518,5.3518,5.3518,5.3518,5.3518,5.3518,5.3518,5.3518,5.3518,5.3518,5.3518,5.3518,5.3518,5.3518,5.3518,5.3518,5.3518,5.3619,5.3957,5.5108,5.5683,5.619,5.734,5.8356,5.9144,5.9344,6.0484,6.1623,6.158,6.224,6.278,6.278,6.278,6.278,6.278,6.278,6.278,6.278,6.278,6.278,6.278,6.278,6.278,6.278,6.278,6.278,6.278,6.278,6.2732,6.2585,6.2046,6.1851,6.2039,6.1657,6.1694,6.2292,6.1978,6.1512,6.0819,6.0781,6.0781,6.0781,6.0781,6.0781,6.0781,6.0781,6.0781,2.5486,2.7296,2.9925,3.7591,4.2522,4.6271,4.9143,4.9433,4.933,5.0326,5.1128,5.1832,5.2302,5.2001,5.1698,5.1761,5.1792,5.1657,5.1219,5.0913,5.0811,5.1183,5.0913,5.0811,5.1183,5.1185,5.1185,5.1185,5.1555,5.1623,5.1219,5.1961,5.2232,5.1792,5.2536,5.2942,5.2942,5.3315,5.3518,5.3518,5.3518,5.3518,5.3518,5.3518,5.3518,5.3518,5.3518,5.3518,5.3518,5.3518,5.3518,5.3518,5.3518,5.3518,5.3518,5.3518,5.3518,5.3518,5.3518,5.3518,5.3518,5.3518,5.3754,5.416,5.4938,5.5683,5.6393,5.7171,5.8219,5.9211,5.9606,6.0635,6.1687,6.2076,6.249,6.278,6.278,6.278,6.278,6.278,6.278,6.278,6.278,6.278,6.278,6.278,6.278,6.278,6.278,6.278,6.278,6.278,6.278,6.278,6.278,6.2438,6.2267,6.2503,6.2391,6.2334,6.2447,6.2757,6.2618,6.2012,6.1627,6.1396,6.1396,6.1012,6.0781,6.0781,6.0781,6.1012,2.5623,2.8484,3.2235,4.004,4.359,4.584,4.825,4.8052,4.7942,5.0188,5.0159,5.002,5.0989,5.0527,5.0191,5.0919,5.1014,5.098,5.0813,5.0304,5.0135,5.0777,5.027,5.0135,5.0777,5.0813,5.0813,5.0813,5.0947,5.098,5.0845,5.105,5.115,5.1014,5.1725,5.2131,5.2131,5.2773,5.3112,5.3112,5.3247,5.3382,5.3518,5.3518,5.3518,5.3518,5.3518,5.3518,5.3518,5.3518,5.3518,5.3518,5.3518,5.3518,5.3518,5.3518,5.3518,5.3518,5.3518,5.3518,5.3518,5.3518,5.3991,5.46,5.4735,5.5716,5.6833,5.6934,5.7909,5.9077,5.996,6.079,6.1604,6.2376,6.2705,6.278,6.278,6.278,6.278,6.278,6.278,6.278,6.278,6.289,6.3025,6.3025,6.3135,6.322,6.322,6.322,6.322,6.322,6.322,6.322,6.322,6.3099,6.3025,6.3025,6.3289,6.3208,6.2694,6.3477,6.3832,6.3731,6.2666,6.2178,6.2293,6.1281,6.0858,6.1012,6.1012,6.1408,2.3997,2.8769,3.3698,3.663,3.9294,4.1826,4.4307,4.4186,4.4449,4.768,4.9125,5.0089,5.1021,5.1088,5.0819,5.0338,5.0236,4.9999,4.939,4.9221,4.9187,4.9289,4.9221,4.9187,4.9289,4.9289,4.9289,4.9289,4.9898,4.9965,4.9323,5.0507,5.0913,5.027,5.098,5.1352,5.1352,5.1454,5.1522,5.1489,5.2164,5.2841,5.3518,5.3518,5.3518,5.3518,5.3518,5.3518,5.3518,5.3518,5.3518,5.3518,5.3518,5.3518,5.3518,5.3518,5.3518,5.3518,5.3518,5.3518,5.3518,5.3518,5.3991,5.4702,5.5378,5.6156,5.6934,5.7577,5.7889,5.8246,5.9044,5.9928,6.076,6.1576,6.2298,6.278,6.278,6.278,6.278,6.278,6.278,6.278,6.278,6.3429,6.3906,6.3906,6.453,6.4971,6.4971,6.4971,6.4971,6.4971,6.4971,6.4971,6.4971,6.4347,6.3906,6.3906,6.3284,6.328,6.4086,6.4256,6.4693,6.5538,6.3294,6.2435,6.3128,6.155,6.1166,6.1947,6.1947,6.1985,2.4162,2.7941,3.1849,3.4656,3.691,3.9318,4.2742,4.3218,4.3644,4.6044,4.6973,4.7736,4.9099,4.9018,4.8646,4.8308,4.824,4.8274,4.8376,4.8376,4.8545,4.8951,4.9018,4.9018,4.9018,4.9018,4.9018,4.9018,4.9289,4.9357,4.9018,4.9627,4.983,4.9492,5.0202,5.0574,5.0574,5.1014,5.1185,5.1185,5.1555,5.1894,5.2232,5.2232,5.2706,5.3518,5.3518,5.3518,5.3518,5.3518,5.3518,5.3518,5.3518,5.3518,5.3518,5.3518,5.3518,5.3518,5.3518,5.3518,5.3518,5.3518,5.4296,5.5277,5.5615,5.6494,5.7476,5.7814,5.821,5.8668,5.901,6.0082,6.1142,6.152,6.2219,6.278,6.278,6.278,6.278,6.278,6.3209,6.3539,6.3539,6.4237,6.4787,6.4787,6.5081,6.5301,6.5301,6.5301,6.5301,6.5301,6.5301,6.5118,6.4677,6.431,6.387,6.3392,6.3025,6.3014,6.3461,6.4059,6.4628,6.5057,6.4049,6.3666,6.4051,6.282,6.2397,6.2781,6.2781,6.3012,2.4489,2.6932,2.9459,3.2385,3.4687,3.7142,4.064,4.1566,4.2238,4.4253,4.4163,4.4324,4.638,4.6786,4.6786,4.6786,4.6786,4.6989,4.7564,4.7631,4.7834,4.8376,4.8443,4.8443,4.8443,4.8612,4.8646,4.8443,4.8612,4.8714,4.8714,4.8545,4.8545,4.8714,4.9255,4.9526,4.9526,5.027,5.0744,5.0913,5.0913,5.1014,5.1185,5.1185,5.1826,5.2942,5.2942,5.3145,5.3484,5.3281,5.3315,5.3518,5.3518,5.3518,5.3518,5.3518,5.3518,5.3518,5.3518,5.3518,5.3518,5.3518,5.4363,5.548,5.5649,5.6596,5.7645,5.7848,5.8317,5.884,5.9044,6.0207,6.1343,6.1576,6.2219,6.278,6.278,6.2989,6.3135,6.3135,6.3833,6.4383,6.4383,6.5081,6.5595,6.5595,6.5778,6.5925,6.5925,6.5925,6.5925,6.5925,6.5925,6.5595,6.4787,6.453,6.4127,6.3503,6.3246,6.3284,6.3579,6.4512,6.4973,6.4895,6.5111,6.5128,6.4936,6.382,6.3423,6.3628,6.3628,6.3974,2.4408,2.6038,2.7646,2.9025,3.1937,3.4872,3.6476,3.7338,3.8686,4.1802,4.0634,4.0007,4.3082,4.5365,4.6786,4.6786,4.6786,4.6819,4.6853,4.6853,4.6853,4.6921,4.6921,4.6921,4.6921,4.7564,4.7665,4.6955,4.7564,4.7939,4.7939,4.7293,4.7225,4.7939,4.7973,4.8007,4.8007,4.8748,4.9458,5.0135,5.0135,5.0507,5.1185,5.1185,5.1251,5.132,5.132,5.2164,5.345,5.2672,5.2807,5.3518,5.3518,5.3518,5.3518,5.3518,5.3518,5.3518,5.3518,5.3518,5.3518,5.3518,5.4025,5.4769,5.5513,5.6258,5.7002,5.7679,5.7918,5.8137,5.8909,5.9768,6.064,6.1436,6.2219,6.278,6.278,6.3466,6.4016,6.4016,6.4677,6.5264,6.5264,6.5888,6.6439,6.6439,6.71,6.7577,6.7577,6.7577,6.7577,6.7577,6.7577,6.7247,6.6439,6.5668,6.5228,6.5191,6.4457,6.4549,6.5775,6.637,6.654,6.62,6.6696,6.659,6.582,6.4128,6.3743,6.4551,6.4551,6.4551,2.4628,2.5601,2.6639,2.753,2.9062,3.0919,3.325,3.5104,3.6846,3.8909,3.9874,4.0621,4.1692,4.2603,4.3504,4.4468,4.4215,4.4418,4.5872,4.5669,4.5766,4.6684,4.6786,4.6786,4.6786,4.7022,4.709,4.6819,4.7056,4.7192,4.7192,4.6921,4.6921,4.7192,4.7192,4.7428,4.7906,4.8173,4.868,4.939,4.939,4.9526,4.9796,4.9796,5.0067,5.0473,4.9999,5.0913,5.2706,5.2435,5.2773,5.3518,5.3518,5.3518,5.3518,5.3518,5.3518,5.3518,5.3518,5.3518,5.3518,5.3518,5.4329,5.5378,5.5649,5.6562,5.7543,5.7814,5.7881,5.7954,5.8246,5.9379,6.073,6.2049,6.2592,6.278,6.278,6.3466,6.4237,6.4787,6.5521,6.6072,6.6072,6.6733,6.7247,6.7247,6.7504,6.7687,6.7687,6.7687,6.7687,6.7687,6.7687,6.7357,6.6549,6.6256,6.5852,6.5338,6.5044,6.5073,6.5521,6.6029,6.6391,6.6615,6.7158,6.6921,6.5897,6.5282,6.5128,6.5436,6.5436,6.5705,2.533,2.5827,2.6336,2.6789,2.7652,2.8818,3.0402,3.2521,3.4414,3.5653,3.7298,3.8764,3.9468,3.9836,4.0702,4.2719,4.2625,4.2828,4.435,4.435,4.4553,4.5534,4.5906,4.6041,4.6041,4.6278,4.6312,4.6075,4.6278,4.6413,4.6413,4.6177,4.6177,4.6413,4.6413,4.6786,4.753,4.78,4.8173,4.8646,4.8883,4.9018,4.9018,4.9018,4.9255,4.9695,4.9221,5.0135,5.1928,5.1657,5.2029,5.2773,5.301,5.3112,5.3145,5.3416,5.3518,5.3518,5.3518,5.3518,5.3518,5.3518,5.4329,5.5378,5.5649,5.6562,5.7577,5.7814,5.7881,5.7954,5.821,5.9541,6.1214,6.2855,6.3246,6.3392,6.3943,6.4273,6.464,6.5191,6.6182,6.688,6.688,6.7357,6.7687,6.7687,6.7687,6.7687,6.7687,6.7687,6.7687,6.7687,6.7687,6.7357,6.6549,6.6512,6.6256,6.5742,6.5705,6.5815,6.6109,6.6592,6.6955,6.718,6.7704,6.7577,6.6744,6.6744,6.6744,6.6744,6.6744,6.7013,0.0,0.0,0.0,2.6657,2.7791,2.8691,2.7919,2.9454,3.1254,3.2052,3.2781,3.3975,3.6303,3.7261,3.8685,4.1639,4.2185,4.2252,4.2286,4.2895,4.3341,4.3341,4.4045,4.4547,4.4547,4.5196,4.5331,4.4615,4.5229,4.5635,4.5669,4.4993,4.4919,4.5602,4.5669,4.6007,4.6752,4.7496,4.7838,4.7906,4.8646,4.8984,4.9018,4.9018,4.9018,4.9018,4.9018,4.983,5.105,5.0371,5.0541,5.1252,5.2029,5.23,5.2401,5.3213,5.3518,5.3518,5.3518,5.3518,5.3518,5.3518,5.4025,5.4769,5.548,5.6258,5.6968,5.7679,5.7881,5.8101,5.8943,6.0397,6.2023,6.3716,6.4127,6.4567,6.6109,6.5888,6.5338,6.5375,6.6659,6.7724,6.7687,6.7724,6.7724,6.7687,6.7687,6.7687,6.7687,6.7687,6.7687,6.7687,6.7687,6.7357,6.6586,6.6549,6.6549,6.6549,6.6549,6.688,6.765,6.8185,6.8317,6.8047,6.8539,6.8686,6.8475,6.8436,6.8385,6.8385,6.8436,6.8423,2.6924,0.0,0.0,0.0,0.0,0.0,2.6285,2.7505,2.9097,3.0422,3.1704,3.3094,3.4812,3.5296,3.6057,3.8,3.9673,4.1094,4.2151,4.2016,4.2016,4.2523,4.2794,4.2956,4.2956,4.3606,4.395,4.3775,4.3916,4.4282,4.4857,4.4716,4.4418,4.4045,4.4587,4.5263,4.6007,4.621,4.6824,4.7906,4.8139,4.8477,4.9018,4.9018,4.9018,4.9018,4.9018,4.9221,4.9627,4.9965,5.0541,5.1252,5.2029,5.23,5.2401,5.3213,5.3518,5.3518,5.3518,5.3518,5.3518,5.3518,5.4363,5.5446,5.5649,5.6596,5.7645,5.7814,5.7881,5.8346,6.0369,6.1242,6.2188,6.4427,6.4971,6.5081,6.5558,6.5925,6.6329,6.6916,6.7871,6.8385,6.7797,6.8164,6.8385,6.7797,6.7687,6.7687,6.7687,6.7687,6.7687,6.7687,6.7687,6.7614,6.7393,6.7357,6.7357,6.7357,6.7357,6.7467,6.7687,6.7836,6.8233,6.8953,6.9112,6.9517,7.0206,6.9013,6.8385,6.8436,6.9052,6.936,2.7527,2.7257,2.6836,2.6425,0.0,0.0,2.527,2.6048,2.7046,2.7638,2.8924,3.033,3.1495,3.2476,3.3525,3.473,3.6772,3.8836,4.0663,4.0798,4.1001,4.1745,4.2117,4.2286,4.2286,4.2692,4.2963,4.2963,4.2963,4.3132,4.3633,4.3667,4.3572,4.3409,4.3842,4.4451,4.5229,4.5534,4.6143,4.6989,4.7601,4.8139,4.8578,4.8849,4.9018,4.9018,4.9018,4.9018,4.9052,4.9458,5.0067,5.0811,5.1555,5.2029,5.2401,5.3213,5.3518,5.3518,5.3518,5.3518,5.3518,5.3518,5.4499,5.5681,5.5681,5.6731,5.7881,5.7881,5.8137,5.8909,6.1037,6.1875,6.2736,6.5221,6.5815,6.5888,6.6219,6.6659,6.7026,6.7173,6.7834,6.8238,6.776,6.8091,6.8238,6.776,6.7687,6.7687,6.7687,6.7687,6.7687,6.7687,6.7687,6.7687,6.7687,6.7687,6.7687,6.7687,6.7687,6.7687,6.7687,6.7687,6.8185,6.9292,6.9313,6.9811,7.0898,6.9937,6.9436,6.9475,6.9975,7.0206,2.8287,2.7801,2.7485,2.738,2.7136,0.0,2.5128,2.5284,2.5507,2.4778,2.5659,2.6793,2.7418,2.9296,3.0954,3.1819,3.366,3.587,3.8396,3.9402,4.0121,4.0865,4.1542,4.1948,4.2049,4.2117,4.2185,4.2185,4.2252,4.2219,4.2049,4.2185,4.2557,4.3139,4.3308,4.3741,4.4479,4.5196,4.5635,4.5737,4.7124,4.7804,4.7906,4.868,4.9018,4.9018,4.9018,4.9018,4.9018,4.9018,4.9424,5.0168,5.0913,5.1657,5.2401,5.3213,5.3518,5.3518,5.3518,5.3518,5.3518,5.3518,5.4499,5.5681,5.5681,5.6731,5.7881,5.7881,5.8423,5.9385,6.1164,6.2218,6.345,6.5886,6.6549,6.6843,6.754,6.7687,6.7467,6.6769,6.7283,6.7797,6.7724,6.776,6.7797,6.7687,6.7687,6.7687,6.7687,6.7687,6.7687,6.7687,6.7687,6.7687,6.7687,6.7687,6.7687,6.7687,6.7687,6.7687,6.7687,6.7687,6.8161,6.919,6.9333,6.9903,7.0898,7.0898,7.0898,7.0898,7.0898,7.0898,2.9201,2.8998,2.8582,2.7938,2.7971,0.0,2.6968,2.6614,2.6285,2.5541,2.5609,2.5863,2.5998,2.6894,2.8028,2.9416,3.0514,3.2611,3.666,3.7855,3.8599,3.9343,3.9546,3.9884,4.0485,4.1068,4.1407,4.1407,4.1948,4.1805,4.0587,4.1644,4.2083,4.1644,4.2794,4.3477,4.3639,4.4418,4.5094,4.5703,4.6583,4.7327,4.7906,4.868,4.9018,4.9018,4.9018,4.9018,4.9018,4.9018,4.9424,5.0168,5.0913,5.1657,5.2401,5.3213,5.3518,5.3518,5.3518,5.3518,5.3518,5.3518,5.4499,5.5681,5.5681,5.6731,5.7881,5.7881,5.8027,5.8664,6.1005,6.2213,6.3447,6.5888,6.699,6.7504,6.765,6.7687,6.7677,6.7504,6.8128,6.8458,6.7797,6.8238,6.8458,6.7797,6.7687,6.7687,6.7687,6.7687,6.7687,6.7687,6.7687,6.7687,6.7687,6.7687,6.7687,6.7687,6.7687,6.7687,6.7687,6.7687,6.8007,6.8637,6.9473,7.0266,7.0898,7.0898,7.0898,7.0898,7.0898,7.0898,3.0665,3.0247,2.9912,2.9504,2.8961,0.0,0.0,2.6729,2.6048,2.5676,2.5,2.4628,2.4966,2.5338,2.5997,2.7097,2.8552,3.048,3.3085,3.4742,3.5926,3.6671,3.7077,3.7618,3.8386,3.9106,3.9851,4.0595,4.0967,4.0891,4.0146,4.079,4.1204,4.1204,4.1914,4.2658,4.3375,4.3809,4.4384,4.5162,4.5906,4.665,4.7394,4.8139,4.8646,4.9018,4.9018,4.9018,4.9052,4.939,4.9965,5.0676,5.1082,5.1928,5.2942,5.3348,5.3518,5.3518,5.3518,5.3518,5.3518,5.3518,5.4499,5.5681,5.5681,5.6731,5.7881,5.7881,5.7881,5.8486,6.0973,6.2195,6.3444,6.5898,6.71,6.7687,6.7687,6.7687,6.7687,6.7687,6.8017,6.8164,6.776,6.8017,6.8164,6.776,6.7687,6.7687,6.7687,6.7687,6.7834,6.8238,6.7944,6.7834,6.8274,6.7907,6.7687,6.7687,6.7687,6.7687,6.7687,6.7687,6.8072,6.8869,6.9701,7.0592,7.1552,7.1091,7.0898,7.0937,7.1783,7.1975,3.1856,3.1361,3.1096,3.0762,2.9935,2.892,0.0,0.0,0.0,2.5866,2.4751,2.3981,2.4528,2.4535,2.4677,2.5304,2.7029,2.8502,2.8958,3.0818,3.2645,3.41,3.481,3.5554,3.6468,3.711,3.8024,3.9368,3.9605,3.974,3.9876,4.0011,4.0383,4.0967,4.1136,4.1779,4.2936,4.324,4.3741,4.4378,4.5263,4.6007,4.6616,4.7496,4.821,4.8815,4.8951,4.9018,4.9052,4.9627,5.0405,5.1185,5.1386,5.2266,5.3518,5.3518,5.3518,5.3518,5.3518,5.3518,5.3518,5.3518,5.4499,5.5749,5.6055,5.6968,5.7881,5.7881,5.7881,5.8486,6.0973,6.2195,6.3408,6.5715,6.688,6.7467,6.7467,6.7357,6.732,6.7614,6.7577,6.7504,6.765,6.7687,6.7687,6.7687,6.7834,6.7871,6.7724,6.7834,6.8164,6.8825,6.8164,6.8091,6.9045,6.8238,6.776,6.7907,6.7797,6.7687,6.7687,6.7687,6.8185,6.9292,6.989,7.0856,7.2206,7.1822,7.1552,7.1437,7.2668,7.2976,3.1859,3.2087,3.1836,3.016,3.0853,3.1222,2.8461,0.0,2.7823,2.6866,0.0,2.5295,2.5083,0.0,0.0,2.4609,2.5372,2.5778,2.5218,2.6471,2.8958,3.3051,3.3592,3.4201,3.56,3.5802,3.6231,3.71,3.7787,3.843,3.9073,3.974,4.0146,4.0214,4.0865,4.1271,4.1474,4.276,4.3443,4.3544,4.5026,4.5737,4.5872,4.7293,4.7939,4.8041,4.8714,4.9018,4.9018,4.9086,4.9932,5.1252,5.1928,5.2739,5.3518,5.3518,5.3518,5.3518,5.3518,5.3518,5.3518,5.3518,5.4499,5.5953,5.7239,5.7746,5.7881,5.7881,5.7881,5.8486,6.0973,6.2195,6.3234,6.5021,6.6035,6.6623,6.6623,6.6072,6.5999,6.7393,6.71,6.6843,6.7577,6.7687,6.7687,6.7687,6.8311,6.8495,6.7797,6.8311,6.8788,6.8898,6.8164,6.8311,6.9816,6.8568,6.7981,6.8715,6.8091,6.7687,6.7687,6.7687,6.8185,6.9292,7.0111,7.11,7.2206,7.3591,7.3899,7.3206,7.2629,7.2706,3.2355,3.2705,3.2695,3.1052,3.1229,3.1213,2.9095,2.8347,2.8102,2.8067,0.0,0.0,0.0,0.0,0.0,0.0,2.5744,2.5981,2.5236,2.5676,2.6928,2.9228,2.9886,3.09,3.2848,3.3829,3.4641,3.5385,3.6569,3.7584,3.8328,3.9039,3.9673,4.0079,4.0417,4.0764,4.1204,4.2252,4.2997,4.3409,4.4519,4.5297,4.5737,4.6346,4.709,4.7906,4.824,4.8612,4.9052,4.9458,5.027,5.1252,5.2029,5.2807,5.3518,5.3518,5.3518,5.3518,5.3518,5.3518,5.3653,5.4499,5.5209,5.5987,5.7442,5.7881,5.7881,5.7881,5.7881,5.8384,6.0378,6.149,6.2556,6.4217,6.5558,6.6366,6.5888,6.5925,6.6219,6.688,6.6733,6.6769,6.754,6.7687,6.7687,6.7687,6.7981,6.8091,6.7724,6.8385,6.9082,6.9559,6.9302,6.9559,7.0697,6.9743,6.9229,6.9559,6.8825,6.8385,6.8385,6.7944,6.8185,6.9292,6.9652,7.0856,7.2937,7.3168,7.3822,7.4938,7.4591,7.4322,3.2791,3.3073,3.3211,3.1841,3.1553,3.1229,2.9733,2.9218,2.9105,2.9269,2.8408,0.0,0.0,0.0,2.5983,2.5782,0.0,2.615,2.5406,2.5473,2.5879,2.659,2.7537,2.8789,3.0465,3.1562,3.2577,3.3525,3.4832,3.6062,3.7212,3.8193,3.9039,3.9774,4.0011,4.0383,4.0899,4.1644,4.2354,4.3132,4.3876,4.4654,4.5399,4.5602,4.6413,4.7631,4.7804,4.8342,4.9052,4.9593,5.0338,5.1219,5.1792,5.2604,5.3518,5.3518,5.3518,5.3518,5.3518,5.3518,5.3754,5.5243,5.5681,5.5987,5.7442,5.7881,5.7881,5.7881,5.7881,5.8278,5.9951,6.1157,6.2287,6.3721,6.5317,6.6329,6.5778,6.5925,6.6292,6.6733,6.6659,6.6769,6.754,6.7687,6.7687,6.7687,6.7871,6.7944,6.7724,6.8385,6.9229,7.0,6.9889,7.0293,7.1541,7.0697,7.011,7.011,6.9559,6.9229,6.9229,6.8458,6.8519,6.9611,6.9652,7.0932,7.3514,7.3091,7.3976,7.5976,7.5745,7.5438,3.3004,3.3171,3.3148,3.206,3.2074,3.1976,3.0501,3.1115,3.161,3.0405,2.9876,2.9371,2.8533,2.6854,2.5753,2.6135,2.5878,0.0,0.0,2.5135,2.5879,2.659,2.8062,2.8976,2.9077,2.9111,2.9754,3.119,3.2022,3.3389,3.5566,3.711,3.8261,3.9005,3.974,4.0113,4.0146,4.0865,4.161,4.232,4.3098,4.3876,4.4682,4.5365,4.6109,4.6887,4.7597,4.8342,4.9018,4.9018,4.9898,5.1185,5.1251,5.2164,5.3518,5.3518,5.3518,5.3518,5.3518,5.3518,5.3754,5.5243,5.5681,5.5987,5.7442,5.7881,5.7881,5.7881,5.7881,5.8271,5.9978,6.1581,6.2978,6.3797,6.5296,6.6476,6.6476,6.5888,6.5815,6.7357,6.7026,6.6769,6.754,6.7687,6.7687,6.7687,6.8348,6.8568,6.7797,6.8385,6.9229,7.0,6.9412,6.9889,7.2275,7.0991,7.011,7.011,7.0073,7.0073,7.0073,6.9302,6.9371,7.0441,7.052,7.152,7.3514,7.4245,7.5091,7.5976,7.513,7.5168,3.325,3.3705,3.3804,3.246,3.2417,3.2316,3.0802,3.101,3.1311,3.0708,3.0485,3.0104,2.9336,2.8232,2.743,2.7352,2.6998,2.648,0.0,2.563,2.571,2.5947,2.686,2.7486,2.7486,2.7909,2.8398,2.8906,3.0581,3.2307,3.4066,3.6062,3.7719,3.8937,3.974,4.0113,4.0113,4.0832,4.1576,4.2286,4.3064,4.3809,4.4649,4.5365,4.6109,4.6819,4.7597,4.8342,4.9018,4.9018,4.9864,5.1185,5.1185,5.2164,5.3518,5.3518,5.3518,5.3518,5.3518,5.3518,5.3754,5.5243,5.5681,5.5987,5.7442,5.7881,5.7881,5.7881,5.7881,5.8312,5.9956,6.1196,6.2358,6.3739,6.5327,6.6366,6.5815,6.5925,6.6256,6.6806,6.6696,6.6769,6.754,6.7687,6.7687,6.7687,6.7907,6.8201,6.8458,6.9192,7.0,7.0807,7.1138,7.1615,7.2422,7.2018,7.1688,7.1688,7.1211,7.0881,7.0881,7.011,7.0224,7.1329,7.1388,7.2338,7.4284,7.4591,7.5168,7.5976,7.5707,7.5707,3.3795,3.4134,3.4269,3.3309,3.3214,3.3064,3.2081,3.2162,3.2336,3.1721,3.1356,3.0879,3.0138,2.9146,2.8387,2.8287,2.7737,2.7084,0.0,2.6159,2.5981,2.5981,2.642,2.6691,2.6691,2.7131,2.7519,2.779,2.9431,3.1157,3.2916,3.5148,3.7043,3.8565,3.9605,4.0113,4.0113,4.0832,4.1576,4.2286,4.3064,4.3809,4.4649,4.5365,4.6109,4.6819,4.7597,4.8342,4.9018,4.9018,4.9864,5.1185,5.1185,5.2164,5.3518,5.3518,5.3518,5.3518,5.3518,5.3518,5.3721,5.4905,5.531,5.5581,5.707,5.7509,5.7509,5.7509,5.7679,5.814,5.926,6.0776,6.2358,6.3748,6.5547,6.6769,6.6256,6.6549,6.6916,6.6916,6.6916,6.71,6.7614,6.7687,6.7687,6.7687,6.7944,6.8311,6.8825,6.9596,7.0403,7.1211,7.1762,7.2202,7.2496,7.2496,7.2496,7.2496,7.2018,7.1725,7.1725,7.1167,7.1405,7.2649,7.2311,7.3092,7.5168,7.4861,7.5168,7.6015,7.6015,7.6015]}]]